<?xml version="1.0" encoding="UTF-8" standalone="no" ?>
<gpx xmlns="http://www.topografix.com/GPX/1/1" xmlns:xsi="http://www.w3.org/2001/XMLSchema-instance" xsi:schemaLocation="http://www.topografix.com/GPX/1/1 http://www.topografix.com/GPX/1/1/gpx.xsd" version="1.1" creator="VisuGPX - https://www.visugpx.com">
  <metadata>
    <name>20260715-l'essart mador</name>
    <desc><![CDATA[Boucle A-R au départ de la chapelle st jean]]></desc>
  </metadata>
  <trk>
    <name><![CDATA[SityTrail - 20260715-l'essart mador ]]></name>
    <desc><![CDATA[Boucle A-R au départ de la chapelle st jean]]></desc>
    <trkseg>
      <trkpt lat="49.39572" lon="1.44433">
        <ele>159</ele>
        <time>2026-07-15T11:55:21.983Z</time>
      </trkpt>
      <trkpt lat="49.39568" lon="1.44432">
        <ele>160</ele>
        <time>2026-07-15T12:01:28.693Z</time>
      </trkpt>
      <trkpt lat="49.39565" lon="1.4444">
        <ele>160</ele>
        <time>2026-07-15T12:01:32.983Z</time>
      </trkpt>
      <trkpt lat="49.39564" lon="1.44449">
        <ele>160</ele>
        <time>2026-07-15T12:01:37.396Z</time>
      </trkpt>
      <trkpt lat="49.39566" lon="1.44458">
        <ele>160</ele>
        <time>2026-07-15T12:01:41.698Z</time>
      </trkpt>
      <trkpt lat="49.39567" lon="1.44465">
        <ele>160</ele>
        <time>2026-07-15T12:01:45.975Z</time>
      </trkpt>
      <trkpt lat="49.39568" lon="1.44472">
        <ele>160</ele>
        <time>2026-07-15T12:01:50.453Z</time>
      </trkpt>
      <trkpt lat="49.3957" lon="1.44478">
        <ele>159</ele>
        <time>2026-07-15T12:01:54.774Z</time>
      </trkpt>
      <trkpt lat="49.39572" lon="1.44483">
        <ele>159</ele>
        <time>2026-07-15T12:01:58.875Z</time>
      </trkpt>
      <trkpt lat="49.39574" lon="1.44491">
        <ele>160</ele>
        <time>2026-07-15T12:02:02.879Z</time>
      </trkpt>
      <trkpt lat="49.39574" lon="1.44497">
        <ele>160</ele>
        <time>2026-07-15T12:02:06.983Z</time>
      </trkpt>
      <trkpt lat="49.39576" lon="1.44503">
        <ele>160</ele>
        <time>2026-07-15T12:02:11.599Z</time>
      </trkpt>
      <trkpt lat="49.39579" lon="1.44507">
        <ele>160</ele>
        <time>2026-07-15T12:02:15.673Z</time>
      </trkpt>
      <trkpt lat="49.39577" lon="1.44516">
        <ele>162</ele>
        <time>2026-07-15T12:02:19.792Z</time>
      </trkpt>
      <trkpt lat="49.39575" lon="1.44523">
        <ele>162</ele>
        <time>2026-07-15T12:02:23.979Z</time>
      </trkpt>
      <trkpt lat="49.39573" lon="1.4453">
        <ele>162</ele>
        <time>2026-07-15T12:02:28.134Z</time>
      </trkpt>
      <trkpt lat="49.39574" lon="1.44537">
        <ele>162</ele>
        <time>2026-07-15T12:02:32.455Z</time>
      </trkpt>
      <trkpt lat="49.39578" lon="1.44542">
        <ele>163</ele>
        <time>2026-07-15T12:02:36.634Z</time>
      </trkpt>
      <trkpt lat="49.39579" lon="1.44545">
        <ele>163</ele>
        <time>2026-07-15T12:02:40.779Z</time>
      </trkpt>
      <trkpt lat="49.39581" lon="1.44551">
        <ele>163</ele>
        <time>2026-07-15T12:02:44.977Z</time>
      </trkpt>
      <trkpt lat="49.39575" lon="1.44554">
        <ele>163</ele>
        <time>2026-07-15T12:02:49.552Z</time>
      </trkpt>
      <trkpt lat="49.39571" lon="1.44557">
        <ele>163</ele>
        <time>2026-07-15T12:02:53.732Z</time>
      </trkpt>
      <trkpt lat="49.39566" lon="1.44561">
        <ele>162</ele>
        <time>2026-07-15T12:02:57.986Z</time>
      </trkpt>
      <trkpt lat="49.39562" lon="1.44564">
        <ele>162</ele>
        <time>2026-07-15T12:03:01.976Z</time>
      </trkpt>
      <trkpt lat="49.39557" lon="1.44568">
        <ele>162</ele>
        <time>2026-07-15T12:03:06.377Z</time>
      </trkpt>
      <trkpt lat="49.39554" lon="1.44571">
        <ele>162</ele>
        <time>2026-07-15T12:03:10.434Z</time>
      </trkpt>
      <trkpt lat="49.39549" lon="1.44574">
        <ele>162</ele>
        <time>2026-07-15T12:03:14.535Z</time>
      </trkpt>
      <trkpt lat="49.39544" lon="1.44577">
        <ele>162</ele>
        <time>2026-07-15T12:03:18.985Z</time>
      </trkpt>
      <trkpt lat="49.3954" lon="1.44579">
        <ele>160</ele>
        <time>2026-07-15T12:03:23.052Z</time>
      </trkpt>
      <trkpt lat="49.39535" lon="1.44583">
        <ele>160</ele>
        <time>2026-07-15T12:03:27.592Z</time>
      </trkpt>
      <trkpt lat="49.39531" lon="1.44586">
        <ele>160</ele>
        <time>2026-07-15T12:03:31.693Z</time>
      </trkpt>
      <trkpt lat="49.39526" lon="1.44588">
        <ele>160</ele>
        <time>2026-07-15T12:03:36.312Z</time>
      </trkpt>
      <trkpt lat="49.39521" lon="1.44591">
        <ele>160</ele>
        <time>2026-07-15T12:03:40.834Z</time>
      </trkpt>
      <trkpt lat="49.39516" lon="1.44593">
        <ele>160</ele>
        <time>2026-07-15T12:03:44.838Z</time>
      </trkpt>
      <trkpt lat="49.39511" lon="1.44594">
        <ele>160</ele>
        <time>2026-07-15T12:03:48.974Z</time>
      </trkpt>
      <trkpt lat="49.39507" lon="1.44598">
        <ele>162</ele>
        <time>2026-07-15T12:03:53.312Z</time>
      </trkpt>
      <trkpt lat="49.39502" lon="1.44601">
        <ele>162</ele>
        <time>2026-07-15T12:03:57.334Z</time>
      </trkpt>
      <trkpt lat="49.39498" lon="1.44605">
        <ele>162</ele>
        <time>2026-07-15T12:04:01.575Z</time>
      </trkpt>
      <trkpt lat="49.39493" lon="1.44608">
        <ele>162</ele>
        <time>2026-07-15T12:04:05.986Z</time>
      </trkpt>
      <trkpt lat="49.39488" lon="1.44611">
        <ele>162</ele>
        <time>2026-07-15T12:04:10.620Z</time>
      </trkpt>
      <trkpt lat="49.39485" lon="1.44612">
        <ele>162</ele>
        <time>2026-07-15T12:04:15.239Z</time>
      </trkpt>
      <trkpt lat="49.39479" lon="1.44615">
        <ele>162</ele>
        <time>2026-07-15T12:04:19.700Z</time>
      </trkpt>
      <trkpt lat="49.39473" lon="1.44616">
        <ele>162</ele>
        <time>2026-07-15T12:04:24.336Z</time>
      </trkpt>
      <trkpt lat="49.39468" lon="1.44617">
        <ele>162</ele>
        <time>2026-07-15T12:04:28.937Z</time>
      </trkpt>
      <trkpt lat="49.39463" lon="1.4462">
        <ele>162</ele>
        <time>2026-07-15T12:04:33.495Z</time>
      </trkpt>
      <trkpt lat="49.39459" lon="1.44621">
        <ele>162</ele>
        <time>2026-07-15T12:04:37.849Z</time>
      </trkpt>
      <trkpt lat="49.39454" lon="1.4462">
        <ele>161</ele>
        <time>2026-07-15T12:04:41.978Z</time>
      </trkpt>
      <trkpt lat="49.39449" lon="1.44618">
        <ele>161</ele>
        <time>2026-07-15T12:04:45.986Z</time>
      </trkpt>
      <trkpt lat="49.39445" lon="1.44619">
        <ele>161</ele>
        <time>2026-07-15T12:04:50.117Z</time>
      </trkpt>
      <trkpt lat="49.39439" lon="1.44619">
        <ele>161</ele>
        <time>2026-07-15T12:04:54.692Z</time>
      </trkpt>
      <trkpt lat="49.39434" lon="1.4462">
        <ele>161</ele>
        <time>2026-07-15T12:04:59.214Z</time>
      </trkpt>
      <trkpt lat="49.39428" lon="1.44622">
        <ele>157</ele>
        <time>2026-07-15T12:05:03.737Z</time>
      </trkpt>
      <trkpt lat="49.39423" lon="1.44623">
        <ele>157</ele>
        <time>2026-07-15T12:05:07.977Z</time>
      </trkpt>
      <trkpt lat="49.39418" lon="1.44624">
        <ele>157</ele>
        <time>2026-07-15T12:05:11.985Z</time>
      </trkpt>
      <trkpt lat="49.39413" lon="1.44627">
        <ele>158</ele>
        <time>2026-07-15T12:05:16.496Z</time>
      </trkpt>
      <trkpt lat="49.39408" lon="1.4463">
        <ele>158</ele>
        <time>2026-07-15T12:05:20.988Z</time>
      </trkpt>
      <trkpt lat="49.39403" lon="1.44632">
        <ele>158</ele>
        <time>2026-07-15T12:05:25.983Z</time>
      </trkpt>
      <trkpt lat="49.39398" lon="1.44632">
        <ele>156</ele>
        <time>2026-07-15T12:05:30.475Z</time>
      </trkpt>
      <trkpt lat="49.39393" lon="1.4463">
        <ele>156</ele>
        <time>2026-07-15T12:05:34.981Z</time>
      </trkpt>
      <trkpt lat="49.39388" lon="1.44627">
        <ele>156</ele>
        <time>2026-07-15T12:05:39.458Z</time>
      </trkpt>
      <trkpt lat="49.39383" lon="1.44624">
        <ele>156</ele>
        <time>2026-07-15T12:05:43.975Z</time>
      </trkpt>
      <trkpt lat="49.39379" lon="1.44621">
        <ele>156</ele>
        <time>2026-07-15T12:05:48.073Z</time>
      </trkpt>
      <trkpt lat="49.39374" lon="1.44615">
        <ele>154</ele>
        <time>2026-07-15T12:05:52.674Z</time>
      </trkpt>
      <trkpt lat="49.39369" lon="1.44614">
        <ele>154</ele>
        <time>2026-07-15T12:05:57.732Z</time>
      </trkpt>
      <trkpt lat="49.39365" lon="1.44611">
        <ele>154</ele>
        <time>2026-07-15T12:06:01.987Z</time>
      </trkpt>
      <trkpt lat="49.3936" lon="1.44609">
        <ele>154</ele>
        <time>2026-07-15T12:06:06.135Z</time>
      </trkpt>
      <trkpt lat="49.39355" lon="1.44606">
        <ele>154</ele>
        <time>2026-07-15T12:06:10.675Z</time>
      </trkpt>
      <trkpt lat="49.3935" lon="1.44604">
        <ele>154</ele>
        <time>2026-07-15T12:06:14.855Z</time>
      </trkpt>
      <trkpt lat="49.39345" lon="1.44603">
        <ele>151</ele>
        <time>2026-07-15T12:06:19.219Z</time>
      </trkpt>
      <trkpt lat="49.3934" lon="1.44602">
        <ele>151</ele>
        <time>2026-07-15T12:06:23.855Z</time>
      </trkpt>
      <trkpt lat="49.39334" lon="1.44601">
        <ele>151</ele>
        <time>2026-07-15T12:06:28.413Z</time>
      </trkpt>
      <trkpt lat="49.3933" lon="1.446">
        <ele>151</ele>
        <time>2026-07-15T12:06:32.918Z</time>
      </trkpt>
      <trkpt lat="49.39325" lon="1.44598">
        <ele>151</ele>
        <time>2026-07-15T12:06:36.957Z</time>
      </trkpt>
      <trkpt lat="49.39321" lon="1.44593">
        <ele>152</ele>
        <time>2026-07-15T12:06:41.497Z</time>
      </trkpt>
      <trkpt lat="49.39318" lon="1.44588">
        <ele>150</ele>
        <time>2026-07-15T12:06:45.536Z</time>
      </trkpt>
      <trkpt lat="49.39314" lon="1.44582">
        <ele>150</ele>
        <time>2026-07-15T12:06:49.989Z</time>
      </trkpt>
      <trkpt lat="49.3931" lon="1.44577">
        <ele>150</ele>
        <time>2026-07-15T12:06:54.519Z</time>
      </trkpt>
      <trkpt lat="49.39306" lon="1.44573">
        <ele>150</ele>
        <time>2026-07-15T12:06:58.989Z</time>
      </trkpt>
      <trkpt lat="49.39301" lon="1.44569">
        <ele>152</ele>
        <time>2026-07-15T12:07:03.599Z</time>
      </trkpt>
      <trkpt lat="49.39296" lon="1.44564">
        <ele>152</ele>
        <time>2026-07-15T12:07:08.156Z</time>
      </trkpt>
      <trkpt lat="49.39291" lon="1.4456">
        <ele>148</ele>
        <time>2026-07-15T12:07:12.652Z</time>
      </trkpt>
      <trkpt lat="49.39288" lon="1.44554">
        <ele>148</ele>
        <time>2026-07-15T12:07:16.989Z</time>
      </trkpt>
      <trkpt lat="49.39284" lon="1.4455">
        <ele>148</ele>
        <time>2026-07-15T12:07:20.989Z</time>
      </trkpt>
      <trkpt lat="49.3928" lon="1.44546">
        <ele>148</ele>
        <time>2026-07-15T12:07:25.156Z</time>
      </trkpt>
      <trkpt lat="49.39276" lon="1.44541">
        <ele>151</ele>
        <time>2026-07-15T12:07:29.696Z</time>
      </trkpt>
      <trkpt lat="49.39271" lon="1.44536">
        <ele>151</ele>
        <time>2026-07-15T12:07:34.358Z</time>
      </trkpt>
      <trkpt lat="49.39267" lon="1.44533">
        <ele>151</ele>
        <time>2026-07-15T12:07:38.916Z</time>
      </trkpt>
      <trkpt lat="49.39263" lon="1.44529">
        <ele>147</ele>
        <time>2026-07-15T12:07:42.937Z</time>
      </trkpt>
      <trkpt lat="49.39258" lon="1.44528">
        <ele>147</ele>
        <time>2026-07-15T12:07:46.989Z</time>
      </trkpt>
      <trkpt lat="49.39253" lon="1.44525">
        <ele>147</ele>
        <time>2026-07-15T12:07:51.552Z</time>
      </trkpt>
      <trkpt lat="49.39249" lon="1.44523">
        <ele>147</ele>
        <time>2026-07-15T12:07:55.538Z</time>
      </trkpt>
      <trkpt lat="49.39244" lon="1.44522">
        <ele>147</ele>
        <time>2026-07-15T12:07:59.639Z</time>
      </trkpt>
      <trkpt lat="49.39239" lon="1.4452">
        <ele>147</ele>
        <time>2026-07-15T12:08:04.135Z</time>
      </trkpt>
      <trkpt lat="49.39235" lon="1.44517">
        <ele>144</ele>
        <time>2026-07-15T12:08:08.692Z</time>
      </trkpt>
      <trkpt lat="49.3923" lon="1.44513">
        <ele>147</ele>
        <time>2026-07-15T12:08:12.989Z</time>
      </trkpt>
      <trkpt lat="49.39227" lon="1.44509">
        <ele>147</ele>
        <time>2026-07-15T12:08:17.175Z</time>
      </trkpt>
      <trkpt lat="49.39223" lon="1.44504">
        <ele>147</ele>
        <time>2026-07-15T12:08:21.679Z</time>
      </trkpt>
      <trkpt lat="49.39218" lon="1.445">
        <ele>147</ele>
        <time>2026-07-15T12:08:26.131Z</time>
      </trkpt>
      <trkpt lat="49.39213" lon="1.44498">
        <ele>147</ele>
        <time>2026-07-15T12:08:30.197Z</time>
      </trkpt>
      <trkpt lat="49.39208" lon="1.44495">
        <ele>143</ele>
        <time>2026-07-15T12:08:34.693Z</time>
      </trkpt>
      <trkpt lat="49.39203" lon="1.44491">
        <ele>143</ele>
        <time>2026-07-15T12:08:39.215Z</time>
      </trkpt>
      <trkpt lat="49.39199" lon="1.44487">
        <ele>143</ele>
        <time>2026-07-15T12:08:43.816Z</time>
      </trkpt>
      <trkpt lat="49.39194" lon="1.44483">
        <ele>144</ele>
        <time>2026-07-15T12:08:48.338Z</time>
      </trkpt>
      <trkpt lat="49.39189" lon="1.4448">
        <ele>144</ele>
        <time>2026-07-15T12:08:52.755Z</time>
      </trkpt>
      <trkpt lat="49.39184" lon="1.44475">
        <ele>144</ele>
        <time>2026-07-15T12:08:57.356Z</time>
      </trkpt>
      <trkpt lat="49.39181" lon="1.4447">
        <ele>144</ele>
        <time>2026-07-15T12:09:01.773Z</time>
      </trkpt>
      <trkpt lat="49.39177" lon="1.44464">
        <ele>140</ele>
        <time>2026-07-15T12:09:06.251Z</time>
      </trkpt>
      <trkpt lat="49.39173" lon="1.44459">
        <ele>140</ele>
        <time>2026-07-15T12:09:10.712Z</time>
      </trkpt>
      <trkpt lat="49.39169" lon="1.44454">
        <ele>141</ele>
        <time>2026-07-15T12:09:15.340Z</time>
      </trkpt>
      <trkpt lat="49.39166" lon="1.44448">
        <ele>141</ele>
        <time>2026-07-15T12:09:19.713Z</time>
      </trkpt>
      <trkpt lat="49.39162" lon="1.44443">
        <ele>141</ele>
        <time>2026-07-15T12:09:24.173Z</time>
      </trkpt>
      <trkpt lat="49.39158" lon="1.44439">
        <ele>141</ele>
        <time>2026-07-15T12:09:28.195Z</time>
      </trkpt>
      <trkpt lat="49.39153" lon="1.44436">
        <ele>141</ele>
        <time>2026-07-15T12:09:32.234Z</time>
      </trkpt>
      <trkpt lat="49.39149" lon="1.44433">
        <ele>139</ele>
        <time>2026-07-15T12:09:36.274Z</time>
      </trkpt>
      <trkpt lat="49.39145" lon="1.4443">
        <ele>140</ele>
        <time>2026-07-15T12:09:40.313Z</time>
      </trkpt>
      <trkpt lat="49.3914" lon="1.44426">
        <ele>140</ele>
        <time>2026-07-15T12:09:44.989Z</time>
      </trkpt>
      <trkpt lat="49.39136" lon="1.44422">
        <ele>140</ele>
        <time>2026-07-15T12:09:49.559Z</time>
      </trkpt>
      <trkpt lat="49.39132" lon="1.44417">
        <ele>140</ele>
        <time>2026-07-15T12:09:53.976Z</time>
      </trkpt>
      <trkpt lat="49.39129" lon="1.44412">
        <ele>140</ele>
        <time>2026-07-15T12:09:57.972Z</time>
      </trkpt>
      <trkpt lat="49.39125" lon="1.44406">
        <ele>140</ele>
        <time>2026-07-15T12:10:02.555Z</time>
      </trkpt>
      <trkpt lat="49.39121" lon="1.44402">
        <ele>140</ele>
        <time>2026-07-15T12:10:06.989Z</time>
      </trkpt>
      <trkpt lat="49.39117" lon="1.44397">
        <ele>140</ele>
        <time>2026-07-15T12:10:11.617Z</time>
      </trkpt>
      <trkpt lat="49.39113" lon="1.44393">
        <ele>140</ele>
        <time>2026-07-15T12:10:15.674Z</time>
      </trkpt>
      <trkpt lat="49.39109" lon="1.44388">
        <ele>140</ele>
        <time>2026-07-15T12:10:20.100Z</time>
      </trkpt>
      <trkpt lat="49.39105" lon="1.44382">
        <ele>140</ele>
        <time>2026-07-15T12:10:24.613Z</time>
      </trkpt>
      <trkpt lat="49.39102" lon="1.44378">
        <ele>140</ele>
        <time>2026-07-15T12:10:28.652Z</time>
      </trkpt>
      <trkpt lat="49.39097" lon="1.44374">
        <ele>140</ele>
        <time>2026-07-15T12:10:33.192Z</time>
      </trkpt>
      <trkpt lat="49.39093" lon="1.4437">
        <ele>140</ele>
        <time>2026-07-15T12:10:37.214Z</time>
      </trkpt>
      <trkpt lat="49.39088" lon="1.44365">
        <ele>140</ele>
        <time>2026-07-15T12:10:41.754Z</time>
      </trkpt>
      <trkpt lat="49.39083" lon="1.44361">
        <ele>140</ele>
        <time>2026-07-15T12:10:46.258Z</time>
      </trkpt>
      <trkpt lat="49.39079" lon="1.44358">
        <ele>140</ele>
        <time>2026-07-15T12:10:50.315Z</time>
      </trkpt>
      <trkpt lat="49.39075" lon="1.44353">
        <ele>140</ele>
        <time>2026-07-15T12:10:54.354Z</time>
      </trkpt>
      <trkpt lat="49.39071" lon="1.44348">
        <ele>140</ele>
        <time>2026-07-15T12:10:58.833Z</time>
      </trkpt>
      <trkpt lat="49.39067" lon="1.44343">
        <ele>139</ele>
        <time>2026-07-15T12:11:02.898Z</time>
      </trkpt>
      <trkpt lat="49.39064" lon="1.44337">
        <ele>139</ele>
        <time>2026-07-15T12:11:07.473Z</time>
      </trkpt>
      <trkpt lat="49.39062" lon="1.44336">
        <ele>139</ele>
        <time>2026-07-15T12:11:11.732Z</time>
      </trkpt>
      <trkpt lat="49.39059" lon="1.44329">
        <ele>139</ele>
        <time>2026-07-15T12:11:15.956Z</time>
      </trkpt>
      <trkpt lat="49.39057" lon="1.44322">
        <ele>139</ele>
        <time>2026-07-15T12:11:19.989Z</time>
      </trkpt>
      <trkpt lat="49.39054" lon="1.44315">
        <ele>140</ele>
        <time>2026-07-15T12:11:24.658Z</time>
      </trkpt>
      <trkpt lat="49.39051" lon="1.44309">
        <ele>140</ele>
        <time>2026-07-15T12:11:28.732Z</time>
      </trkpt>
      <trkpt lat="49.39049" lon="1.44303">
        <ele>140</ele>
        <time>2026-07-15T12:11:33.272Z</time>
      </trkpt>
      <trkpt lat="49.39046" lon="1.44297">
        <ele>140</ele>
        <time>2026-07-15T12:11:37.900Z</time>
      </trkpt>
      <trkpt lat="49.39043" lon="1.4429">
        <ele>141</ele>
        <time>2026-07-15T12:11:42.395Z</time>
      </trkpt>
      <trkpt lat="49.39041" lon="1.44284">
        <ele>140</ele>
        <time>2026-07-15T12:11:46.417Z</time>
      </trkpt>
      <trkpt lat="49.39037" lon="1.44281">
        <ele>140</ele>
        <time>2026-07-15T12:11:50.693Z</time>
      </trkpt>
      <trkpt lat="49.39036" lon="1.44281">
        <ele>140</ele>
        <time>2026-07-15T12:11:54.989Z</time>
      </trkpt>
      <trkpt lat="49.39035" lon="1.44278">
        <ele>140</ele>
        <time>2026-07-15T12:11:59.474Z</time>
      </trkpt>
      <trkpt lat="49.39032" lon="1.44269">
        <ele>140</ele>
        <time>2026-07-15T12:12:03.989Z</time>
      </trkpt>
      <trkpt lat="49.3903" lon="1.44264">
        <ele>140</ele>
        <time>2026-07-15T12:12:07.989Z</time>
      </trkpt>
      <trkpt lat="49.39029" lon="1.44256">
        <ele>141</ele>
        <time>2026-07-15T12:12:12.655Z</time>
      </trkpt>
      <trkpt lat="49.39029" lon="1.4425">
        <ele>141</ele>
        <time>2026-07-15T12:12:16.799Z</time>
      </trkpt>
      <trkpt lat="49.39029" lon="1.44243">
        <ele>141</ele>
        <time>2026-07-15T12:12:20.874Z</time>
      </trkpt>
      <trkpt lat="49.39029" lon="1.44235">
        <ele>142</ele>
        <time>2026-07-15T12:12:25.457Z</time>
      </trkpt>
      <trkpt lat="49.39029" lon="1.44227">
        <ele>142</ele>
        <time>2026-07-15T12:12:29.936Z</time>
      </trkpt>
      <trkpt lat="49.39029" lon="1.44219">
        <ele>142</ele>
        <time>2026-07-15T12:12:33.957Z</time>
      </trkpt>
      <trkpt lat="49.39028" lon="1.44213">
        <ele>142</ele>
        <time>2026-07-15T12:12:37.989Z</time>
      </trkpt>
      <trkpt lat="49.39028" lon="1.44206">
        <ele>141</ele>
        <time>2026-07-15T12:12:41.989Z</time>
      </trkpt>
      <trkpt lat="49.39028" lon="1.44198">
        <ele>141</ele>
        <time>2026-07-15T12:12:46.154Z</time>
      </trkpt>
      <trkpt lat="49.39028" lon="1.44191">
        <ele>141</ele>
        <time>2026-07-15T12:12:50.395Z</time>
      </trkpt>
      <trkpt lat="49.39026" lon="1.44182">
        <ele>141</ele>
        <time>2026-07-15T12:12:54.918Z</time>
      </trkpt>
      <trkpt lat="49.39025" lon="1.44175">
        <ele>140</ele>
        <time>2026-07-15T12:12:59.413Z</time>
      </trkpt>
      <trkpt lat="49.39024" lon="1.44167">
        <ele>140</ele>
        <time>2026-07-15T12:13:03.953Z</time>
      </trkpt>
      <trkpt lat="49.39024" lon="1.4416">
        <ele>140</ele>
        <time>2026-07-15T12:13:07.957Z</time>
      </trkpt>
      <trkpt lat="49.39022" lon="1.44152">
        <ele>139</ele>
        <time>2026-07-15T12:13:12.436Z</time>
      </trkpt>
      <trkpt lat="49.39022" lon="1.44143">
        <ele>139</ele>
        <time>2026-07-15T12:13:16.853Z</time>
      </trkpt>
      <trkpt lat="49.39021" lon="1.44135">
        <ele>139</ele>
        <time>2026-07-15T12:13:20.980Z</time>
      </trkpt>
      <trkpt lat="49.3902" lon="1.44127">
        <ele>139</ele>
        <time>2026-07-15T12:13:25.519Z</time>
      </trkpt>
      <trkpt lat="49.39018" lon="1.44119">
        <ele>138</ele>
        <time>2026-07-15T12:13:29.989Z</time>
      </trkpt>
      <trkpt lat="49.39017" lon="1.44111">
        <ele>138</ele>
        <time>2026-07-15T12:13:34.555Z</time>
      </trkpt>
      <trkpt lat="49.39016" lon="1.44102">
        <ele>138</ele>
        <time>2026-07-15T12:13:38.989Z</time>
      </trkpt>
      <trkpt lat="49.39016" lon="1.44094">
        <ele>138</ele>
        <time>2026-07-15T12:13:43.696Z</time>
      </trkpt>
      <trkpt lat="49.39015" lon="1.44088">
        <ele>138</ele>
        <time>2026-07-15T12:13:48.175Z</time>
      </trkpt>
      <trkpt lat="49.39015" lon="1.4408">
        <ele>138</ele>
        <time>2026-07-15T12:13:52.758Z</time>
      </trkpt>
      <trkpt lat="49.39015" lon="1.44073">
        <ele>138</ele>
        <time>2026-07-15T12:13:56.989Z</time>
      </trkpt>
      <trkpt lat="49.39015" lon="1.44065">
        <ele>138</ele>
        <time>2026-07-15T12:14:01.539Z</time>
      </trkpt>
      <trkpt lat="49.39015" lon="1.44056">
        <ele>138</ele>
        <time>2026-07-15T12:14:05.989Z</time>
      </trkpt>
      <trkpt lat="49.39015" lon="1.44048">
        <ele>138</ele>
        <time>2026-07-15T12:14:10.575Z</time>
      </trkpt>
      <trkpt lat="49.39015" lon="1.44042">
        <ele>138</ele>
        <time>2026-07-15T12:14:14.658Z</time>
      </trkpt>
      <trkpt lat="49.39016" lon="1.44036">
        <ele>137</ele>
        <time>2026-07-15T12:14:18.715Z</time>
      </trkpt>
      <trkpt lat="49.39017" lon="1.4403">
        <ele>137</ele>
        <time>2026-07-15T12:14:22.895Z</time>
      </trkpt>
      <trkpt lat="49.39019" lon="1.44024">
        <ele>137</ele>
        <time>2026-07-15T12:14:26.989Z</time>
      </trkpt>
      <trkpt lat="49.39023" lon="1.4402">
        <ele>137</ele>
        <time>2026-07-15T12:14:31.597Z</time>
      </trkpt>
      <trkpt lat="49.39027" lon="1.44018">
        <ele>137</ele>
        <time>2026-07-15T12:14:35.636Z</time>
      </trkpt>
      <trkpt lat="49.39032" lon="1.44017">
        <ele>137</ele>
        <time>2026-07-15T12:14:39.658Z</time>
      </trkpt>
      <trkpt lat="49.39036" lon="1.44015">
        <ele>137</ele>
        <time>2026-07-15T12:14:43.794Z</time>
      </trkpt>
      <trkpt lat="49.39041" lon="1.44014">
        <ele>137</ele>
        <time>2026-07-15T12:14:47.869Z</time>
      </trkpt>
      <trkpt lat="49.39045" lon="1.44013">
        <ele>139</ele>
        <time>2026-07-15T12:14:51.989Z</time>
      </trkpt>
      <trkpt lat="49.3905" lon="1.44013">
        <ele>139</ele>
        <time>2026-07-15T12:14:56.236Z</time>
      </trkpt>
      <trkpt lat="49.39055" lon="1.44013">
        <ele>139</ele>
        <time>2026-07-15T12:15:00.293Z</time>
      </trkpt>
      <trkpt lat="49.3906" lon="1.44013">
        <ele>139</ele>
        <time>2026-07-15T12:15:04.412Z</time>
      </trkpt>
      <trkpt lat="49.39064" lon="1.44013">
        <ele>139</ele>
        <time>2026-07-15T12:15:08.512Z</time>
      </trkpt>
      <trkpt lat="49.39069" lon="1.44013">
        <ele>139</ele>
        <time>2026-07-15T12:15:12.675Z</time>
      </trkpt>
      <trkpt lat="49.39075" lon="1.44014">
        <ele>140</ele>
        <time>2026-07-15T12:15:16.837Z</time>
      </trkpt>
      <trkpt lat="49.39079" lon="1.44014">
        <ele>140</ele>
        <time>2026-07-15T12:15:20.989Z</time>
      </trkpt>
      <trkpt lat="49.39084" lon="1.44013">
        <ele>140</ele>
        <time>2026-07-15T12:15:25.179Z</time>
      </trkpt>
      <trkpt lat="49.39089" lon="1.44013">
        <ele>140</ele>
        <time>2026-07-15T12:15:29.315Z</time>
      </trkpt>
      <trkpt lat="49.39094" lon="1.44012">
        <ele>140</ele>
        <time>2026-07-15T12:15:33.573Z</time>
      </trkpt>
      <trkpt lat="49.39099" lon="1.44011">
        <ele>142</ele>
        <time>2026-07-15T12:15:37.859Z</time>
      </trkpt>
      <trkpt lat="49.39104" lon="1.44011">
        <ele>142</ele>
        <time>2026-07-15T12:15:42.135Z</time>
      </trkpt>
      <trkpt lat="49.39109" lon="1.44011">
        <ele>142</ele>
        <time>2026-07-15T12:15:46.253Z</time>
      </trkpt>
      <trkpt lat="49.39114" lon="1.44011">
        <ele>142</ele>
        <time>2026-07-15T12:15:50.477Z</time>
      </trkpt>
      <trkpt lat="49.39118" lon="1.44011">
        <ele>142</ele>
        <time>2026-07-15T12:15:54.692Z</time>
      </trkpt>
      <trkpt lat="49.39124" lon="1.4401">
        <ele>142</ele>
        <time>2026-07-15T12:15:58.872Z</time>
      </trkpt>
      <trkpt lat="49.39129" lon="1.4401">
        <ele>143</ele>
        <time>2026-07-15T12:16:02.972Z</time>
      </trkpt>
      <trkpt lat="49.39134" lon="1.4401">
        <ele>143</ele>
        <time>2026-07-15T12:16:07.196Z</time>
      </trkpt>
      <trkpt lat="49.39138" lon="1.4401">
        <ele>143</ele>
        <time>2026-07-15T12:16:11.376Z</time>
      </trkpt>
      <trkpt lat="49.39143" lon="1.44011">
        <ele>143</ele>
        <time>2026-07-15T12:16:15.538Z</time>
      </trkpt>
      <trkpt lat="49.39148" lon="1.44012">
        <ele>143</ele>
        <time>2026-07-15T12:16:19.718Z</time>
      </trkpt>
      <trkpt lat="49.39152" lon="1.44011">
        <ele>143</ele>
        <time>2026-07-15T12:16:23.915Z</time>
      </trkpt>
      <trkpt lat="49.39157" lon="1.44012">
        <ele>143</ele>
        <time>2026-07-15T12:16:28.191Z</time>
      </trkpt>
      <trkpt lat="49.39162" lon="1.44013">
        <ele>143</ele>
        <time>2026-07-15T12:16:32.354Z</time>
      </trkpt>
      <trkpt lat="49.39167" lon="1.44013">
        <ele>143</ele>
        <time>2026-07-15T12:16:36.639Z</time>
      </trkpt>
      <trkpt lat="49.39172" lon="1.44013">
        <ele>143</ele>
        <time>2026-07-15T12:16:40.897Z</time>
      </trkpt>
      <trkpt lat="49.39177" lon="1.44013">
        <ele>143</ele>
        <time>2026-07-15T12:16:45.174Z</time>
      </trkpt>
      <trkpt lat="49.39181" lon="1.44013">
        <ele>144</ele>
        <time>2026-07-15T12:16:49.318Z</time>
      </trkpt>
      <trkpt lat="49.39186" lon="1.44014">
        <ele>144</ele>
        <time>2026-07-15T12:16:53.595Z</time>
      </trkpt>
      <trkpt lat="49.39191" lon="1.44014">
        <ele>144</ele>
        <time>2026-07-15T12:16:57.836Z</time>
      </trkpt>
      <trkpt lat="49.39196" lon="1.44013">
        <ele>144</ele>
        <time>2026-07-15T12:17:01.989Z</time>
      </trkpt>
      <trkpt lat="49.39201" lon="1.44013">
        <ele>144</ele>
        <time>2026-07-15T12:17:06.398Z</time>
      </trkpt>
      <trkpt lat="49.39205" lon="1.44013">
        <ele>144</ele>
        <time>2026-07-15T12:17:10.692Z</time>
      </trkpt>
      <trkpt lat="49.3921" lon="1.44013">
        <ele>144</ele>
        <time>2026-07-15T12:17:14.836Z</time>
      </trkpt>
      <trkpt lat="49.39216" lon="1.44013">
        <ele>144</ele>
        <time>2026-07-15T12:17:18.972Z</time>
      </trkpt>
      <trkpt lat="49.3922" lon="1.44014">
        <ele>144</ele>
        <time>2026-07-15T12:17:23.196Z</time>
      </trkpt>
      <trkpt lat="49.39225" lon="1.44013">
        <ele>144</ele>
        <time>2026-07-15T12:17:27.358Z</time>
      </trkpt>
      <trkpt lat="49.3923" lon="1.44013">
        <ele>144</ele>
        <time>2026-07-15T12:17:31.538Z</time>
      </trkpt>
      <trkpt lat="49.39236" lon="1.44012">
        <ele>144</ele>
        <time>2026-07-15T12:17:35.656Z</time>
      </trkpt>
      <trkpt lat="49.3924" lon="1.44011">
        <ele>144</ele>
        <time>2026-07-15T12:17:39.739Z</time>
      </trkpt>
      <trkpt lat="49.39245" lon="1.4401">
        <ele>144</ele>
        <time>2026-07-15T12:17:43.875Z</time>
      </trkpt>
      <trkpt lat="49.3925" lon="1.44011">
        <ele>144</ele>
        <time>2026-07-15T12:17:47.988Z</time>
      </trkpt>
      <trkpt lat="49.39256" lon="1.4401">
        <ele>144</ele>
        <time>2026-07-15T12:17:52.735Z</time>
      </trkpt>
      <trkpt lat="49.3926" lon="1.44008">
        <ele>144</ele>
        <time>2026-07-15T12:17:57.336Z</time>
      </trkpt>
      <trkpt lat="49.39264" lon="1.44004">
        <ele>144</ele>
        <time>2026-07-15T12:18:01.955Z</time>
      </trkpt>
      <trkpt lat="49.39267" lon="1.44">
        <ele>145</ele>
        <time>2026-07-15T12:18:05.989Z</time>
      </trkpt>
      <trkpt lat="49.3927" lon="1.43996">
        <ele>145</ele>
        <time>2026-07-15T12:18:10.894Z</time>
      </trkpt>
      <trkpt lat="49.39274" lon="1.43995">
        <ele>145</ele>
        <time>2026-07-15T12:18:14.989Z</time>
      </trkpt>
      <trkpt lat="49.39277" lon="1.43993">
        <ele>145</ele>
        <time>2026-07-15T12:19:20.989Z</time>
      </trkpt>
      <trkpt lat="49.39278" lon="1.43995">
        <ele>145</ele>
        <time>2026-07-15T12:19:25.655Z</time>
      </trkpt>
      <trkpt lat="49.39285" lon="1.43994">
        <ele>145</ele>
        <time>2026-07-15T12:19:29.987Z</time>
      </trkpt>
      <trkpt lat="49.39289" lon="1.43991">
        <ele>145</ele>
        <time>2026-07-15T12:19:33.988Z</time>
      </trkpt>
      <trkpt lat="49.39294" lon="1.43988">
        <ele>145</ele>
        <time>2026-07-15T12:19:38.317Z</time>
      </trkpt>
      <trkpt lat="49.39298" lon="1.43986">
        <ele>145</ele>
        <time>2026-07-15T12:19:42.479Z</time>
      </trkpt>
      <trkpt lat="49.39303" lon="1.43985">
        <ele>144</ele>
        <time>2026-07-15T12:19:46.536Z</time>
      </trkpt>
      <trkpt lat="49.39308" lon="1.43985">
        <ele>144</ele>
        <time>2026-07-15T12:19:50.575Z</time>
      </trkpt>
      <trkpt lat="49.39313" lon="1.43984">
        <ele>144</ele>
        <time>2026-07-15T12:19:54.987Z</time>
      </trkpt>
      <trkpt lat="49.39318" lon="1.43982">
        <ele>144</ele>
        <time>2026-07-15T12:19:59.655Z</time>
      </trkpt>
      <trkpt lat="49.39323" lon="1.4398">
        <ele>143</ele>
        <time>2026-07-15T12:20:04.212Z</time>
      </trkpt>
      <trkpt lat="49.39328" lon="1.43978">
        <ele>143</ele>
        <time>2026-07-15T12:20:08.611Z</time>
      </trkpt>
      <trkpt lat="49.39334" lon="1.43976">
        <ele>143</ele>
        <time>2026-07-15T12:20:12.989Z</time>
      </trkpt>
      <trkpt lat="49.39339" lon="1.43973">
        <ele>143</ele>
        <time>2026-07-15T12:20:17.533Z</time>
      </trkpt>
      <trkpt lat="49.39343" lon="1.43971">
        <ele>143</ele>
        <time>2026-07-15T12:20:21.554Z</time>
      </trkpt>
      <trkpt lat="49.39349" lon="1.4397">
        <ele>143</ele>
        <time>2026-07-15T12:20:26.156Z</time>
      </trkpt>
      <trkpt lat="49.39354" lon="1.4397">
        <ele>143</ele>
        <time>2026-07-15T12:20:30.160Z</time>
      </trkpt>
      <trkpt lat="49.39358" lon="1.4397">
        <ele>143</ele>
        <time>2026-07-15T12:20:34.234Z</time>
      </trkpt>
      <trkpt lat="49.39363" lon="1.43969">
        <ele>143</ele>
        <time>2026-07-15T12:20:38.273Z</time>
      </trkpt>
      <trkpt lat="49.39369" lon="1.43968">
        <ele>143</ele>
        <time>2026-07-15T12:20:42.813Z</time>
      </trkpt>
      <trkpt lat="49.39374" lon="1.43966">
        <ele>143</ele>
        <time>2026-07-15T12:20:46.835Z</time>
      </trkpt>
      <trkpt lat="49.39379" lon="1.43963">
        <ele>143</ele>
        <time>2026-07-15T12:20:51.357Z</time>
      </trkpt>
      <trkpt lat="49.39384" lon="1.4396">
        <ele>143</ele>
        <time>2026-07-15T12:20:55.914Z</time>
      </trkpt>
      <trkpt lat="49.39389" lon="1.43957">
        <ele>143</ele>
        <time>2026-07-15T12:20:59.971Z</time>
      </trkpt>
      <trkpt lat="49.39393" lon="1.43956">
        <ele>143</ele>
        <time>2026-07-15T12:21:03.988Z</time>
      </trkpt>
      <trkpt lat="49.39398" lon="1.43954">
        <ele>143</ele>
        <time>2026-07-15T12:21:08.638Z</time>
      </trkpt>
      <trkpt lat="49.39403" lon="1.43952">
        <ele>143</ele>
        <time>2026-07-15T12:21:12.774Z</time>
      </trkpt>
      <trkpt lat="49.39407" lon="1.43949">
        <ele>144</ele>
        <time>2026-07-15T12:21:16.953Z</time>
      </trkpt>
      <trkpt lat="49.39411" lon="1.43947">
        <ele>144</ele>
        <time>2026-07-15T12:21:21.318Z</time>
      </trkpt>
      <trkpt lat="49.39416" lon="1.43947">
        <ele>144</ele>
        <time>2026-07-15T12:21:25.655Z</time>
      </trkpt>
      <trkpt lat="49.39421" lon="1.43945">
        <ele>144</ele>
        <time>2026-07-15T12:21:29.988Z</time>
      </trkpt>
      <trkpt lat="49.39426" lon="1.43944">
        <ele>144</ele>
        <time>2026-07-15T12:21:34.515Z</time>
      </trkpt>
      <trkpt lat="49.3943" lon="1.43943">
        <ele>144</ele>
        <time>2026-07-15T12:21:38.880Z</time>
      </trkpt>
      <trkpt lat="49.39435" lon="1.43943">
        <ele>145</ele>
        <time>2026-07-15T12:21:42.989Z</time>
      </trkpt>
      <trkpt lat="49.3944" lon="1.4394">
        <ele>145</ele>
        <time>2026-07-15T12:21:47.239Z</time>
      </trkpt>
      <trkpt lat="49.39444" lon="1.43939">
        <ele>145</ele>
        <time>2026-07-15T12:21:51.577Z</time>
      </trkpt>
      <trkpt lat="49.39449" lon="1.43938">
        <ele>145</ele>
        <time>2026-07-15T12:21:55.836Z</time>
      </trkpt>
      <trkpt lat="49.39452" lon="1.43936">
        <ele>145</ele>
        <time>2026-07-15T12:21:59.989Z</time>
      </trkpt>
      <trkpt lat="49.39457" lon="1.43934">
        <ele>145</ele>
        <time>2026-07-15T12:22:04.494Z</time>
      </trkpt>
      <trkpt lat="49.39461" lon="1.43932">
        <ele>146</ele>
        <time>2026-07-15T12:22:08.831Z</time>
      </trkpt>
      <trkpt lat="49.39465" lon="1.4393">
        <ele>145</ele>
        <time>2026-07-15T12:22:12.988Z</time>
      </trkpt>
      <trkpt lat="49.3947" lon="1.43927">
        <ele>145</ele>
        <time>2026-07-15T12:22:17.358Z</time>
      </trkpt>
      <trkpt lat="49.39475" lon="1.43925">
        <ele>145</ele>
        <time>2026-07-15T12:22:21.634Z</time>
      </trkpt>
      <trkpt lat="49.39479" lon="1.43923">
        <ele>145</ele>
        <time>2026-07-15T12:22:25.893Z</time>
      </trkpt>
      <trkpt lat="49.39484" lon="1.43921">
        <ele>145</ele>
        <time>2026-07-15T12:22:30.257Z</time>
      </trkpt>
      <trkpt lat="49.39489" lon="1.43919">
        <ele>149</ele>
        <time>2026-07-15T12:22:34.533Z</time>
      </trkpt>
      <trkpt lat="49.39494" lon="1.43918">
        <ele>149</ele>
        <time>2026-07-15T12:22:38.880Z</time>
      </trkpt>
      <trkpt lat="49.39499" lon="1.43916">
        <ele>149</ele>
        <time>2026-07-15T12:22:43.156Z</time>
      </trkpt>
      <trkpt lat="49.39503" lon="1.43914">
        <ele>149</ele>
        <time>2026-07-15T12:22:47.380Z</time>
      </trkpt>
      <trkpt lat="49.39508" lon="1.43911">
        <ele>149</ele>
        <time>2026-07-15T12:22:51.612Z</time>
      </trkpt>
      <trkpt lat="49.39512" lon="1.4391">
        <ele>149</ele>
        <time>2026-07-15T12:22:55.739Z</time>
      </trkpt>
      <trkpt lat="49.39517" lon="1.43909">
        <ele>153</ele>
        <time>2026-07-15T12:22:59.936Z</time>
      </trkpt>
      <trkpt lat="49.39521" lon="1.43907">
        <ele>153</ele>
        <time>2026-07-15T12:23:03.988Z</time>
      </trkpt>
      <trkpt lat="49.39526" lon="1.43905">
        <ele>153</ele>
        <time>2026-07-15T12:23:08.392Z</time>
      </trkpt>
      <trkpt lat="49.3953" lon="1.43904">
        <ele>153</ele>
        <time>2026-07-15T12:23:12.677Z</time>
      </trkpt>
      <trkpt lat="49.39535" lon="1.43901">
        <ele>154</ele>
        <time>2026-07-15T12:23:16.875Z</time>
      </trkpt>
      <trkpt lat="49.39539" lon="1.43898">
        <ele>154</ele>
        <time>2026-07-15T12:23:20.988Z</time>
      </trkpt>
      <trkpt lat="49.39544" lon="1.43896">
        <ele>159</ele>
        <time>2026-07-15T12:23:25.234Z</time>
      </trkpt>
      <trkpt lat="49.39548" lon="1.43892">
        <ele>159</ele>
        <time>2026-07-15T12:23:29.458Z</time>
      </trkpt>
      <trkpt lat="49.39552" lon="1.43889">
        <ele>159</ele>
        <time>2026-07-15T12:23:33.673Z</time>
      </trkpt>
      <trkpt lat="49.39555" lon="1.43885">
        <ele>159</ele>
        <time>2026-07-15T12:23:38.292Z</time>
      </trkpt>
      <trkpt lat="49.39552" lon="1.43883">
        <ele>159</ele>
        <time>2026-07-15T12:25:50.988Z</time>
      </trkpt>
      <trkpt lat="49.39553" lon="1.43875">
        <ele>159</ele>
        <time>2026-07-15T12:25:55.683Z</time>
      </trkpt>
      <trkpt lat="49.39552" lon="1.43869">
        <ele>160</ele>
        <time>2026-07-15T12:25:59.801Z</time>
      </trkpt>
      <trkpt lat="49.39552" lon="1.43863">
        <ele>160</ele>
        <time>2026-07-15T12:26:03.989Z</time>
      </trkpt>
      <trkpt lat="49.39552" lon="1.43856">
        <ele>160</ele>
        <time>2026-07-15T12:26:08.706Z</time>
      </trkpt>
      <trkpt lat="49.39552" lon="1.43853">
        <ele>160</ele>
        <time>2026-07-15T12:26:12.921Z</time>
      </trkpt>
      <trkpt lat="49.39553" lon="1.43844">
        <ele>159</ele>
        <time>2026-07-15T12:26:16.986Z</time>
      </trkpt>
      <trkpt lat="49.39553" lon="1.43841">
        <ele>159</ele>
        <time>2026-07-15T12:26:21.106Z</time>
      </trkpt>
      <trkpt lat="49.39556" lon="1.43833">
        <ele>159</ele>
        <time>2026-07-15T12:26:25.620Z</time>
      </trkpt>
      <trkpt lat="49.39557" lon="1.43826">
        <ele>159</ele>
        <time>2026-07-15T12:26:30.125Z</time>
      </trkpt>
      <trkpt lat="49.39555" lon="1.43819">
        <ele>157</ele>
        <time>2026-07-15T12:26:34.682Z</time>
      </trkpt>
      <trkpt lat="49.39555" lon="1.4381">
        <ele>157</ele>
        <time>2026-07-15T12:26:38.880Z</time>
      </trkpt>
      <trkpt lat="49.39555" lon="1.43802">
        <ele>157</ele>
        <time>2026-07-15T12:26:42.981Z</time>
      </trkpt>
      <trkpt lat="49.39555" lon="1.43795">
        <ele>157</ele>
        <time>2026-07-15T12:26:46.986Z</time>
      </trkpt>
      <trkpt lat="49.39556" lon="1.43789">
        <ele>155</ele>
        <time>2026-07-15T12:26:50.989Z</time>
      </trkpt>
      <trkpt lat="49.39557" lon="1.43783">
        <ele>155</ele>
        <time>2026-07-15T12:26:55.285Z</time>
      </trkpt>
      <trkpt lat="49.39558" lon="1.43776">
        <ele>155</ele>
        <time>2026-07-15T12:26:59.439Z</time>
      </trkpt>
      <trkpt lat="49.39558" lon="1.4377">
        <ele>155</ele>
        <time>2026-07-15T12:27:03.979Z</time>
      </trkpt>
      <trkpt lat="49.39558" lon="1.43761">
        <ele>153</ele>
        <time>2026-07-15T12:27:08.989Z</time>
      </trkpt>
      <trkpt lat="49.39559" lon="1.43755">
        <ele>153</ele>
        <time>2026-07-15T12:27:13.384Z</time>
      </trkpt>
      <trkpt lat="49.39559" lon="1.43749">
        <ele>153</ele>
        <time>2026-07-15T12:27:17.485Z</time>
      </trkpt>
      <trkpt lat="49.39559" lon="1.43742">
        <ele>153</ele>
        <time>2026-07-15T12:27:21.986Z</time>
      </trkpt>
      <trkpt lat="49.39559" lon="1.43736">
        <ele>152</ele>
        <time>2026-07-15T12:27:26.641Z</time>
      </trkpt>
      <trkpt lat="49.3956" lon="1.43731">
        <ele>152</ele>
        <time>2026-07-15T12:27:30.707Z</time>
      </trkpt>
      <trkpt lat="49.39561" lon="1.43727">
        <ele>152</ele>
        <time>2026-07-15T12:27:34.781Z</time>
      </trkpt>
      <trkpt lat="49.39561" lon="1.43718">
        <ele>152</ele>
        <time>2026-07-15T12:27:38.989Z</time>
      </trkpt>
      <trkpt lat="49.39562" lon="1.43709">
        <ele>152</ele>
        <time>2026-07-15T12:27:43.581Z</time>
      </trkpt>
      <trkpt lat="49.39563" lon="1.437">
        <ele>151</ele>
        <time>2026-07-15T12:27:48.138Z</time>
      </trkpt>
      <trkpt lat="49.39564" lon="1.43692">
        <ele>151</ele>
        <time>2026-07-15T12:27:52.626Z</time>
      </trkpt>
      <trkpt lat="49.39564" lon="1.43683">
        <ele>151</ele>
        <time>2026-07-15T12:27:56.989Z</time>
      </trkpt>
      <trkpt lat="49.39564" lon="1.43674">
        <ele>150</ele>
        <time>2026-07-15T12:28:01.644Z</time>
      </trkpt>
      <trkpt lat="49.39564" lon="1.43666">
        <ele>150</ele>
        <time>2026-07-15T12:28:06.220Z</time>
      </trkpt>
      <trkpt lat="49.39564" lon="1.43659">
        <ele>150</ele>
        <time>2026-07-15T12:28:10.461Z</time>
      </trkpt>
      <trkpt lat="49.39565" lon="1.4365">
        <ele>149</ele>
        <time>2026-07-15T12:28:14.987Z</time>
      </trkpt>
      <trkpt lat="49.39566" lon="1.43642">
        <ele>149</ele>
        <time>2026-07-15T12:28:19.682Z</time>
      </trkpt>
      <trkpt lat="49.39566" lon="1.43635">
        <ele>149</ele>
        <time>2026-07-15T12:28:23.704Z</time>
      </trkpt>
      <trkpt lat="49.39567" lon="1.43628">
        <ele>149</ele>
        <time>2026-07-15T12:28:28.103Z</time>
      </trkpt>
      <trkpt lat="49.39566" lon="1.43627">
        <ele>149</ele>
        <time>2026-07-15T12:28:32.989Z</time>
      </trkpt>
      <trkpt lat="49.39566" lon="1.43626">
        <ele>149</ele>
        <time>2026-07-15T12:28:37.988Z</time>
      </trkpt>
      <trkpt lat="49.39565" lon="1.43625">
        <ele>149</ele>
        <time>2026-07-15T12:28:42.206Z</time>
      </trkpt>
      <trkpt lat="49.39566" lon="1.43614">
        <ele>149</ele>
        <time>2026-07-15T12:28:46.360Z</time>
      </trkpt>
      <trkpt lat="49.39566" lon="1.43606">
        <ele>149</ele>
        <time>2026-07-15T12:28:50.461Z</time>
      </trkpt>
      <trkpt lat="49.39566" lon="1.43598">
        <ele>149</ele>
        <time>2026-07-15T12:28:54.579Z</time>
      </trkpt>
      <trkpt lat="49.39567" lon="1.43592">
        <ele>148</ele>
        <time>2026-07-15T12:28:58.601Z</time>
      </trkpt>
      <trkpt lat="49.39567" lon="1.43588">
        <ele>148</ele>
        <time>2026-07-15T12:29:02.685Z</time>
      </trkpt>
      <trkpt lat="49.39567" lon="1.4358">
        <ele>148</ele>
        <time>2026-07-15T12:29:06.698Z</time>
      </trkpt>
      <trkpt lat="49.39568" lon="1.4357">
        <ele>148</ele>
        <time>2026-07-15T12:29:11.220Z</time>
      </trkpt>
      <trkpt lat="49.39567" lon="1.43563">
        <ele>148</ele>
        <time>2026-07-15T12:29:15.225Z</time>
      </trkpt>
      <trkpt lat="49.39566" lon="1.43555">
        <ele>148</ele>
        <time>2026-07-15T12:29:19.765Z</time>
      </trkpt>
      <trkpt lat="49.39565" lon="1.43549">
        <ele>148</ele>
        <time>2026-07-15T12:29:23.989Z</time>
      </trkpt>
      <trkpt lat="49.39563" lon="1.43541">
        <ele>147</ele>
        <time>2026-07-15T12:29:28.458Z</time>
      </trkpt>
      <trkpt lat="49.39562" lon="1.43534">
        <ele>147</ele>
        <time>2026-07-15T12:29:32.524Z</time>
      </trkpt>
      <trkpt lat="49.3956" lon="1.43528">
        <ele>147</ele>
        <time>2026-07-15T12:29:36.564Z</time>
      </trkpt>
      <trkpt lat="49.39558" lon="1.43522">
        <ele>147</ele>
        <time>2026-07-15T12:29:40.665Z</time>
      </trkpt>
      <trkpt lat="49.39555" lon="1.43514">
        <ele>147</ele>
        <time>2026-07-15T12:29:45.363Z</time>
      </trkpt>
      <trkpt lat="49.39552" lon="1.43508">
        <ele>147</ele>
        <time>2026-07-15T12:29:49.718Z</time>
      </trkpt>
      <trkpt lat="49.3955" lon="1.43502">
        <ele>147</ele>
        <time>2026-07-15T12:29:53.766Z</time>
      </trkpt>
      <trkpt lat="49.39548" lon="1.43496">
        <ele>147</ele>
        <time>2026-07-15T12:29:57.858Z</time>
      </trkpt>
      <trkpt lat="49.39546" lon="1.4349">
        <ele>147</ele>
        <time>2026-07-15T12:30:01.942Z</time>
      </trkpt>
      <trkpt lat="49.39543" lon="1.43485">
        <ele>148</ele>
        <time>2026-07-15T12:30:05.963Z</time>
      </trkpt>
      <trkpt lat="49.39541" lon="1.43479">
        <ele>147</ele>
        <time>2026-07-15T12:30:09.986Z</time>
      </trkpt>
      <trkpt lat="49.39538" lon="1.43472">
        <ele>147</ele>
        <time>2026-07-15T12:30:14.587Z</time>
      </trkpt>
      <trkpt lat="49.39536" lon="1.43465">
        <ele>147</ele>
        <time>2026-07-15T12:30:18.767Z</time>
      </trkpt>
      <trkpt lat="49.39534" lon="1.43457">
        <ele>148</ele>
        <time>2026-07-15T12:30:23.465Z</time>
      </trkpt>
      <trkpt lat="49.39533" lon="1.43449">
        <ele>148</ele>
        <time>2026-07-15T12:30:27.986Z</time>
      </trkpt>
      <trkpt lat="49.39532" lon="1.43442">
        <ele>148</ele>
        <time>2026-07-15T12:30:32.062Z</time>
      </trkpt>
      <trkpt lat="49.39531" lon="1.43434">
        <ele>148</ele>
        <time>2026-07-15T12:30:36.681Z</time>
      </trkpt>
      <trkpt lat="49.3953" lon="1.43428">
        <ele>146</ele>
        <time>2026-07-15T12:30:40.781Z</time>
      </trkpt>
      <trkpt lat="49.39528" lon="1.43421">
        <ele>146</ele>
        <time>2026-07-15T12:30:44.838Z</time>
      </trkpt>
      <trkpt lat="49.39527" lon="1.43414">
        <ele>146</ele>
        <time>2026-07-15T12:30:48.966Z</time>
      </trkpt>
      <trkpt lat="49.39525" lon="1.43407">
        <ele>146</ele>
        <time>2026-07-15T12:30:52.987Z</time>
      </trkpt>
      <trkpt lat="49.39523" lon="1.43399">
        <ele>143</ele>
        <time>2026-07-15T12:30:57.659Z</time>
      </trkpt>
      <trkpt lat="49.39522" lon="1.43391">
        <ele>143</ele>
        <time>2026-07-15T12:31:01.821Z</time>
      </trkpt>
      <trkpt lat="49.39522" lon="1.43385">
        <ele>143</ele>
        <time>2026-07-15T12:31:05.843Z</time>
      </trkpt>
      <trkpt lat="49.39521" lon="1.43378">
        <ele>143</ele>
        <time>2026-07-15T12:31:09.988Z</time>
      </trkpt>
      <trkpt lat="49.39521" lon="1.4337">
        <ele>138</ele>
        <time>2026-07-15T12:31:14.686Z</time>
      </trkpt>
      <trkpt lat="49.39521" lon="1.43364">
        <ele>138</ele>
        <time>2026-07-15T12:31:19.322Z</time>
      </trkpt>
      <trkpt lat="49.3952" lon="1.43358">
        <ele>138</ele>
        <time>2026-07-15T12:31:23.581Z</time>
      </trkpt>
      <trkpt lat="49.39519" lon="1.43352">
        <ele>138</ele>
        <time>2026-07-15T12:31:27.987Z</time>
      </trkpt>
      <trkpt lat="49.39517" lon="1.43344">
        <ele>134</ele>
        <time>2026-07-15T12:31:32.538Z</time>
      </trkpt>
      <trkpt lat="49.39517" lon="1.43337">
        <ele>134</ele>
        <time>2026-07-15T12:31:36.858Z</time>
      </trkpt>
      <trkpt lat="49.39516" lon="1.4333">
        <ele>134</ele>
        <time>2026-07-15T12:31:40.985Z</time>
      </trkpt>
      <trkpt lat="49.39512" lon="1.43319">
        <ele>130</ele>
        <time>2026-07-15T12:31:58.989Z</time>
      </trkpt>
      <trkpt lat="49.39511" lon="1.43313">
        <ele>130</ele>
        <time>2026-07-15T12:32:03.562Z</time>
      </trkpt>
      <trkpt lat="49.3951" lon="1.43304">
        <ele>130</ele>
        <time>2026-07-15T12:32:07.786Z</time>
      </trkpt>
      <trkpt lat="49.39508" lon="1.43296">
        <ele>130</ele>
        <time>2026-07-15T12:32:11.987Z</time>
      </trkpt>
      <trkpt lat="49.39506" lon="1.43289">
        <ele>130</ele>
        <time>2026-07-15T12:32:16.286Z</time>
      </trkpt>
      <trkpt lat="49.39505" lon="1.43282">
        <ele>130</ele>
        <time>2026-07-15T12:32:20.703Z</time>
      </trkpt>
      <trkpt lat="49.39504" lon="1.43277">
        <ele>130</ele>
        <time>2026-07-15T12:32:24.804Z</time>
      </trkpt>
      <trkpt lat="49.39503" lon="1.4327">
        <ele>130</ele>
        <time>2026-07-15T12:32:29.361Z</time>
      </trkpt>
      <trkpt lat="49.39501" lon="1.43265">
        <ele>130</ele>
        <time>2026-07-15T12:32:33.787Z</time>
      </trkpt>
      <trkpt lat="49.39496" lon="1.43251">
        <ele>130</ele>
        <time>2026-07-15T12:32:55.989Z</time>
      </trkpt>
      <trkpt lat="49.39497" lon="1.43248">
        <ele>130</ele>
        <time>2026-07-15T12:33:00.139Z</time>
      </trkpt>
      <trkpt lat="49.39497" lon="1.4324">
        <ele>130</ele>
        <time>2026-07-15T12:33:04.284Z</time>
      </trkpt>
      <trkpt lat="49.39495" lon="1.43232">
        <ele>130</ele>
        <time>2026-07-15T12:33:08.525Z</time>
      </trkpt>
      <trkpt lat="49.39492" lon="1.43224">
        <ele>130</ele>
        <time>2026-07-15T12:33:12.880Z</time>
      </trkpt>
      <trkpt lat="49.3949" lon="1.43218">
        <ele>130</ele>
        <time>2026-07-15T12:33:16.986Z</time>
      </trkpt>
      <trkpt lat="49.39488" lon="1.43211">
        <ele>130</ele>
        <time>2026-07-15T12:33:21.178Z</time>
      </trkpt>
      <trkpt lat="49.39486" lon="1.43203">
        <ele>132</ele>
        <time>2026-07-15T12:33:25.701Z</time>
      </trkpt>
      <trkpt lat="49.39485" lon="1.43196">
        <ele>132</ele>
        <time>2026-07-15T12:33:29.723Z</time>
      </trkpt>
      <trkpt lat="49.39484" lon="1.43189">
        <ele>132</ele>
        <time>2026-07-15T12:33:34.174Z</time>
      </trkpt>
      <trkpt lat="49.39481" lon="1.43182">
        <ele>132</ele>
        <time>2026-07-15T12:33:38.425Z</time>
      </trkpt>
      <trkpt lat="49.39478" lon="1.43175">
        <ele>135</ele>
        <time>2026-07-15T12:33:42.921Z</time>
      </trkpt>
      <trkpt lat="49.39474" lon="1.43169">
        <ele>135</ele>
        <time>2026-07-15T12:33:47.425Z</time>
      </trkpt>
      <trkpt lat="49.39469" lon="1.43166">
        <ele>135</ele>
        <time>2026-07-15T12:33:51.886Z</time>
      </trkpt>
      <trkpt lat="49.39464" lon="1.43164">
        <ele>135</ele>
        <time>2026-07-15T12:33:55.984Z</time>
      </trkpt>
      <trkpt lat="49.39461" lon="1.4316">
        <ele>135</ele>
        <time>2026-07-15T12:33:59.985Z</time>
      </trkpt>
      <trkpt lat="49.39456" lon="1.43155">
        <ele>135</ele>
        <time>2026-07-15T12:34:04.663Z</time>
      </trkpt>
      <trkpt lat="49.39451" lon="1.43152">
        <ele>137</ele>
        <time>2026-07-15T12:34:08.983Z</time>
      </trkpt>
      <trkpt lat="49.39447" lon="1.43149">
        <ele>137</ele>
        <time>2026-07-15T12:34:13.163Z</time>
      </trkpt>
      <trkpt lat="49.39444" lon="1.43145">
        <ele>137</ele>
        <time>2026-07-15T12:34:17.184Z</time>
      </trkpt>
      <trkpt lat="49.3944" lon="1.43141">
        <ele>137</ele>
        <time>2026-07-15T12:34:21.759Z</time>
      </trkpt>
      <trkpt lat="49.39436" lon="1.43137">
        <ele>137</ele>
        <time>2026-07-15T12:34:25.886Z</time>
      </trkpt>
      <trkpt lat="49.39431" lon="1.43133">
        <ele>137</ele>
        <time>2026-07-15T12:34:29.984Z</time>
      </trkpt>
      <trkpt lat="49.39426" lon="1.43129">
        <ele>136</ele>
        <time>2026-07-15T12:34:34.641Z</time>
      </trkpt>
      <trkpt lat="49.39422" lon="1.43125">
        <ele>136</ele>
        <time>2026-07-15T12:34:38.680Z</time>
      </trkpt>
      <trkpt lat="49.39419" lon="1.43121">
        <ele>136</ele>
        <time>2026-07-15T12:34:42.781Z</time>
      </trkpt>
      <trkpt lat="49.39415" lon="1.43116">
        <ele>136</ele>
        <time>2026-07-15T12:34:46.987Z</time>
      </trkpt>
      <trkpt lat="49.39414" lon="1.43111">
        <ele>136</ele>
        <time>2026-07-15T12:34:51.989Z</time>
      </trkpt>
      <trkpt lat="49.3941" lon="1.43108">
        <ele>136</ele>
        <time>2026-07-15T12:34:56.541Z</time>
      </trkpt>
      <trkpt lat="49.39404" lon="1.43109">
        <ele>136</ele>
        <time>2026-07-15T12:35:00.580Z</time>
      </trkpt>
      <trkpt lat="49.39399" lon="1.43112">
        <ele>134</ele>
        <time>2026-07-15T12:35:05.164Z</time>
      </trkpt>
      <trkpt lat="49.39393" lon="1.43112">
        <ele>134</ele>
        <time>2026-07-15T12:35:09.660Z</time>
      </trkpt>
      <trkpt lat="49.39389" lon="1.43113">
        <ele>134</ele>
        <time>2026-07-15T12:35:14.103Z</time>
      </trkpt>
      <trkpt lat="49.39383" lon="1.43113">
        <ele>134</ele>
        <time>2026-07-15T12:35:18.546Z</time>
      </trkpt>
      <trkpt lat="49.39377" lon="1.43115">
        <ele>134</ele>
        <time>2026-07-15T12:35:22.986Z</time>
      </trkpt>
      <trkpt lat="49.39372" lon="1.43118">
        <ele>132</ele>
        <time>2026-07-15T12:35:27.520Z</time>
      </trkpt>
      <trkpt lat="49.39367" lon="1.43122">
        <ele>132</ele>
        <time>2026-07-15T12:35:31.885Z</time>
      </trkpt>
      <trkpt lat="49.39363" lon="1.43127">
        <ele>133</ele>
        <time>2026-07-15T12:35:35.987Z</time>
      </trkpt>
      <trkpt lat="49.39358" lon="1.43128">
        <ele>133</ele>
        <time>2026-07-15T12:35:40.121Z</time>
      </trkpt>
      <trkpt lat="49.39352" lon="1.43128">
        <ele>133</ele>
        <time>2026-07-15T12:35:44.520Z</time>
      </trkpt>
      <trkpt lat="49.39347" lon="1.43128">
        <ele>133</ele>
        <time>2026-07-15T12:35:48.885Z</time>
      </trkpt>
      <trkpt lat="49.39342" lon="1.43128">
        <ele>131</ele>
        <time>2026-07-15T12:35:53.266Z</time>
      </trkpt>
      <trkpt lat="49.39336" lon="1.43129">
        <ele>131</ele>
        <time>2026-07-15T12:35:57.622Z</time>
      </trkpt>
      <trkpt lat="49.39331" lon="1.43131">
        <ele>131</ele>
        <time>2026-07-15T12:36:01.987Z</time>
      </trkpt>
      <trkpt lat="49.39326" lon="1.43133">
        <ele>131</ele>
        <time>2026-07-15T12:36:06.341Z</time>
      </trkpt>
      <trkpt lat="49.3932" lon="1.43134">
        <ele>131</ele>
        <time>2026-07-15T12:36:10.758Z</time>
      </trkpt>
      <trkpt lat="49.39315" lon="1.43136">
        <ele>127</ele>
        <time>2026-07-15T12:36:14.989Z</time>
      </trkpt>
      <trkpt lat="49.3931" lon="1.43137">
        <ele>127</ele>
        <time>2026-07-15T12:36:19.398Z</time>
      </trkpt>
      <trkpt lat="49.39305" lon="1.43134">
        <ele>127</ele>
        <time>2026-07-15T12:36:23.780Z</time>
      </trkpt>
      <trkpt lat="49.39299" lon="1.43131">
        <ele>127</ele>
        <time>2026-07-15T12:36:28.144Z</time>
      </trkpt>
      <trkpt lat="49.39295" lon="1.43128">
        <ele>127</ele>
        <time>2026-07-15T12:36:32.465Z</time>
      </trkpt>
      <trkpt lat="49.39291" lon="1.43122">
        <ele>126</ele>
        <time>2026-07-15T12:36:36.925Z</time>
      </trkpt>
      <trkpt lat="49.39286" lon="1.43118">
        <ele>126</ele>
        <time>2026-07-15T12:36:41.342Z</time>
      </trkpt>
      <trkpt lat="49.39281" lon="1.43113">
        <ele>126</ele>
        <time>2026-07-15T12:36:45.820Z</time>
      </trkpt>
      <trkpt lat="49.39278" lon="1.43107">
        <ele>126</ele>
        <time>2026-07-15T12:36:50.299Z</time>
      </trkpt>
      <trkpt lat="49.39273" lon="1.43101">
        <ele>126</ele>
        <time>2026-07-15T12:36:54.786Z</time>
      </trkpt>
      <trkpt lat="49.3927" lon="1.43095">
        <ele>127</ele>
        <time>2026-07-15T12:36:59.220Z</time>
      </trkpt>
      <trkpt lat="49.39267" lon="1.43089">
        <ele>127</ele>
        <time>2026-07-15T12:37:03.681Z</time>
      </trkpt>
      <trkpt lat="49.39263" lon="1.43082">
        <ele>125</ele>
        <time>2026-07-15T12:37:07.986Z</time>
      </trkpt>
      <trkpt lat="49.3926" lon="1.43075">
        <ele>125</ele>
        <time>2026-07-15T12:37:12.462Z</time>
      </trkpt>
      <trkpt lat="49.39256" lon="1.43071">
        <ele>125</ele>
        <time>2026-07-15T12:37:16.659Z</time>
      </trkpt>
      <trkpt lat="49.39254" lon="1.43064">
        <ele>125</ele>
        <time>2026-07-15T12:37:20.985Z</time>
      </trkpt>
      <trkpt lat="49.3925" lon="1.43057">
        <ele>125</ele>
        <time>2026-07-15T12:37:25.440Z</time>
      </trkpt>
      <trkpt lat="49.39247" lon="1.43049">
        <ele>125</ele>
        <time>2026-07-15T12:37:29.804Z</time>
      </trkpt>
      <trkpt lat="49.39243" lon="1.43043">
        <ele>125</ele>
        <time>2026-07-15T12:37:34.221Z</time>
      </trkpt>
      <trkpt lat="49.3924" lon="1.43036">
        <ele>125</ele>
        <time>2026-07-15T12:37:38.699Z</time>
      </trkpt>
      <trkpt lat="49.39236" lon="1.43029">
        <ele>125</ele>
        <time>2026-07-15T12:37:43.125Z</time>
      </trkpt>
      <trkpt lat="49.39233" lon="1.43023">
        <ele>124</ele>
        <time>2026-07-15T12:37:47.559Z</time>
      </trkpt>
      <trkpt lat="49.39229" lon="1.43017">
        <ele>124</ele>
        <time>2026-07-15T12:37:51.985Z</time>
      </trkpt>
      <trkpt lat="49.39225" lon="1.43012">
        <ele>124</ele>
        <time>2026-07-15T12:37:56.366Z</time>
      </trkpt>
      <trkpt lat="49.39222" lon="1.43005">
        <ele>124</ele>
        <time>2026-07-15T12:38:00.739Z</time>
      </trkpt>
      <trkpt lat="49.39219" lon="1.42997">
        <ele>124</ele>
        <time>2026-07-15T12:38:05.165Z</time>
      </trkpt>
      <trkpt lat="49.39216" lon="1.42991">
        <ele>124</ele>
        <time>2026-07-15T12:38:09.564Z</time>
      </trkpt>
      <trkpt lat="49.39213" lon="1.42984">
        <ele>124</ele>
        <time>2026-07-15T12:38:13.986Z</time>
      </trkpt>
      <trkpt lat="49.3921" lon="1.42977">
        <ele>124</ele>
        <time>2026-07-15T12:38:18.318Z</time>
      </trkpt>
      <trkpt lat="49.39208" lon="1.42969">
        <ele>123</ele>
        <time>2026-07-15T12:38:22.762Z</time>
      </trkpt>
      <trkpt lat="49.39205" lon="1.42963">
        <ele>123</ele>
        <time>2026-07-15T12:38:27.143Z</time>
      </trkpt>
      <trkpt lat="49.39202" lon="1.42957">
        <ele>123</ele>
        <time>2026-07-15T12:38:31.542Z</time>
      </trkpt>
      <trkpt lat="49.39198" lon="1.4295">
        <ele>123</ele>
        <time>2026-07-15T12:38:35.942Z</time>
      </trkpt>
      <trkpt lat="49.39196" lon="1.42943">
        <ele>123</ele>
        <time>2026-07-15T12:38:40.306Z</time>
      </trkpt>
      <trkpt lat="49.39193" lon="1.42936">
        <ele>123</ele>
        <time>2026-07-15T12:38:44.679Z</time>
      </trkpt>
      <trkpt lat="49.39189" lon="1.42929">
        <ele>123</ele>
        <time>2026-07-15T12:38:48.988Z</time>
      </trkpt>
      <trkpt lat="49.39186" lon="1.42922">
        <ele>123</ele>
        <time>2026-07-15T12:38:53.398Z</time>
      </trkpt>
      <trkpt lat="49.39182" lon="1.42915">
        <ele>123</ele>
        <time>2026-07-15T12:38:57.841Z</time>
      </trkpt>
      <trkpt lat="49.39179" lon="1.42908">
        <ele>123</ele>
        <time>2026-07-15T12:39:02.284Z</time>
      </trkpt>
      <trkpt lat="49.39175" lon="1.42902">
        <ele>122</ele>
        <time>2026-07-15T12:39:06.780Z</time>
      </trkpt>
      <trkpt lat="49.39171" lon="1.42897">
        <ele>122</ele>
        <time>2026-07-15T12:39:11.206Z</time>
      </trkpt>
      <trkpt lat="49.39167" lon="1.42892">
        <ele>122</ele>
        <time>2026-07-15T12:39:15.579Z</time>
      </trkpt>
      <trkpt lat="49.39163" lon="1.42886">
        <ele>122</ele>
        <time>2026-07-15T12:39:19.987Z</time>
      </trkpt>
      <trkpt lat="49.39158" lon="1.42882">
        <ele>122</ele>
        <time>2026-07-15T12:39:24.403Z</time>
      </trkpt>
      <trkpt lat="49.39154" lon="1.42876">
        <ele>122</ele>
        <time>2026-07-15T12:39:28.882Z</time>
      </trkpt>
      <trkpt lat="49.3915" lon="1.42871">
        <ele>122</ele>
        <time>2026-07-15T12:39:33.342Z</time>
      </trkpt>
      <trkpt lat="49.39144" lon="1.42866">
        <ele>122</ele>
        <time>2026-07-15T12:39:37.838Z</time>
      </trkpt>
      <trkpt lat="49.39135" lon="1.42857">
        <ele>122</ele>
        <time>2026-07-15T12:39:46.663Z</time>
      </trkpt>
      <trkpt lat="49.39131" lon="1.42851">
        <ele>122</ele>
        <time>2026-07-15T12:39:51.141Z</time>
      </trkpt>
      <trkpt lat="49.39127" lon="1.42845">
        <ele>123</ele>
        <time>2026-07-15T12:39:55.602Z</time>
      </trkpt>
      <trkpt lat="49.39123" lon="1.42839">
        <ele>126</ele>
        <time>2026-07-15T12:39:59.641Z</time>
      </trkpt>
      <trkpt lat="49.3912" lon="1.42833">
        <ele>126</ele>
        <time>2026-07-15T12:40:03.985Z</time>
      </trkpt>
      <trkpt lat="49.39117" lon="1.42826">
        <ele>126</ele>
        <time>2026-07-15T12:40:08.642Z</time>
      </trkpt>
      <trkpt lat="49.39115" lon="1.42819">
        <ele>128</ele>
        <time>2026-07-15T12:40:13.146Z</time>
      </trkpt>
      <trkpt lat="49.39114" lon="1.42812">
        <ele>128</ele>
        <time>2026-07-15T12:40:17.185Z</time>
      </trkpt>
      <trkpt lat="49.39114" lon="1.42804">
        <ele>128</ele>
        <time>2026-07-15T12:40:21.198Z</time>
      </trkpt>
      <trkpt lat="49.39115" lon="1.42797">
        <ele>128</ele>
        <time>2026-07-15T12:40:25.466Z</time>
      </trkpt>
      <trkpt lat="49.39114" lon="1.4279">
        <ele>129</ele>
        <time>2026-07-15T12:40:29.804Z</time>
      </trkpt>
      <trkpt lat="49.39113" lon="1.42785">
        <ele>129</ele>
        <time>2026-07-15T12:40:33.887Z</time>
      </trkpt>
      <trkpt lat="49.39113" lon="1.42777">
        <ele>129</ele>
        <time>2026-07-15T12:40:38.181Z</time>
      </trkpt>
      <trkpt lat="49.39113" lon="1.42771">
        <ele>129</ele>
        <time>2026-07-15T12:40:42.501Z</time>
      </trkpt>
      <trkpt lat="49.39113" lon="1.42764">
        <ele>129</ele>
        <time>2026-07-15T12:40:46.698Z</time>
      </trkpt>
      <trkpt lat="49.39112" lon="1.42758">
        <ele>130</ele>
        <time>2026-07-15T12:40:50.860Z</time>
      </trkpt>
      <trkpt lat="49.39112" lon="1.42751">
        <ele>130</ele>
        <time>2026-07-15T12:40:54.943Z</time>
      </trkpt>
      <trkpt lat="49.39111" lon="1.42744">
        <ele>130</ele>
        <time>2026-07-15T12:40:58.983Z</time>
      </trkpt>
      <trkpt lat="49.39111" lon="1.42736">
        <ele>130</ele>
        <time>2026-07-15T12:41:03.320Z</time>
      </trkpt>
      <trkpt lat="49.39111" lon="1.42729">
        <ele>130</ele>
        <time>2026-07-15T12:41:07.342Z</time>
      </trkpt>
      <trkpt lat="49.3911" lon="1.42722">
        <ele>130</ele>
        <time>2026-07-15T12:41:11.443Z</time>
      </trkpt>
      <trkpt lat="49.39108" lon="1.42715">
        <ele>130</ele>
        <time>2026-07-15T12:41:15.544Z</time>
      </trkpt>
      <trkpt lat="49.39106" lon="1.42709">
        <ele>130</ele>
        <time>2026-07-15T12:41:19.600Z</time>
      </trkpt>
      <trkpt lat="49.39103" lon="1.42702">
        <ele>129</ele>
        <time>2026-07-15T12:41:23.987Z</time>
      </trkpt>
      <trkpt lat="49.39101" lon="1.42694">
        <ele>129</ele>
        <time>2026-07-15T12:41:28.724Z</time>
      </trkpt>
      <trkpt lat="49.39099" lon="1.42687">
        <ele>129</ele>
        <time>2026-07-15T12:41:32.763Z</time>
      </trkpt>
      <trkpt lat="49.39095" lon="1.42682">
        <ele>130</ele>
        <time>2026-07-15T12:41:36.820Z</time>
      </trkpt>
      <trkpt lat="49.39092" lon="1.42678">
        <ele>129</ele>
        <time>2026-07-15T12:41:40.986Z</time>
      </trkpt>
      <trkpt lat="49.39088" lon="1.42673">
        <ele>129</ele>
        <time>2026-07-15T12:41:45.601Z</time>
      </trkpt>
      <trkpt lat="49.39085" lon="1.42668">
        <ele>129</ele>
        <time>2026-07-15T12:41:49.623Z</time>
      </trkpt>
      <trkpt lat="49.39082" lon="1.42662">
        <ele>129</ele>
        <time>2026-07-15T12:41:53.680Z</time>
      </trkpt>
      <trkpt lat="49.39079" lon="1.42656">
        <ele>129</ele>
        <time>2026-07-15T12:41:57.842Z</time>
      </trkpt>
      <trkpt lat="49.39078" lon="1.4265">
        <ele>128</ele>
        <time>2026-07-15T12:42:01.987Z</time>
      </trkpt>
      <trkpt lat="49.39078" lon="1.42646">
        <ele>128</ele>
        <time>2026-07-15T12:42:06.984Z</time>
      </trkpt>
      <trkpt lat="49.39077" lon="1.42646">
        <ele>128</ele>
        <time>2026-07-15T12:42:11.989Z</time>
      </trkpt>
      <trkpt lat="49.39075" lon="1.42643">
        <ele>128</ele>
        <time>2026-07-15T12:42:16.423Z</time>
      </trkpt>
      <trkpt lat="49.39071" lon="1.42635">
        <ele>128</ele>
        <time>2026-07-15T12:42:20.901Z</time>
      </trkpt>
      <trkpt lat="49.39068" lon="1.42629">
        <ele>128</ele>
        <time>2026-07-15T12:42:24.923Z</time>
      </trkpt>
      <trkpt lat="49.39066" lon="1.42623">
        <ele>128</ele>
        <time>2026-07-15T12:42:28.986Z</time>
      </trkpt>
      <trkpt lat="49.39063" lon="1.42616">
        <ele>128</ele>
        <time>2026-07-15T12:42:33.361Z</time>
      </trkpt>
      <trkpt lat="49.39062" lon="1.42608">
        <ele>128</ele>
        <time>2026-07-15T12:42:37.945Z</time>
      </trkpt>
      <trkpt lat="49.3906" lon="1.426">
        <ele>128</ele>
        <time>2026-07-15T12:42:42.441Z</time>
      </trkpt>
      <trkpt lat="49.39059" lon="1.42591">
        <ele>128</ele>
        <time>2026-07-15T12:42:46.985Z</time>
      </trkpt>
      <trkpt lat="49.39056" lon="1.42586">
        <ele>128</ele>
        <time>2026-07-15T12:42:50.985Z</time>
      </trkpt>
      <trkpt lat="49.39054" lon="1.42578">
        <ele>128</ele>
        <time>2026-07-15T12:42:55.700Z</time>
      </trkpt>
      <trkpt lat="49.39053" lon="1.42571">
        <ele>128</ele>
        <time>2026-07-15T12:42:59.783Z</time>
      </trkpt>
      <trkpt lat="49.39051" lon="1.42564">
        <ele>128</ele>
        <time>2026-07-15T12:43:04.323Z</time>
      </trkpt>
      <trkpt lat="49.3905" lon="1.42557">
        <ele>128</ele>
        <time>2026-07-15T12:43:08.380Z</time>
      </trkpt>
      <trkpt lat="49.39048" lon="1.42551">
        <ele>128</ele>
        <time>2026-07-15T12:43:12.463Z</time>
      </trkpt>
      <trkpt lat="49.39045" lon="1.42545">
        <ele>128</ele>
        <time>2026-07-15T12:43:16.625Z</time>
      </trkpt>
      <trkpt lat="49.39042" lon="1.42538">
        <ele>125</ele>
        <time>2026-07-15T12:43:20.682Z</time>
      </trkpt>
      <trkpt lat="49.39039" lon="1.42532">
        <ele>125</ele>
        <time>2026-07-15T12:43:25.380Z</time>
      </trkpt>
      <trkpt lat="49.39036" lon="1.42527">
        <ele>125</ele>
        <time>2026-07-15T12:43:29.402Z</time>
      </trkpt>
      <trkpt lat="49.39033" lon="1.42522">
        <ele>125</ele>
        <time>2026-07-15T12:43:33.485Z</time>
      </trkpt>
      <trkpt lat="49.39029" lon="1.42518">
        <ele>125</ele>
        <time>2026-07-15T12:43:37.638Z</time>
      </trkpt>
      <trkpt lat="49.39025" lon="1.42513">
        <ele>123</ele>
        <time>2026-07-15T12:43:42.178Z</time>
      </trkpt>
      <trkpt lat="49.39021" lon="1.42507">
        <ele>123</ele>
        <time>2026-07-15T12:43:46.744Z</time>
      </trkpt>
      <trkpt lat="49.39017" lon="1.42503">
        <ele>123</ele>
        <time>2026-07-15T12:43:50.784Z</time>
      </trkpt>
      <trkpt lat="49.39014" lon="1.42498">
        <ele>123</ele>
        <time>2026-07-15T12:43:54.884Z</time>
      </trkpt>
      <trkpt lat="49.39012" lon="1.4249">
        <ele>123</ele>
        <time>2026-07-15T12:43:59.459Z</time>
      </trkpt>
      <trkpt lat="49.39011" lon="1.42483">
        <ele>122</ele>
        <time>2026-07-15T12:44:03.525Z</time>
      </trkpt>
      <trkpt lat="49.3901" lon="1.42476">
        <ele>122</ele>
        <time>2026-07-15T12:44:07.599Z</time>
      </trkpt>
      <trkpt lat="49.39008" lon="1.4247">
        <ele>122</ele>
        <time>2026-07-15T12:44:11.700Z</time>
      </trkpt>
      <trkpt lat="49.39006" lon="1.42464">
        <ele>122</ele>
        <time>2026-07-15T12:44:15.783Z</time>
      </trkpt>
      <trkpt lat="49.39003" lon="1.42458">
        <ele>121</ele>
        <time>2026-07-15T12:44:20.358Z</time>
      </trkpt>
      <trkpt lat="49.38999" lon="1.42451">
        <ele>121</ele>
        <time>2026-07-15T12:44:24.924Z</time>
      </trkpt>
      <trkpt lat="49.38997" lon="1.42445">
        <ele>121</ele>
        <time>2026-07-15T12:44:28.946Z</time>
      </trkpt>
      <trkpt lat="49.38993" lon="1.4244">
        <ele>121</ele>
        <time>2026-07-15T12:44:32.985Z</time>
      </trkpt>
      <trkpt lat="49.38988" lon="1.42434">
        <ele>121</ele>
        <time>2026-07-15T12:44:37.683Z</time>
      </trkpt>
      <trkpt lat="49.38984" lon="1.42427">
        <ele>123</ele>
        <time>2026-07-15T12:44:42.284Z</time>
      </trkpt>
      <trkpt lat="49.3898" lon="1.42421">
        <ele>123</ele>
        <time>2026-07-15T12:44:46.859Z</time>
      </trkpt>
      <trkpt lat="49.38979" lon="1.42415">
        <ele>123</ele>
        <time>2026-07-15T12:44:50.989Z</time>
      </trkpt>
      <trkpt lat="49.38977" lon="1.42414">
        <ele>123</ele>
        <time>2026-07-15T12:44:55.986Z</time>
      </trkpt>
      <trkpt lat="49.38977" lon="1.42415">
        <ele>123</ele>
        <time>2026-07-15T12:47:08.242Z</time>
      </trkpt>
      <trkpt lat="49.38973" lon="1.42407">
        <ele>123</ele>
        <time>2026-07-15T12:47:12.483Z</time>
      </trkpt>
      <trkpt lat="49.38969" lon="1.42399">
        <ele>123</ele>
        <time>2026-07-15T12:47:16.984Z</time>
      </trkpt>
      <trkpt lat="49.38966" lon="1.42392">
        <ele>123</ele>
        <time>2026-07-15T12:47:21.624Z</time>
      </trkpt>
      <trkpt lat="49.38964" lon="1.42386">
        <ele>123</ele>
        <time>2026-07-15T12:47:25.985Z</time>
      </trkpt>
      <trkpt lat="49.3896" lon="1.4238">
        <ele>123</ele>
        <time>2026-07-15T12:47:30.704Z</time>
      </trkpt>
      <trkpt lat="49.38957" lon="1.42374">
        <ele>125</ele>
        <time>2026-07-15T12:47:35.086Z</time>
      </trkpt>
      <trkpt lat="49.38954" lon="1.42369">
        <ele>125</ele>
        <time>2026-07-15T12:47:39.126Z</time>
      </trkpt>
      <trkpt lat="49.38951" lon="1.42364">
        <ele>125</ele>
        <time>2026-07-15T12:47:43.139Z</time>
      </trkpt>
      <trkpt lat="49.38948" lon="1.42358">
        <ele>125</ele>
        <time>2026-07-15T12:47:47.538Z</time>
      </trkpt>
      <trkpt lat="49.38945" lon="1.42351">
        <ele>125</ele>
        <time>2026-07-15T12:47:51.920Z</time>
      </trkpt>
      <trkpt lat="49.38942" lon="1.42346">
        <ele>124</ele>
        <time>2026-07-15T12:47:55.924Z</time>
      </trkpt>
      <trkpt lat="49.38939" lon="1.4234">
        <ele>124</ele>
        <time>2026-07-15T12:48:00.403Z</time>
      </trkpt>
      <trkpt lat="49.38935" lon="1.42335">
        <ele>124</ele>
        <time>2026-07-15T12:48:04.442Z</time>
      </trkpt>
      <trkpt lat="49.38932" lon="1.4233">
        <ele>124</ele>
        <time>2026-07-15T12:48:08.842Z</time>
      </trkpt>
      <trkpt lat="49.38928" lon="1.42324">
        <ele>123</ele>
        <time>2026-07-15T12:48:13.285Z</time>
      </trkpt>
      <trkpt lat="49.38925" lon="1.42318">
        <ele>122</ele>
        <time>2026-07-15T12:48:17.702Z</time>
      </trkpt>
      <trkpt lat="49.38922" lon="1.42313">
        <ele>122</ele>
        <time>2026-07-15T12:48:22.198Z</time>
      </trkpt>
      <trkpt lat="49.38918" lon="1.42311">
        <ele>122</ele>
        <time>2026-07-15T12:48:26.985Z</time>
      </trkpt>
      <trkpt lat="49.38914" lon="1.42306">
        <ele>122</ele>
        <time>2026-07-15T12:48:31.120Z</time>
      </trkpt>
      <trkpt lat="49.3891" lon="1.42304">
        <ele>122</ele>
        <time>2026-07-15T12:48:35.361Z</time>
      </trkpt>
      <trkpt lat="49.38906" lon="1.42302">
        <ele>122</ele>
        <time>2026-07-15T12:48:39.366Z</time>
      </trkpt>
      <trkpt lat="49.38901" lon="1.42301">
        <ele>119</ele>
        <time>2026-07-15T12:48:43.440Z</time>
      </trkpt>
      <trkpt lat="49.38898" lon="1.42299">
        <ele>119</ele>
        <time>2026-07-15T12:48:47.524Z</time>
      </trkpt>
      <trkpt lat="49.38894" lon="1.42296">
        <ele>119</ele>
        <time>2026-07-15T12:48:51.800Z</time>
      </trkpt>
      <trkpt lat="49.3889" lon="1.42295">
        <ele>119</ele>
        <time>2026-07-15T12:48:55.984Z</time>
      </trkpt>
      <trkpt lat="49.38886" lon="1.42294">
        <ele>119</ele>
        <time>2026-07-15T12:49:00.344Z</time>
      </trkpt>
      <trkpt lat="49.38882" lon="1.42294">
        <ele>119</ele>
        <time>2026-07-15T12:49:04.700Z</time>
      </trkpt>
      <trkpt lat="49.38878" lon="1.42294">
        <ele>119</ele>
        <time>2026-07-15T12:49:08.985Z</time>
      </trkpt>
      <trkpt lat="49.38872" lon="1.42285">
        <ele>118</ele>
        <time>2026-07-15T12:49:17.984Z</time>
      </trkpt>
      <trkpt lat="49.38872" lon="1.42285">
        <ele>118</ele>
        <time>2026-07-15T12:49:22.482Z</time>
      </trkpt>
      <trkpt lat="49.38872" lon="1.42284">
        <ele>118</ele>
        <time>2026-07-15T12:49:26.987Z</time>
      </trkpt>
      <trkpt lat="49.38872" lon="1.42283">
        <ele>118</ele>
        <time>2026-07-15T12:49:31.865Z</time>
      </trkpt>
      <trkpt lat="49.38876" lon="1.42273">
        <ele>119</ele>
        <time>2026-07-15T12:49:35.983Z</time>
      </trkpt>
      <trkpt lat="49.38878" lon="1.42267">
        <ele>119</ele>
        <time>2026-07-15T12:49:40.120Z</time>
      </trkpt>
      <trkpt lat="49.3888" lon="1.42259">
        <ele>118</ele>
        <time>2026-07-15T12:49:44.185Z</time>
      </trkpt>
      <trkpt lat="49.38882" lon="1.42252">
        <ele>118</ele>
        <time>2026-07-15T12:49:48.760Z</time>
      </trkpt>
      <trkpt lat="49.38885" lon="1.42245">
        <ele>118</ele>
        <time>2026-07-15T12:49:52.981Z</time>
      </trkpt>
      <trkpt lat="49.38888" lon="1.42238">
        <ele>118</ele>
        <time>2026-07-15T12:49:57.322Z</time>
      </trkpt>
      <trkpt lat="49.3889" lon="1.42232">
        <ele>117</ele>
        <time>2026-07-15T12:50:01.423Z</time>
      </trkpt>
      <trkpt lat="49.38893" lon="1.42226">
        <ele>117</ele>
        <time>2026-07-15T12:50:05.984Z</time>
      </trkpt>
      <trkpt lat="49.38896" lon="1.42219">
        <ele>117</ele>
        <time>2026-07-15T12:50:10.521Z</time>
      </trkpt>
      <trkpt lat="49.38899" lon="1.42213">
        <ele>117</ele>
        <time>2026-07-15T12:50:14.982Z</time>
      </trkpt>
      <trkpt lat="49.38902" lon="1.42206">
        <ele>117</ele>
        <time>2026-07-15T12:50:19.645Z</time>
      </trkpt>
      <trkpt lat="49.38904" lon="1.422">
        <ele>118</ele>
        <time>2026-07-15T12:50:24.185Z</time>
      </trkpt>
      <trkpt lat="49.38907" lon="1.42192">
        <ele>118</ele>
        <time>2026-07-15T12:50:28.681Z</time>
      </trkpt>
      <trkpt lat="49.38908" lon="1.42184">
        <ele>118</ele>
        <time>2026-07-15T12:50:33.124Z</time>
      </trkpt>
      <trkpt lat="49.3891" lon="1.42176">
        <ele>118</ele>
        <time>2026-07-15T12:50:37.603Z</time>
      </trkpt>
      <trkpt lat="49.38912" lon="1.42168">
        <ele>118</ele>
        <time>2026-07-15T12:50:42.054Z</time>
      </trkpt>
      <trkpt lat="49.38913" lon="1.42161">
        <ele>118</ele>
        <time>2026-07-15T12:50:46.121Z</time>
      </trkpt>
      <trkpt lat="49.38915" lon="1.42152">
        <ele>118</ele>
        <time>2026-07-15T12:50:50.547Z</time>
      </trkpt>
      <trkpt lat="49.38916" lon="1.42142">
        <ele>118</ele>
        <time>2026-07-15T12:50:54.984Z</time>
      </trkpt>
      <trkpt lat="49.38917" lon="1.42133">
        <ele>118</ele>
        <time>2026-07-15T12:50:59.460Z</time>
      </trkpt>
      <trkpt lat="49.38918" lon="1.42125">
        <ele>118</ele>
        <time>2026-07-15T12:51:03.464Z</time>
      </trkpt>
      <trkpt lat="49.38919" lon="1.42118">
        <ele>117</ele>
        <time>2026-07-15T12:51:07.925Z</time>
      </trkpt>
      <trkpt lat="49.38921" lon="1.42111">
        <ele>117</ele>
        <time>2026-07-15T12:51:12.403Z</time>
      </trkpt>
      <trkpt lat="49.38922" lon="1.42101">
        <ele>117</ele>
        <time>2026-07-15T12:51:16.882Z</time>
      </trkpt>
      <trkpt lat="49.38923" lon="1.42092">
        <ele>115</ele>
        <time>2026-07-15T12:51:21.325Z</time>
      </trkpt>
      <trkpt lat="49.38923" lon="1.42083">
        <ele>115</ele>
        <time>2026-07-15T12:51:25.821Z</time>
      </trkpt>
      <trkpt lat="49.38924" lon="1.42073">
        <ele>115</ele>
        <time>2026-07-15T12:51:30.265Z</time>
      </trkpt>
      <trkpt lat="49.38925" lon="1.42065">
        <ele>114</ele>
        <time>2026-07-15T12:51:34.822Z</time>
      </trkpt>
      <trkpt lat="49.38926" lon="1.42056">
        <ele>114</ele>
        <time>2026-07-15T12:51:39.380Z</time>
      </trkpt>
      <trkpt lat="49.38926" lon="1.42047">
        <ele>114</ele>
        <time>2026-07-15T12:51:43.920Z</time>
      </trkpt>
      <trkpt lat="49.38926" lon="1.42039">
        <ele>114</ele>
        <time>2026-07-15T12:51:48.425Z</time>
      </trkpt>
      <trkpt lat="49.38927" lon="1.42031">
        <ele>114</ele>
        <time>2026-07-15T12:51:52.982Z</time>
      </trkpt>
      <trkpt lat="49.38927" lon="1.42021">
        <ele>114</ele>
        <time>2026-07-15T12:51:57.504Z</time>
      </trkpt>
      <trkpt lat="49.38927" lon="1.42013">
        <ele>115</ele>
        <time>2026-07-15T12:52:01.983Z</time>
      </trkpt>
      <trkpt lat="49.38928" lon="1.42005">
        <ele>115</ele>
        <time>2026-07-15T12:52:06.540Z</time>
      </trkpt>
      <trkpt lat="49.38928" lon="1.41997">
        <ele>115</ele>
        <time>2026-07-15T12:52:10.984Z</time>
      </trkpt>
      <trkpt lat="49.38929" lon="1.41989">
        <ele>115</ele>
        <time>2026-07-15T12:52:15.041Z</time>
      </trkpt>
      <trkpt lat="49.38929" lon="1.41981">
        <ele>116</ele>
        <time>2026-07-15T12:52:19.598Z</time>
      </trkpt>
      <trkpt lat="49.38929" lon="1.41973">
        <ele>116</ele>
        <time>2026-07-15T12:52:23.664Z</time>
      </trkpt>
      <trkpt lat="49.3893" lon="1.41964">
        <ele>116</ele>
        <time>2026-07-15T12:52:28.204Z</time>
      </trkpt>
      <trkpt lat="49.3893" lon="1.41956">
        <ele>116</ele>
        <time>2026-07-15T12:52:32.726Z</time>
      </trkpt>
      <trkpt lat="49.3893" lon="1.41948">
        <ele>116</ele>
        <time>2026-07-15T12:52:37.284Z</time>
      </trkpt>
      <trkpt lat="49.38931" lon="1.41938">
        <ele>117</ele>
        <time>2026-07-15T12:52:41.780Z</time>
      </trkpt>
      <trkpt lat="49.38931" lon="1.41931">
        <ele>115</ele>
        <time>2026-07-15T12:52:45.846Z</time>
      </trkpt>
      <trkpt lat="49.38932" lon="1.41923">
        <ele>115</ele>
        <time>2026-07-15T12:52:49.903Z</time>
      </trkpt>
      <trkpt lat="49.38933" lon="1.41916">
        <ele>115</ele>
        <time>2026-07-15T12:52:54.460Z</time>
      </trkpt>
      <trkpt lat="49.38933" lon="1.41907">
        <ele>115</ele>
        <time>2026-07-15T12:52:58.986Z</time>
      </trkpt>
      <trkpt lat="49.38934" lon="1.419">
        <ele>113</ele>
        <time>2026-07-15T12:53:02.987Z</time>
      </trkpt>
      <trkpt lat="49.38934" lon="1.41892">
        <ele>113</ele>
        <time>2026-07-15T12:53:07.473Z</time>
      </trkpt>
      <trkpt lat="49.38934" lon="1.41884">
        <ele>113</ele>
        <time>2026-07-15T12:53:11.584Z</time>
      </trkpt>
      <trkpt lat="49.38934" lon="1.41876">
        <ele>113</ele>
        <time>2026-07-15T12:53:15.623Z</time>
      </trkpt>
      <trkpt lat="49.38934" lon="1.41868">
        <ele>112</ele>
        <time>2026-07-15T12:53:19.680Z</time>
      </trkpt>
      <trkpt lat="49.38935" lon="1.4186">
        <ele>112</ele>
        <time>2026-07-15T12:53:24.220Z</time>
      </trkpt>
      <trkpt lat="49.38935" lon="1.41852">
        <ele>112</ele>
        <time>2026-07-15T12:53:28.286Z</time>
      </trkpt>
      <trkpt lat="49.38935" lon="1.41845">
        <ele>112</ele>
        <time>2026-07-15T12:53:32.325Z</time>
      </trkpt>
      <trkpt lat="49.38936" lon="1.41837">
        <ele>112</ele>
        <time>2026-07-15T12:53:36.900Z</time>
      </trkpt>
      <trkpt lat="49.38936" lon="1.4183">
        <ele>112</ele>
        <time>2026-07-15T12:53:40.922Z</time>
      </trkpt>
      <trkpt lat="49.38936" lon="1.41822">
        <ele>112</ele>
        <time>2026-07-15T12:53:44.979Z</time>
      </trkpt>
      <trkpt lat="49.38937" lon="1.41815">
        <ele>108</ele>
        <time>2026-07-15T12:53:49.045Z</time>
      </trkpt>
      <trkpt lat="49.38936" lon="1.41807">
        <ele>108</ele>
        <time>2026-07-15T12:53:53.664Z</time>
      </trkpt>
      <trkpt lat="49.38938" lon="1.41799">
        <ele>108</ele>
        <time>2026-07-15T12:53:58.204Z</time>
      </trkpt>
      <trkpt lat="49.38939" lon="1.41792">
        <ele>108</ele>
        <time>2026-07-15T12:54:02.243Z</time>
      </trkpt>
      <trkpt lat="49.3894" lon="1.41785">
        <ele>102</ele>
        <time>2026-07-15T12:54:06.283Z</time>
      </trkpt>
      <trkpt lat="49.3894" lon="1.41778">
        <ele>102</ele>
        <time>2026-07-15T12:54:10.322Z</time>
      </trkpt>
      <trkpt lat="49.38941" lon="1.4177">
        <ele>102</ele>
        <time>2026-07-15T12:54:14.423Z</time>
      </trkpt>
      <trkpt lat="49.38942" lon="1.41763">
        <ele>99</ele>
        <time>2026-07-15T12:54:18.585Z</time>
      </trkpt>
      <trkpt lat="49.38943" lon="1.41755">
        <ele>99</ele>
        <time>2026-07-15T12:54:22.642Z</time>
      </trkpt>
      <trkpt lat="49.38944" lon="1.41747">
        <ele>99</ele>
        <time>2026-07-15T12:54:26.743Z</time>
      </trkpt>
      <trkpt lat="49.38945" lon="1.4174">
        <ele>99</ele>
        <time>2026-07-15T12:54:30.783Z</time>
      </trkpt>
      <trkpt lat="49.38946" lon="1.41732">
        <ele>97</ele>
        <time>2026-07-15T12:54:35.323Z</time>
      </trkpt>
      <trkpt lat="49.38948" lon="1.41724">
        <ele>97</ele>
        <time>2026-07-15T12:54:39.863Z</time>
      </trkpt>
      <trkpt lat="49.3895" lon="1.41717">
        <ele>97</ele>
        <time>2026-07-15T12:54:43.964Z</time>
      </trkpt>
      <trkpt lat="49.38952" lon="1.41709">
        <ele>97</ele>
        <time>2026-07-15T12:54:48.539Z</time>
      </trkpt>
      <trkpt lat="49.38954" lon="1.41702">
        <ele>99</ele>
        <time>2026-07-15T12:54:52.543Z</time>
      </trkpt>
      <trkpt lat="49.38956" lon="1.41695">
        <ele>99</ele>
        <time>2026-07-15T12:54:56.565Z</time>
      </trkpt>
      <trkpt lat="49.38958" lon="1.41687">
        <ele>99</ele>
        <time>2026-07-15T12:55:00.981Z</time>
      </trkpt>
      <trkpt lat="49.3896" lon="1.41681">
        <ele>94</ele>
        <time>2026-07-15T12:55:04.985Z</time>
      </trkpt>
      <trkpt lat="49.38963" lon="1.41674">
        <ele>95</ele>
        <time>2026-07-15T12:55:09.166Z</time>
      </trkpt>
      <trkpt lat="49.38965" lon="1.41667">
        <ele>95</ele>
        <time>2026-07-15T12:55:13.706Z</time>
      </trkpt>
      <trkpt lat="49.38968" lon="1.41661">
        <ele>95</ele>
        <time>2026-07-15T12:55:18.281Z</time>
      </trkpt>
      <trkpt lat="49.38972" lon="1.41654">
        <ele>95</ele>
        <time>2026-07-15T12:55:22.663Z</time>
      </trkpt>
      <trkpt lat="49.38974" lon="1.41647">
        <ele>97</ele>
        <time>2026-07-15T12:55:27.186Z</time>
      </trkpt>
      <trkpt lat="49.38977" lon="1.4164">
        <ele>97</ele>
        <time>2026-07-15T12:55:31.620Z</time>
      </trkpt>
      <trkpt lat="49.38979" lon="1.41632">
        <ele>97</ele>
        <time>2026-07-15T12:55:36.160Z</time>
      </trkpt>
      <trkpt lat="49.38982" lon="1.41625">
        <ele>97</ele>
        <time>2026-07-15T12:55:40.621Z</time>
      </trkpt>
      <trkpt lat="49.38985" lon="1.41618">
        <ele>99</ele>
        <time>2026-07-15T12:55:45.161Z</time>
      </trkpt>
      <trkpt lat="49.38989" lon="1.41611">
        <ele>96</ele>
        <time>2026-07-15T12:55:49.640Z</time>
      </trkpt>
      <trkpt lat="49.38992" lon="1.41604">
        <ele>96</ele>
        <time>2026-07-15T12:55:54.119Z</time>
      </trkpt>
      <trkpt lat="49.38995" lon="1.41598">
        <ele>96</ele>
        <time>2026-07-15T12:55:58.623Z</time>
      </trkpt>
      <trkpt lat="49.38998" lon="1.41592">
        <ele>96</ele>
        <time>2026-07-15T12:56:02.983Z</time>
      </trkpt>
      <trkpt lat="49.39001" lon="1.41586">
        <ele>96</ele>
        <time>2026-07-15T12:56:06.983Z</time>
      </trkpt>
      <trkpt lat="49.39004" lon="1.41579">
        <ele>96</ele>
        <time>2026-07-15T12:56:11.524Z</time>
      </trkpt>
      <trkpt lat="49.39007" lon="1.41573">
        <ele>96</ele>
        <time>2026-07-15T12:56:15.959Z</time>
      </trkpt>
      <trkpt lat="49.3901" lon="1.41567">
        <ele>97</ele>
        <time>2026-07-15T12:56:19.963Z</time>
      </trkpt>
      <trkpt lat="49.39013" lon="1.4156">
        <ele>97</ele>
        <time>2026-07-15T12:56:24.565Z</time>
      </trkpt>
      <trkpt lat="49.39016" lon="1.41553">
        <ele>93</ele>
        <time>2026-07-15T12:56:28.886Z</time>
      </trkpt>
      <trkpt lat="49.39019" lon="1.41547">
        <ele>93</ele>
        <time>2026-07-15T12:56:32.926Z</time>
      </trkpt>
      <trkpt lat="49.39022" lon="1.41541">
        <ele>94</ele>
        <time>2026-07-15T12:56:36.939Z</time>
      </trkpt>
      <trkpt lat="49.39024" lon="1.41535">
        <ele>94</ele>
        <time>2026-07-15T12:56:40.985Z</time>
      </trkpt>
      <trkpt lat="49.39027" lon="1.41528">
        <ele>94</ele>
        <time>2026-07-15T12:56:45.580Z</time>
      </trkpt>
      <trkpt lat="49.39031" lon="1.41522">
        <ele>94</ele>
        <time>2026-07-15T12:56:50.103Z</time>
      </trkpt>
      <trkpt lat="49.39034" lon="1.41517">
        <ele>94</ele>
        <time>2026-07-15T12:56:54.160Z</time>
      </trkpt>
      <trkpt lat="49.39036" lon="1.41511">
        <ele>96</ele>
        <time>2026-07-15T12:56:58.182Z</time>
      </trkpt>
      <trkpt lat="49.39039" lon="1.41504">
        <ele>96</ele>
        <time>2026-07-15T12:57:02.722Z</time>
      </trkpt>
      <trkpt lat="49.39042" lon="1.41499">
        <ele>96</ele>
        <time>2026-07-15T12:57:06.806Z</time>
      </trkpt>
      <trkpt lat="49.39044" lon="1.41492">
        <ele>94</ele>
        <time>2026-07-15T12:57:11.206Z</time>
      </trkpt>
      <trkpt lat="49.39048" lon="1.41486">
        <ele>94</ele>
        <time>2026-07-15T12:57:15.746Z</time>
      </trkpt>
      <trkpt lat="49.39051" lon="1.41479">
        <ele>94</ele>
        <time>2026-07-15T12:57:20.303Z</time>
      </trkpt>
      <trkpt lat="49.39054" lon="1.41473">
        <ele>94</ele>
        <time>2026-07-15T12:57:24.764Z</time>
      </trkpt>
      <trkpt lat="49.39056" lon="1.41467">
        <ele>94</ele>
        <time>2026-07-15T12:57:28.786Z</time>
      </trkpt>
      <trkpt lat="49.39059" lon="1.41461">
        <ele>94</ele>
        <time>2026-07-15T12:57:32.905Z</time>
      </trkpt>
      <trkpt lat="49.39062" lon="1.41456">
        <ele>95</ele>
        <time>2026-07-15T12:57:37.366Z</time>
      </trkpt>
      <trkpt lat="49.39066" lon="1.4145">
        <ele>95</ele>
        <time>2026-07-15T12:57:41.959Z</time>
      </trkpt>
      <trkpt lat="49.39069" lon="1.41443">
        <ele>95</ele>
        <time>2026-07-15T12:57:46.481Z</time>
      </trkpt>
      <trkpt lat="49.39073" lon="1.41436">
        <ele>93</ele>
        <time>2026-07-15T12:57:50.942Z</time>
      </trkpt>
      <trkpt lat="49.39076" lon="1.4143">
        <ele>93</ele>
        <time>2026-07-15T12:57:54.983Z</time>
      </trkpt>
      <trkpt lat="49.39079" lon="1.41423">
        <ele>93</ele>
        <time>2026-07-15T12:57:59.982Z</time>
      </trkpt>
      <trkpt lat="49.39082" lon="1.41417">
        <ele>93</ele>
        <time>2026-07-15T12:58:04.141Z</time>
      </trkpt>
      <trkpt lat="49.39085" lon="1.4141">
        <ele>93</ele>
        <time>2026-07-15T12:58:08.584Z</time>
      </trkpt>
      <trkpt lat="49.39088" lon="1.41404">
        <ele>93</ele>
        <time>2026-07-15T12:58:12.984Z</time>
      </trkpt>
      <trkpt lat="49.39091" lon="1.41397">
        <ele>93</ele>
        <time>2026-07-15T12:58:17.620Z</time>
      </trkpt>
      <trkpt lat="49.39093" lon="1.41392">
        <ele>93</ele>
        <time>2026-07-15T12:58:21.642Z</time>
      </trkpt>
      <trkpt lat="49.39096" lon="1.41385">
        <ele>93</ele>
        <time>2026-07-15T12:58:26.121Z</time>
      </trkpt>
      <trkpt lat="49.391" lon="1.41379">
        <ele>91</ele>
        <time>2026-07-15T12:58:30.599Z</time>
      </trkpt>
      <trkpt lat="49.39103" lon="1.41372">
        <ele>91</ele>
        <time>2026-07-15T12:58:34.983Z</time>
      </trkpt>
      <trkpt lat="49.39107" lon="1.41366">
        <ele>91</ele>
        <time>2026-07-15T12:58:39.521Z</time>
      </trkpt>
      <trkpt lat="49.39111" lon="1.4136">
        <ele>91</ele>
        <time>2026-07-15T12:58:43.983Z</time>
      </trkpt>
      <trkpt lat="49.39114" lon="1.41354">
        <ele>91</ele>
        <time>2026-07-15T12:58:47.983Z</time>
      </trkpt>
      <trkpt lat="49.39117" lon="1.41347">
        <ele>91</ele>
        <time>2026-07-15T12:58:52.562Z</time>
      </trkpt>
      <trkpt lat="49.39121" lon="1.41341">
        <ele>91</ele>
        <time>2026-07-15T12:58:57.102Z</time>
      </trkpt>
      <trkpt lat="49.39124" lon="1.41335">
        <ele>91</ele>
        <time>2026-07-15T12:59:01.159Z</time>
      </trkpt>
      <trkpt lat="49.39127" lon="1.41328">
        <ele>89</ele>
        <time>2026-07-15T12:59:05.699Z</time>
      </trkpt>
      <trkpt lat="49.39129" lon="1.41321">
        <ele>89</ele>
        <time>2026-07-15T12:59:09.703Z</time>
      </trkpt>
      <trkpt lat="49.39131" lon="1.41314">
        <ele>88</ele>
        <time>2026-07-15T12:59:13.725Z</time>
      </trkpt>
      <trkpt lat="49.39133" lon="1.41306">
        <ele>88</ele>
        <time>2026-07-15T12:59:18.265Z</time>
      </trkpt>
      <trkpt lat="49.39135" lon="1.413">
        <ele>88</ele>
        <time>2026-07-15T12:59:22.287Z</time>
      </trkpt>
      <trkpt lat="49.39137" lon="1.41292">
        <ele>88</ele>
        <time>2026-07-15T12:59:26.879Z</time>
      </trkpt>
      <trkpt lat="49.3914" lon="1.41285">
        <ele>88</ele>
        <time>2026-07-15T12:59:31.340Z</time>
      </trkpt>
      <trkpt lat="49.39141" lon="1.41278">
        <ele>88</ele>
        <time>2026-07-15T12:59:35.380Z</time>
      </trkpt>
      <trkpt lat="49.39143" lon="1.4127">
        <ele>88</ele>
        <time>2026-07-15T12:59:39.964Z</time>
      </trkpt>
      <trkpt lat="49.39144" lon="1.41262">
        <ele>88</ele>
        <time>2026-07-15T12:59:44.486Z</time>
      </trkpt>
      <trkpt lat="49.39146" lon="1.41253">
        <ele>88</ele>
        <time>2026-07-15T12:59:48.982Z</time>
      </trkpt>
      <trkpt lat="49.39146" lon="1.41245">
        <ele>88</ele>
        <time>2026-07-15T12:59:53.566Z</time>
      </trkpt>
      <trkpt lat="49.39145" lon="1.41237">
        <ele>88</ele>
        <time>2026-07-15T12:59:57.982Z</time>
      </trkpt>
      <trkpt lat="49.39145" lon="1.41229">
        <ele>88</ele>
        <time>2026-07-15T13:00:02.646Z</time>
      </trkpt>
      <trkpt lat="49.39145" lon="1.41221">
        <ele>88</ele>
        <time>2026-07-15T13:00:07.160Z</time>
      </trkpt>
      <trkpt lat="49.39145" lon="1.41212">
        <ele>88</ele>
        <time>2026-07-15T13:00:11.744Z</time>
      </trkpt>
      <trkpt lat="49.39144" lon="1.41204">
        <ele>88</ele>
        <time>2026-07-15T13:00:16.319Z</time>
      </trkpt>
      <trkpt lat="49.39143" lon="1.41196">
        <ele>88</ele>
        <time>2026-07-15T13:00:20.841Z</time>
      </trkpt>
      <trkpt lat="49.39143" lon="1.41189">
        <ele>88</ele>
        <time>2026-07-15T13:00:24.881Z</time>
      </trkpt>
      <trkpt lat="49.39141" lon="1.41182">
        <ele>88</ele>
        <time>2026-07-15T13:00:28.964Z</time>
      </trkpt>
      <trkpt lat="49.39139" lon="1.41175">
        <ele>87</ele>
        <time>2026-07-15T13:00:33.504Z</time>
      </trkpt>
      <trkpt lat="49.39138" lon="1.41168">
        <ele>87</ele>
        <time>2026-07-15T13:00:37.561Z</time>
      </trkpt>
      <trkpt lat="49.39136" lon="1.41161">
        <ele>87</ele>
        <time>2026-07-15T13:00:41.982Z</time>
      </trkpt>
      <trkpt lat="49.39135" lon="1.41155">
        <ele>87</ele>
        <time>2026-07-15T13:00:45.979Z</time>
      </trkpt>
      <trkpt lat="49.39135" lon="1.41147">
        <ele>87</ele>
        <time>2026-07-15T13:00:50.540Z</time>
      </trkpt>
      <trkpt lat="49.39135" lon="1.41139">
        <ele>87</ele>
        <time>2026-07-15T13:00:54.544Z</time>
      </trkpt>
      <trkpt lat="49.39134" lon="1.41131">
        <ele>87</ele>
        <time>2026-07-15T13:00:58.982Z</time>
      </trkpt>
      <trkpt lat="49.39133" lon="1.41123">
        <ele>86</ele>
        <time>2026-07-15T13:01:03.545Z</time>
      </trkpt>
      <trkpt lat="49.39131" lon="1.41115">
        <ele>86</ele>
        <time>2026-07-15T13:01:07.981Z</time>
      </trkpt>
      <trkpt lat="49.39129" lon="1.41108">
        <ele>86</ele>
        <time>2026-07-15T13:01:12.099Z</time>
      </trkpt>
      <trkpt lat="49.39128" lon="1.41101">
        <ele>86</ele>
        <time>2026-07-15T13:01:16.200Z</time>
      </trkpt>
      <trkpt lat="49.39127" lon="1.41094">
        <ele>86</ele>
        <time>2026-07-15T13:01:20.239Z</time>
      </trkpt>
      <trkpt lat="49.39126" lon="1.41085">
        <ele>86</ele>
        <time>2026-07-15T13:01:24.805Z</time>
      </trkpt>
      <trkpt lat="49.39125" lon="1.41079">
        <ele>86</ele>
        <time>2026-07-15T13:01:28.906Z</time>
      </trkpt>
      <trkpt lat="49.39125" lon="1.41072">
        <ele>88</ele>
        <time>2026-07-15T13:01:32.946Z</time>
      </trkpt>
      <trkpt lat="49.39124" lon="1.41065">
        <ele>87</ele>
        <time>2026-07-15T13:01:36.959Z</time>
      </trkpt>
      <trkpt lat="49.39125" lon="1.41058">
        <ele>85</ele>
        <time>2026-07-15T13:01:40.985Z</time>
      </trkpt>
      <trkpt lat="49.39126" lon="1.4105">
        <ele>85</ele>
        <time>2026-07-15T13:01:45.407Z</time>
      </trkpt>
      <trkpt lat="49.39127" lon="1.41043">
        <ele>85</ele>
        <time>2026-07-15T13:01:49.446Z</time>
      </trkpt>
      <trkpt lat="49.39128" lon="1.41035">
        <ele>84</ele>
        <time>2026-07-15T13:01:53.984Z</time>
      </trkpt>
      <trkpt lat="49.39129" lon="1.41027">
        <ele>84</ele>
        <time>2026-07-15T13:01:58.623Z</time>
      </trkpt>
      <trkpt lat="49.39131" lon="1.4102">
        <ele>84</ele>
        <time>2026-07-15T13:02:02.662Z</time>
      </trkpt>
      <trkpt lat="49.39132" lon="1.41014">
        <ele>83</ele>
        <time>2026-07-15T13:02:06.684Z</time>
      </trkpt>
      <trkpt lat="49.39134" lon="1.41007">
        <ele>83</ele>
        <time>2026-07-15T13:02:10.706Z</time>
      </trkpt>
      <trkpt lat="49.39136" lon="1.41">
        <ele>83</ele>
        <time>2026-07-15T13:02:14.780Z</time>
      </trkpt>
      <trkpt lat="49.39138" lon="1.40992">
        <ele>83</ele>
        <time>2026-07-15T13:02:19.382Z</time>
      </trkpt>
      <trkpt lat="49.39139" lon="1.40986">
        <ele>82</ele>
        <time>2026-07-15T13:02:23.500Z</time>
      </trkpt>
      <trkpt lat="49.39141" lon="1.40979">
        <ele>82</ele>
        <time>2026-07-15T13:02:27.522Z</time>
      </trkpt>
      <trkpt lat="49.39142" lon="1.40972">
        <ele>82</ele>
        <time>2026-07-15T13:02:31.544Z</time>
      </trkpt>
      <trkpt lat="49.39143" lon="1.40964">
        <ele>82</ele>
        <time>2026-07-15T13:02:35.980Z</time>
      </trkpt>
      <trkpt lat="49.39145" lon="1.40956">
        <ele>81</ele>
        <time>2026-07-15T13:02:40.562Z</time>
      </trkpt>
      <trkpt lat="49.39146" lon="1.40948">
        <ele>81</ele>
        <time>2026-07-15T13:02:44.602Z</time>
      </trkpt>
      <trkpt lat="49.39148" lon="1.40939">
        <ele>81</ele>
        <time>2026-07-15T13:02:48.982Z</time>
      </trkpt>
      <trkpt lat="49.3915" lon="1.40932">
        <ele>81</ele>
        <time>2026-07-15T13:02:52.983Z</time>
      </trkpt>
      <trkpt lat="49.39152" lon="1.40924">
        <ele>82</ele>
        <time>2026-07-15T13:02:57.581Z</time>
      </trkpt>
      <trkpt lat="49.39154" lon="1.40917">
        <ele>81</ele>
        <time>2026-07-15T13:03:02.103Z</time>
      </trkpt>
      <trkpt lat="49.39156" lon="1.40909">
        <ele>81</ele>
        <time>2026-07-15T13:03:06.599Z</time>
      </trkpt>
      <trkpt lat="49.39158" lon="1.40902">
        <ele>81</ele>
        <time>2026-07-15T13:03:10.604Z</time>
      </trkpt>
      <trkpt lat="49.39161" lon="1.40894">
        <ele>81</ele>
        <time>2026-07-15T13:03:15.179Z</time>
      </trkpt>
      <trkpt lat="49.39162" lon="1.40887">
        <ele>81</ele>
        <time>2026-07-15T13:03:19.200Z</time>
      </trkpt>
      <trkpt lat="49.39164" lon="1.4088">
        <ele>81</ele>
        <time>2026-07-15T13:03:23.222Z</time>
      </trkpt>
      <trkpt lat="49.39166" lon="1.40872">
        <ele>80</ele>
        <time>2026-07-15T13:03:27.762Z</time>
      </trkpt>
      <trkpt lat="49.39168" lon="1.40863">
        <ele>80</ele>
        <time>2026-07-15T13:03:32.285Z</time>
      </trkpt>
      <trkpt lat="49.3917" lon="1.40854">
        <ele>80</ele>
        <time>2026-07-15T13:03:36.921Z</time>
      </trkpt>
      <trkpt lat="49.39172" lon="1.40846">
        <ele>80</ele>
        <time>2026-07-15T13:03:41.364Z</time>
      </trkpt>
      <trkpt lat="49.39174" lon="1.40837">
        <ele>80</ele>
        <time>2026-07-15T13:03:45.922Z</time>
      </trkpt>
      <trkpt lat="49.39175" lon="1.40828">
        <ele>80</ele>
        <time>2026-07-15T13:03:50.444Z</time>
      </trkpt>
      <trkpt lat="49.39176" lon="1.40821">
        <ele>80</ele>
        <time>2026-07-15T13:03:54.440Z</time>
      </trkpt>
      <trkpt lat="49.39178" lon="1.40813">
        <ele>81</ele>
        <time>2026-07-15T13:03:58.981Z</time>
      </trkpt>
      <trkpt lat="49.39179" lon="1.40805">
        <ele>81</ele>
        <time>2026-07-15T13:04:03.520Z</time>
      </trkpt>
      <trkpt lat="49.39181" lon="1.40797">
        <ele>81</ele>
        <time>2026-07-15T13:04:07.541Z</time>
      </trkpt>
      <trkpt lat="49.39182" lon="1.40788">
        <ele>79</ele>
        <time>2026-07-15T13:04:11.979Z</time>
      </trkpt>
      <trkpt lat="49.39183" lon="1.40779">
        <ele>79</ele>
        <time>2026-07-15T13:04:16.621Z</time>
      </trkpt>
      <trkpt lat="49.39184" lon="1.40771">
        <ele>79</ele>
        <time>2026-07-15T13:04:20.705Z</time>
      </trkpt>
      <trkpt lat="49.39184" lon="1.40763">
        <ele>79</ele>
        <time>2026-07-15T13:04:24.980Z</time>
      </trkpt>
      <trkpt lat="49.39185" lon="1.40755">
        <ele>79</ele>
        <time>2026-07-15T13:04:29.205Z</time>
      </trkpt>
      <trkpt lat="49.39186" lon="1.40746">
        <ele>79</ele>
        <time>2026-07-15T13:04:33.842Z</time>
      </trkpt>
      <trkpt lat="49.39186" lon="1.40737">
        <ele>79</ele>
        <time>2026-07-15T13:04:38.259Z</time>
      </trkpt>
      <trkpt lat="49.39186" lon="1.4073">
        <ele>79</ele>
        <time>2026-07-15T13:04:42.280Z</time>
      </trkpt>
      <trkpt lat="49.39187" lon="1.40723">
        <ele>79</ele>
        <time>2026-07-15T13:04:46.285Z</time>
      </trkpt>
      <trkpt lat="49.39187" lon="1.40714">
        <ele>79</ele>
        <time>2026-07-15T13:04:50.842Z</time>
      </trkpt>
      <trkpt lat="49.39187" lon="1.40706">
        <ele>77</ele>
        <time>2026-07-15T13:04:54.984Z</time>
      </trkpt>
      <trkpt lat="49.39186" lon="1.40699">
        <ele>77</ele>
        <time>2026-07-15T13:04:59.105Z</time>
      </trkpt>
      <trkpt lat="49.39188" lon="1.40694">
        <ele>77</ele>
        <time>2026-07-15T13:05:03.478Z</time>
      </trkpt>
      <trkpt lat="49.39189" lon="1.40685">
        <ele>77</ele>
        <time>2026-07-15T13:05:07.842Z</time>
      </trkpt>
      <trkpt lat="49.3919" lon="1.40676">
        <ele>76</ele>
        <time>2026-07-15T13:05:12.321Z</time>
      </trkpt>
      <trkpt lat="49.3919" lon="1.40667">
        <ele>76</ele>
        <time>2026-07-15T13:05:16.799Z</time>
      </trkpt>
      <trkpt lat="49.39189" lon="1.40661">
        <ele>76</ele>
        <time>2026-07-15T13:05:20.804Z</time>
      </trkpt>
      <trkpt lat="49.39189" lon="1.40653">
        <ele>76</ele>
        <time>2026-07-15T13:05:25.361Z</time>
      </trkpt>
      <trkpt lat="49.39189" lon="1.40645">
        <ele>74</ele>
        <time>2026-07-15T13:05:29.883Z</time>
      </trkpt>
      <trkpt lat="49.39188" lon="1.40636">
        <ele>74</ele>
        <time>2026-07-15T13:05:34.362Z</time>
      </trkpt>
      <trkpt lat="49.39189" lon="1.40628">
        <ele>74</ele>
        <time>2026-07-15T13:05:38.384Z</time>
      </trkpt>
      <trkpt lat="49.39189" lon="1.4062">
        <ele>74</ele>
        <time>2026-07-15T13:05:42.440Z</time>
      </trkpt>
      <trkpt lat="49.39189" lon="1.40613">
        <ele>74</ele>
        <time>2026-07-15T13:05:46.480Z</time>
      </trkpt>
      <trkpt lat="49.39189" lon="1.40605">
        <ele>74</ele>
        <time>2026-07-15T13:05:50.484Z</time>
      </trkpt>
      <trkpt lat="49.39188" lon="1.40597">
        <ele>74</ele>
        <time>2026-07-15T13:05:54.979Z</time>
      </trkpt>
      <trkpt lat="49.39188" lon="1.40589">
        <ele>74</ele>
        <time>2026-07-15T13:05:58.982Z</time>
      </trkpt>
      <trkpt lat="49.39188" lon="1.40581">
        <ele>74</ele>
        <time>2026-07-15T13:06:02.983Z</time>
      </trkpt>
      <trkpt lat="49.39188" lon="1.40572">
        <ele>74</ele>
        <time>2026-07-15T13:06:07.581Z</time>
      </trkpt>
      <trkpt lat="49.39188" lon="1.40564">
        <ele>74</ele>
        <time>2026-07-15T13:06:12.121Z</time>
      </trkpt>
      <trkpt lat="49.39188" lon="1.40556">
        <ele>74</ele>
        <time>2026-07-15T13:06:16.125Z</time>
      </trkpt>
      <trkpt lat="49.39189" lon="1.40548">
        <ele>74</ele>
        <time>2026-07-15T13:06:20.182Z</time>
      </trkpt>
      <trkpt lat="49.39188" lon="1.40541">
        <ele>73</ele>
        <time>2026-07-15T13:06:24.204Z</time>
      </trkpt>
      <trkpt lat="49.39188" lon="1.40532">
        <ele>73</ele>
        <time>2026-07-15T13:06:28.700Z</time>
      </trkpt>
      <trkpt lat="49.39188" lon="1.40524">
        <ele>73</ele>
        <time>2026-07-15T13:06:32.980Z</time>
      </trkpt>
      <trkpt lat="49.39187" lon="1.40516">
        <ele>73</ele>
        <time>2026-07-15T13:06:37.121Z</time>
      </trkpt>
      <trkpt lat="49.39187" lon="1.40508">
        <ele>73</ele>
        <time>2026-07-15T13:06:41.125Z</time>
      </trkpt>
      <trkpt lat="49.39188" lon="1.405">
        <ele>73</ele>
        <time>2026-07-15T13:06:45.665Z</time>
      </trkpt>
      <trkpt lat="49.39188" lon="1.40492">
        <ele>73</ele>
        <time>2026-07-15T13:06:50.126Z</time>
      </trkpt>
      <trkpt lat="49.39188" lon="1.40484">
        <ele>73</ele>
        <time>2026-07-15T13:06:54.200Z</time>
      </trkpt>
      <trkpt lat="49.39188" lon="1.40476">
        <ele>73</ele>
        <time>2026-07-15T13:06:58.644Z</time>
      </trkpt>
      <trkpt lat="49.39189" lon="1.40468">
        <ele>73</ele>
        <time>2026-07-15T13:07:03.166Z</time>
      </trkpt>
      <trkpt lat="49.39189" lon="1.4046">
        <ele>73</ele>
        <time>2026-07-15T13:07:07.723Z</time>
      </trkpt>
      <trkpt lat="49.39188" lon="1.40451">
        <ele>72</ele>
        <time>2026-07-15T13:07:12.325Z</time>
      </trkpt>
      <trkpt lat="49.39189" lon="1.40441">
        <ele>72</ele>
        <time>2026-07-15T13:07:16.821Z</time>
      </trkpt>
      <trkpt lat="49.39189" lon="1.40433">
        <ele>72</ele>
        <time>2026-07-15T13:07:21.299Z</time>
      </trkpt>
      <trkpt lat="49.39189" lon="1.40426">
        <ele>71</ele>
        <time>2026-07-15T13:07:25.980Z</time>
      </trkpt>
      <trkpt lat="49.39188" lon="1.40418">
        <ele>71</ele>
        <time>2026-07-15T13:07:30.361Z</time>
      </trkpt>
      <trkpt lat="49.39189" lon="1.40409">
        <ele>71</ele>
        <time>2026-07-15T13:07:34.945Z</time>
      </trkpt>
      <trkpt lat="49.39188" lon="1.404">
        <ele>70</ele>
        <time>2026-07-15T13:07:39.485Z</time>
      </trkpt>
      <trkpt lat="49.39189" lon="1.40393">
        <ele>70</ele>
        <time>2026-07-15T13:07:43.498Z</time>
      </trkpt>
      <trkpt lat="49.39189" lon="1.40386">
        <ele>70</ele>
        <time>2026-07-15T13:07:47.625Z</time>
      </trkpt>
      <trkpt lat="49.39183" lon="1.40372">
        <ele>69</ele>
        <time>2026-07-15T13:10:44.979Z</time>
      </trkpt>
      <trkpt lat="49.39183" lon="1.40371">
        <ele>69</ele>
        <time>2026-07-15T13:10:48.978Z</time>
      </trkpt>
      <trkpt lat="49.39183" lon="1.40371">
        <ele>69</ele>
        <time>2026-07-15T13:10:54.979Z</time>
      </trkpt>
      <trkpt lat="49.39183" lon="1.4037">
        <ele>69</ele>
        <time>2026-07-15T13:11:23.979Z</time>
      </trkpt>
      <trkpt lat="49.39184" lon="1.40364">
        <ele>69</ele>
        <time>2026-07-15T13:11:28.980Z</time>
      </trkpt>
      <trkpt lat="49.39186" lon="1.40356">
        <ele>69</ele>
        <time>2026-07-15T13:11:33.978Z</time>
      </trkpt>
      <trkpt lat="49.39189" lon="1.40349">
        <ele>69</ele>
        <time>2026-07-15T13:11:38.980Z</time>
      </trkpt>
      <trkpt lat="49.39193" lon="1.40344">
        <ele>68</ele>
        <time>2026-07-15T13:11:42.981Z</time>
      </trkpt>
      <trkpt lat="49.39197" lon="1.40341">
        <ele>68</ele>
        <time>2026-07-15T13:11:47.660Z</time>
      </trkpt>
      <trkpt lat="49.39202" lon="1.40339">
        <ele>68</ele>
        <time>2026-07-15T13:11:51.946Z</time>
      </trkpt>
      <trkpt lat="49.39206" lon="1.40336">
        <ele>68</ele>
        <time>2026-07-15T13:11:56.407Z</time>
      </trkpt>
      <trkpt lat="49.39212" lon="1.40336">
        <ele>68</ele>
        <time>2026-07-15T13:12:00.947Z</time>
      </trkpt>
      <trkpt lat="49.39216" lon="1.40338">
        <ele>68</ele>
        <time>2026-07-15T13:12:04.979Z</time>
      </trkpt>
      <trkpt lat="49.39221" lon="1.4034">
        <ele>68</ele>
        <time>2026-07-15T13:12:08.981Z</time>
      </trkpt>
      <trkpt lat="49.39226" lon="1.40343">
        <ele>68</ele>
        <time>2026-07-15T13:12:13.680Z</time>
      </trkpt>
      <trkpt lat="49.3923" lon="1.40345">
        <ele>68</ele>
        <time>2026-07-15T13:12:17.719Z</time>
      </trkpt>
      <trkpt lat="49.39234" lon="1.40346">
        <ele>68</ele>
        <time>2026-07-15T13:12:21.759Z</time>
      </trkpt>
      <trkpt lat="49.39239" lon="1.40348">
        <ele>69</ele>
        <time>2026-07-15T13:12:25.860Z</time>
      </trkpt>
      <trkpt lat="49.39243" lon="1.40349">
        <ele>69</ele>
        <time>2026-07-15T13:12:29.961Z</time>
      </trkpt>
      <trkpt lat="49.39248" lon="1.40349">
        <ele>69</ele>
        <time>2026-07-15T13:12:34.545Z</time>
      </trkpt>
      <trkpt lat="49.39254" lon="1.4035">
        <ele>69</ele>
        <time>2026-07-15T13:12:38.979Z</time>
      </trkpt>
      <trkpt lat="49.39259" lon="1.40351">
        <ele>69</ele>
        <time>2026-07-15T13:12:43.440Z</time>
      </trkpt>
      <trkpt lat="49.39264" lon="1.40352">
        <ele>70</ele>
        <time>2026-07-15T13:12:47.840Z</time>
      </trkpt>
      <trkpt lat="49.3927" lon="1.40353">
        <ele>70</ele>
        <time>2026-07-15T13:12:52.406Z</time>
      </trkpt>
      <trkpt lat="49.39275" lon="1.40353">
        <ele>70</ele>
        <time>2026-07-15T13:12:56.980Z</time>
      </trkpt>
      <trkpt lat="49.39281" lon="1.40353">
        <ele>70</ele>
        <time>2026-07-15T13:13:01.618Z</time>
      </trkpt>
      <trkpt lat="49.39287" lon="1.40353">
        <ele>70</ele>
        <time>2026-07-15T13:13:06.105Z</time>
      </trkpt>
      <trkpt lat="49.39293" lon="1.40353">
        <ele>68</ele>
        <time>2026-07-15T13:13:10.681Z</time>
      </trkpt>
      <trkpt lat="49.39298" lon="1.40354">
        <ele>68</ele>
        <time>2026-07-15T13:13:15.124Z</time>
      </trkpt>
      <trkpt lat="49.39303" lon="1.40354">
        <ele>68</ele>
        <time>2026-07-15T13:13:19.146Z</time>
      </trkpt>
      <trkpt lat="49.39309" lon="1.40354">
        <ele>68</ele>
        <time>2026-07-15T13:13:23.239Z</time>
      </trkpt>
      <trkpt lat="49.39314" lon="1.40354">
        <ele>68</ele>
        <time>2026-07-15T13:13:27.261Z</time>
      </trkpt>
      <trkpt lat="49.39318" lon="1.40356">
        <ele>68</ele>
        <time>2026-07-15T13:13:31.283Z</time>
      </trkpt>
      <trkpt lat="49.39323" lon="1.40357">
        <ele>70</ele>
        <time>2026-07-15T13:13:35.401Z</time>
      </trkpt>
      <trkpt lat="49.39328" lon="1.40358">
        <ele>70</ele>
        <time>2026-07-15T13:13:39.503Z</time>
      </trkpt>
      <trkpt lat="49.39333" lon="1.40358">
        <ele>70</ele>
        <time>2026-07-15T13:13:43.683Z</time>
      </trkpt>
      <trkpt lat="49.39337" lon="1.40359">
        <ele>70</ele>
        <time>2026-07-15T13:13:47.819Z</time>
      </trkpt>
      <trkpt lat="49.39342" lon="1.40359">
        <ele>70</ele>
        <time>2026-07-15T13:13:51.964Z</time>
      </trkpt>
      <trkpt lat="49.39347" lon="1.4036">
        <ele>70</ele>
        <time>2026-07-15T13:13:55.982Z</time>
      </trkpt>
      <trkpt lat="49.39351" lon="1.40361">
        <ele>75</ele>
        <time>2026-07-15T13:14:00.140Z</time>
      </trkpt>
      <trkpt lat="49.39356" lon="1.40361">
        <ele>75</ele>
        <time>2026-07-15T13:14:04.285Z</time>
      </trkpt>
      <trkpt lat="49.39361" lon="1.4036">
        <ele>75</ele>
        <time>2026-07-15T13:14:08.342Z</time>
      </trkpt>
      <trkpt lat="49.39366" lon="1.40361">
        <ele>75</ele>
        <time>2026-07-15T13:14:12.899Z</time>
      </trkpt>
      <trkpt lat="49.39371" lon="1.40361">
        <ele>75</ele>
        <time>2026-07-15T13:14:16.939Z</time>
      </trkpt>
      <trkpt lat="49.39376" lon="1.40361">
        <ele>78</ele>
        <time>2026-07-15T13:14:20.981Z</time>
      </trkpt>
      <trkpt lat="49.39382" lon="1.40362">
        <ele>78</ele>
        <time>2026-07-15T13:14:25.685Z</time>
      </trkpt>
      <trkpt lat="49.39387" lon="1.40362">
        <ele>78</ele>
        <time>2026-07-15T13:14:29.760Z</time>
      </trkpt>
      <trkpt lat="49.39391" lon="1.40363">
        <ele>78</ele>
        <time>2026-07-15T13:14:33.940Z</time>
      </trkpt>
      <trkpt lat="49.39396" lon="1.40363">
        <ele>78</ele>
        <time>2026-07-15T13:14:38.120Z</time>
      </trkpt>
      <trkpt lat="49.39401" lon="1.40363">
        <ele>78</ele>
        <time>2026-07-15T13:14:42.326Z</time>
      </trkpt>
      <trkpt lat="49.39406" lon="1.40364">
        <ele>79</ele>
        <time>2026-07-15T13:14:46.480Z</time>
      </trkpt>
      <trkpt lat="49.39411" lon="1.40365">
        <ele>79</ele>
        <time>2026-07-15T13:14:50.484Z</time>
      </trkpt>
      <trkpt lat="49.39416" lon="1.40366">
        <ele>79</ele>
        <time>2026-07-15T13:14:54.620Z</time>
      </trkpt>
      <trkpt lat="49.39421" lon="1.40366">
        <ele>79</ele>
        <time>2026-07-15T13:14:59.099Z</time>
      </trkpt>
      <trkpt lat="49.39426" lon="1.40367">
        <ele>79</ele>
        <time>2026-07-15T13:15:03.200Z</time>
      </trkpt>
      <trkpt lat="49.39431" lon="1.40367">
        <ele>82</ele>
        <time>2026-07-15T13:15:07.222Z</time>
      </trkpt>
      <trkpt lat="49.39436" lon="1.40368">
        <ele>82</ele>
        <time>2026-07-15T13:15:11.226Z</time>
      </trkpt>
      <trkpt lat="49.39441" lon="1.40369">
        <ele>82</ele>
        <time>2026-07-15T13:15:15.740Z</time>
      </trkpt>
      <trkpt lat="49.39446" lon="1.40369">
        <ele>82</ele>
        <time>2026-07-15T13:15:19.946Z</time>
      </trkpt>
      <trkpt lat="49.39451" lon="1.40369">
        <ele>82</ele>
        <time>2026-07-15T13:15:23.977Z</time>
      </trkpt>
      <trkpt lat="49.39457" lon="1.4037">
        <ele>82</ele>
        <time>2026-07-15T13:15:28.183Z</time>
      </trkpt>
      <trkpt lat="49.39462" lon="1.4037">
        <ele>84</ele>
        <time>2026-07-15T13:15:32.741Z</time>
      </trkpt>
      <trkpt lat="49.39467" lon="1.40373">
        <ele>84</ele>
        <time>2026-07-15T13:15:37.342Z</time>
      </trkpt>
      <trkpt lat="49.39471" lon="1.40376">
        <ele>81</ele>
        <time>2026-07-15T13:15:41.426Z</time>
      </trkpt>
      <trkpt lat="49.39476" lon="1.40379">
        <ele>81</ele>
        <time>2026-07-15T13:15:45.465Z</time>
      </trkpt>
      <trkpt lat="49.3948" lon="1.40383">
        <ele>81</ele>
        <time>2026-07-15T13:15:49.540Z</time>
      </trkpt>
      <trkpt lat="49.39484" lon="1.40387">
        <ele>81</ele>
        <time>2026-07-15T13:15:53.606Z</time>
      </trkpt>
      <trkpt lat="49.39488" lon="1.40391">
        <ele>82</ele>
        <time>2026-07-15T13:15:57.680Z</time>
      </trkpt>
      <trkpt lat="49.39492" lon="1.40395">
        <ele>82</ele>
        <time>2026-07-15T13:16:01.764Z</time>
      </trkpt>
      <trkpt lat="49.39495" lon="1.40401">
        <ele>82</ele>
        <time>2026-07-15T13:16:05.838Z</time>
      </trkpt>
      <trkpt lat="49.39499" lon="1.40406">
        <ele>82</ele>
        <time>2026-07-15T13:16:09.978Z</time>
      </trkpt>
      <trkpt lat="49.39501" lon="1.40413">
        <ele>82</ele>
        <time>2026-07-15T13:16:14.119Z</time>
      </trkpt>
      <trkpt lat="49.39504" lon="1.40419">
        <ele>82</ele>
        <time>2026-07-15T13:16:18.326Z</time>
      </trkpt>
      <trkpt lat="49.39507" lon="1.40426">
        <ele>82</ele>
        <time>2026-07-15T13:16:22.506Z</time>
      </trkpt>
      <trkpt lat="49.3951" lon="1.40432">
        <ele>82</ele>
        <time>2026-07-15T13:16:26.642Z</time>
      </trkpt>
      <trkpt lat="49.39514" lon="1.40438">
        <ele>82</ele>
        <time>2026-07-15T13:16:30.822Z</time>
      </trkpt>
      <trkpt lat="49.39517" lon="1.40443">
        <ele>84</ele>
        <time>2026-07-15T13:16:34.923Z</time>
      </trkpt>
      <trkpt lat="49.3952" lon="1.4045">
        <ele>84</ele>
        <time>2026-07-15T13:16:38.978Z</time>
      </trkpt>
      <trkpt lat="49.39522" lon="1.40457">
        <ele>84</ele>
        <time>2026-07-15T13:16:43.582Z</time>
      </trkpt>
      <trkpt lat="49.39525" lon="1.40463">
        <ele>83</ele>
        <time>2026-07-15T13:16:47.666Z</time>
      </trkpt>
      <trkpt lat="49.39526" lon="1.4047">
        <ele>83</ele>
        <time>2026-07-15T13:16:51.784Z</time>
      </trkpt>
      <trkpt lat="49.39528" lon="1.40476">
        <ele>83</ele>
        <time>2026-07-15T13:16:55.921Z</time>
      </trkpt>
      <trkpt lat="49.3953" lon="1.40483">
        <ele>83</ele>
        <time>2026-07-15T13:16:59.978Z</time>
      </trkpt>
      <trkpt lat="49.39531" lon="1.4049">
        <ele>84</ele>
        <time>2026-07-15T13:17:04.360Z</time>
      </trkpt>
      <trkpt lat="49.39532" lon="1.40497">
        <ele>84</ele>
        <time>2026-07-15T13:17:08.558Z</time>
      </trkpt>
      <trkpt lat="49.39534" lon="1.40503">
        <ele>84</ele>
        <time>2026-07-15T13:17:12.686Z</time>
      </trkpt>
      <trkpt lat="49.39537" lon="1.40509">
        <ele>84</ele>
        <time>2026-07-15T13:17:16.760Z</time>
      </trkpt>
      <trkpt lat="49.39539" lon="1.40516">
        <ele>84</ele>
        <time>2026-07-15T13:17:20.844Z</time>
      </trkpt>
      <trkpt lat="49.39541" lon="1.40523">
        <ele>84</ele>
        <time>2026-07-15T13:17:24.963Z</time>
      </trkpt>
      <trkpt lat="49.39543" lon="1.40529">
        <ele>86</ele>
        <time>2026-07-15T13:17:28.979Z</time>
      </trkpt>
      <trkpt lat="49.39545" lon="1.40536">
        <ele>86</ele>
        <time>2026-07-15T13:17:33.341Z</time>
      </trkpt>
      <trkpt lat="49.39547" lon="1.40543">
        <ele>85</ele>
        <time>2026-07-15T13:17:37.460Z</time>
      </trkpt>
      <trkpt lat="49.39549" lon="1.4055">
        <ele>85</ele>
        <time>2026-07-15T13:17:41.500Z</time>
      </trkpt>
      <trkpt lat="49.39551" lon="1.40557">
        <ele>85</ele>
        <time>2026-07-15T13:17:45.602Z</time>
      </trkpt>
      <trkpt lat="49.39553" lon="1.40563">
        <ele>85</ele>
        <time>2026-07-15T13:17:49.685Z</time>
      </trkpt>
      <trkpt lat="49.39555" lon="1.4057">
        <ele>84</ele>
        <time>2026-07-15T13:17:53.760Z</time>
      </trkpt>
      <trkpt lat="49.39557" lon="1.40578">
        <ele>84</ele>
        <time>2026-07-15T13:17:58.345Z</time>
      </trkpt>
      <trkpt lat="49.39559" lon="1.40585">
        <ele>84</ele>
        <time>2026-07-15T13:18:02.499Z</time>
      </trkpt>
      <trkpt lat="49.39561" lon="1.40592">
        <ele>84</ele>
        <time>2026-07-15T13:18:06.600Z</time>
      </trkpt>
      <trkpt lat="49.39564" lon="1.40598">
        <ele>84</ele>
        <time>2026-07-15T13:18:10.701Z</time>
      </trkpt>
      <trkpt lat="49.39566" lon="1.40604">
        <ele>84</ele>
        <time>2026-07-15T13:18:14.820Z</time>
      </trkpt>
      <trkpt lat="49.39569" lon="1.4061">
        <ele>84</ele>
        <time>2026-07-15T13:18:18.965Z</time>
      </trkpt>
      <trkpt lat="49.3957" lon="1.40617">
        <ele>86</ele>
        <time>2026-07-15T13:18:23.146Z</time>
      </trkpt>
      <trkpt lat="49.39572" lon="1.40624">
        <ele>86</ele>
        <time>2026-07-15T13:18:27.686Z</time>
      </trkpt>
      <trkpt lat="49.39573" lon="1.40632">
        <ele>85</ele>
        <time>2026-07-15T13:18:31.884Z</time>
      </trkpt>
      <trkpt lat="49.39574" lon="1.40639">
        <ele>85</ele>
        <time>2026-07-15T13:18:35.979Z</time>
      </trkpt>
      <trkpt lat="49.39576" lon="1.40646">
        <ele>85</ele>
        <time>2026-07-15T13:18:40.280Z</time>
      </trkpt>
      <trkpt lat="49.39579" lon="1.40653">
        <ele>85</ele>
        <time>2026-07-15T13:18:44.521Z</time>
      </trkpt>
      <trkpt lat="49.39581" lon="1.40659">
        <ele>85</ele>
        <time>2026-07-15T13:18:48.623Z</time>
      </trkpt>
      <trkpt lat="49.39583" lon="1.40666">
        <ele>85</ele>
        <time>2026-07-15T13:18:52.680Z</time>
      </trkpt>
      <trkpt lat="49.39585" lon="1.40673">
        <ele>85</ele>
        <time>2026-07-15T13:18:56.746Z</time>
      </trkpt>
      <trkpt lat="49.39586" lon="1.40679">
        <ele>85</ele>
        <time>2026-07-15T13:19:00.900Z</time>
      </trkpt>
      <trkpt lat="49.39589" lon="1.40686">
        <ele>84</ele>
        <time>2026-07-15T13:19:05.239Z</time>
      </trkpt>
      <trkpt lat="49.39591" lon="1.40692">
        <ele>84</ele>
        <time>2026-07-15T13:19:09.665Z</time>
      </trkpt>
      <trkpt lat="49.39593" lon="1.40697">
        <ele>84</ele>
        <time>2026-07-15T13:19:13.980Z</time>
      </trkpt>
      <trkpt lat="49.39597" lon="1.40701">
        <ele>84</ele>
        <time>2026-07-15T13:19:18.403Z</time>
      </trkpt>
      <trkpt lat="49.39601" lon="1.40706">
        <ele>84</ele>
        <time>2026-07-15T13:19:22.601Z</time>
      </trkpt>
      <trkpt lat="49.39606" lon="1.40709">
        <ele>85</ele>
        <time>2026-07-15T13:19:26.981Z</time>
      </trkpt>
      <trkpt lat="49.3961" lon="1.40709">
        <ele>85</ele>
        <time>2026-07-15T13:19:30.980Z</time>
      </trkpt>
      <trkpt lat="49.39614" lon="1.40714">
        <ele>85</ele>
        <time>2026-07-15T13:19:35.520Z</time>
      </trkpt>
      <trkpt lat="49.39618" lon="1.40718">
        <ele>85</ele>
        <time>2026-07-15T13:19:39.982Z</time>
      </trkpt>
      <trkpt lat="49.39623" lon="1.40732">
        <ele>85</ele>
        <time>2026-07-15T13:21:42.980Z</time>
      </trkpt>
      <trkpt lat="49.39624" lon="1.40731">
        <ele>85</ele>
        <time>2026-07-15T13:21:47.623Z</time>
      </trkpt>
      <trkpt lat="49.3964" lon="1.40733">
        <ele>87</ele>
        <time>2026-07-15T13:21:52.242Z</time>
      </trkpt>
      <trkpt lat="49.39642" lon="1.40731">
        <ele>87</ele>
        <time>2026-07-15T13:21:56.659Z</time>
      </trkpt>
      <trkpt lat="49.39646" lon="1.4073">
        <ele>87</ele>
        <time>2026-07-15T13:22:00.883Z</time>
      </trkpt>
      <trkpt lat="49.3965" lon="1.40731">
        <ele>87</ele>
        <time>2026-07-15T13:22:04.905Z</time>
      </trkpt>
      <trkpt lat="49.39655" lon="1.40734">
        <ele>92</ele>
        <time>2026-07-15T13:22:09.462Z</time>
      </trkpt>
      <trkpt lat="49.39659" lon="1.40737">
        <ele>94</ele>
        <time>2026-07-15T13:22:13.980Z</time>
      </trkpt>
      <trkpt lat="49.39663" lon="1.4074">
        <ele>94</ele>
        <time>2026-07-15T13:22:18.463Z</time>
      </trkpt>
      <trkpt lat="49.39666" lon="1.40742">
        <ele>94</ele>
        <time>2026-07-15T13:22:22.978Z</time>
      </trkpt>
      <trkpt lat="49.39668" lon="1.40744">
        <ele>94</ele>
        <time>2026-07-15T13:22:27.605Z</time>
      </trkpt>
      <trkpt lat="49.39672" lon="1.40746">
        <ele>94</ele>
        <time>2026-07-15T13:22:32.241Z</time>
      </trkpt>
      <trkpt lat="49.39676" lon="1.4075">
        <ele>94</ele>
        <time>2026-07-15T13:22:36.421Z</time>
      </trkpt>
      <trkpt lat="49.39679" lon="1.40752">
        <ele>94</ele>
        <time>2026-07-15T13:22:40.645Z</time>
      </trkpt>
      <trkpt lat="49.39682" lon="1.40754">
        <ele>99</ele>
        <time>2026-07-15T13:22:44.799Z</time>
      </trkpt>
      <trkpt lat="49.39686" lon="1.40755">
        <ele>99</ele>
        <time>2026-07-15T13:22:48.980Z</time>
      </trkpt>
      <trkpt lat="49.3969" lon="1.40755">
        <ele>99</ele>
        <time>2026-07-15T13:22:53.826Z</time>
      </trkpt>
      <trkpt lat="49.39693" lon="1.40755">
        <ele>99</ele>
        <time>2026-07-15T13:22:58.524Z</time>
      </trkpt>
      <trkpt lat="49.39696" lon="1.40754">
        <ele>99</ele>
        <time>2026-07-15T13:23:02.704Z</time>
      </trkpt>
      <trkpt lat="49.397" lon="1.40753">
        <ele>99</ele>
        <time>2026-07-15T13:23:06.901Z</time>
      </trkpt>
      <trkpt lat="49.39703" lon="1.40752">
        <ele>99</ele>
        <time>2026-07-15T13:23:10.977Z</time>
      </trkpt>
      <trkpt lat="49.39706" lon="1.40751">
        <ele>99</ele>
        <time>2026-07-15T13:23:15.340Z</time>
      </trkpt>
      <trkpt lat="49.3971" lon="1.40749">
        <ele>104</ele>
        <time>2026-07-15T13:23:19.582Z</time>
      </trkpt>
      <trkpt lat="49.39713" lon="1.40746">
        <ele>104</ele>
        <time>2026-07-15T13:23:23.744Z</time>
      </trkpt>
      <trkpt lat="49.39717" lon="1.40744">
        <ele>104</ele>
        <time>2026-07-15T13:23:27.845Z</time>
      </trkpt>
      <trkpt lat="49.3972" lon="1.40744">
        <ele>104</ele>
        <time>2026-07-15T13:24:17.240Z</time>
      </trkpt>
      <trkpt lat="49.39732" lon="1.40748">
        <ele>104</ele>
        <time>2026-07-15T13:24:21.719Z</time>
      </trkpt>
      <trkpt lat="49.39732" lon="1.40748">
        <ele>104</ele>
        <time>2026-07-15T13:24:26.285Z</time>
      </trkpt>
      <trkpt lat="49.39732" lon="1.40748">
        <ele>104</ele>
        <time>2026-07-15T13:24:30.606Z</time>
      </trkpt>
      <trkpt lat="49.39732" lon="1.40748">
        <ele>104</ele>
        <time>2026-07-15T13:24:34.961Z</time>
      </trkpt>
      <trkpt lat="49.39737" lon="1.40746">
        <ele>106</ele>
        <time>2026-07-15T13:24:39.326Z</time>
      </trkpt>
      <trkpt lat="49.39741" lon="1.4075">
        <ele>106</ele>
        <time>2026-07-15T13:24:43.980Z</time>
      </trkpt>
      <trkpt lat="49.39743" lon="1.40755">
        <ele>106</ele>
        <time>2026-07-15T13:24:48.423Z</time>
      </trkpt>
      <trkpt lat="49.39744" lon="1.40762">
        <ele>106</ele>
        <time>2026-07-15T13:24:52.979Z</time>
      </trkpt>
      <trkpt lat="49.39745" lon="1.40768">
        <ele>109</ele>
        <time>2026-07-15T13:24:57.503Z</time>
      </trkpt>
      <trkpt lat="49.39746" lon="1.40774">
        <ele>109</ele>
        <time>2026-07-15T13:25:01.885Z</time>
      </trkpt>
      <trkpt lat="49.39746" lon="1.40778">
        <ele>109</ele>
        <time>2026-07-15T13:25:05.986Z</time>
      </trkpt>
      <trkpt lat="49.39746" lon="1.40784">
        <ele>109</ele>
        <time>2026-07-15T13:25:10.482Z</time>
      </trkpt>
      <trkpt lat="49.39747" lon="1.40789">
        <ele>109</ele>
        <time>2026-07-15T13:25:14.925Z</time>
      </trkpt>
      <trkpt lat="49.39748" lon="1.40794">
        <ele>110</ele>
        <time>2026-07-15T13:25:19.580Z</time>
      </trkpt>
      <trkpt lat="49.39752" lon="1.40797">
        <ele>110</ele>
        <time>2026-07-15T13:25:23.900Z</time>
      </trkpt>
      <trkpt lat="49.39754" lon="1.40797">
        <ele>110</ele>
        <time>2026-07-15T13:25:28.220Z</time>
      </trkpt>
      <trkpt lat="49.39759" lon="1.40797">
        <ele>110</ele>
        <time>2026-07-15T13:25:32.462Z</time>
      </trkpt>
      <trkpt lat="49.39763" lon="1.40797">
        <ele>110</ele>
        <time>2026-07-15T13:25:36.844Z</time>
      </trkpt>
      <trkpt lat="49.39767" lon="1.40797">
        <ele>116</ele>
        <time>2026-07-15T13:25:41.542Z</time>
      </trkpt>
      <trkpt lat="49.39771" lon="1.40798">
        <ele>116</ele>
        <time>2026-07-15T13:25:45.979Z</time>
      </trkpt>
      <trkpt lat="49.39775" lon="1.40798">
        <ele>116</ele>
        <time>2026-07-15T13:25:50.587Z</time>
      </trkpt>
      <trkpt lat="49.39779" lon="1.40799">
        <ele>116</ele>
        <time>2026-07-15T13:25:54.980Z</time>
      </trkpt>
      <trkpt lat="49.39783" lon="1.40799">
        <ele>116</ele>
        <time>2026-07-15T13:25:59.465Z</time>
      </trkpt>
      <trkpt lat="49.39787" lon="1.40798">
        <ele>116</ele>
        <time>2026-07-15T13:26:03.978Z</time>
      </trkpt>
      <trkpt lat="49.39791" lon="1.40798">
        <ele>116</ele>
        <time>2026-07-15T13:26:08.978Z</time>
      </trkpt>
      <trkpt lat="49.39794" lon="1.40798">
        <ele>123</ele>
        <time>2026-07-15T13:26:13.620Z</time>
      </trkpt>
      <trkpt lat="49.39799" lon="1.40799">
        <ele>123</ele>
        <time>2026-07-15T13:26:18.222Z</time>
      </trkpt>
      <trkpt lat="49.39802" lon="1.40801">
        <ele>123</ele>
        <time>2026-07-15T13:26:22.532Z</time>
      </trkpt>
      <trkpt lat="49.39806" lon="1.408">
        <ele>123</ele>
        <time>2026-07-15T13:26:26.801Z</time>
      </trkpt>
      <trkpt lat="49.39811" lon="1.40799">
        <ele>123</ele>
        <time>2026-07-15T13:26:31.420Z</time>
      </trkpt>
      <trkpt lat="49.39814" lon="1.40797">
        <ele>123</ele>
        <time>2026-07-15T13:26:35.881Z</time>
      </trkpt>
      <trkpt lat="49.39818" lon="1.408">
        <ele>123</ele>
        <time>2026-07-15T13:26:39.984Z</time>
      </trkpt>
      <trkpt lat="49.39822" lon="1.408">
        <ele>127</ele>
        <time>2026-07-15T13:26:44.980Z</time>
      </trkpt>
      <trkpt lat="49.39826" lon="1.40799">
        <ele>127</ele>
        <time>2026-07-15T13:26:49.545Z</time>
      </trkpt>
      <trkpt lat="49.39829" lon="1.40799">
        <ele>127</ele>
        <time>2026-07-15T13:26:53.979Z</time>
      </trkpt>
      <trkpt lat="49.39833" lon="1.408">
        <ele>127</ele>
        <time>2026-07-15T13:26:58.485Z</time>
      </trkpt>
      <trkpt lat="49.39837" lon="1.40801">
        <ele>127</ele>
        <time>2026-07-15T13:27:02.761Z</time>
      </trkpt>
      <trkpt lat="49.39841" lon="1.40803">
        <ele>127</ele>
        <time>2026-07-15T13:27:06.979Z</time>
      </trkpt>
      <trkpt lat="49.39843" lon="1.40803">
        <ele>127</ele>
        <time>2026-07-15T13:27:11.217Z</time>
      </trkpt>
      <trkpt lat="49.39844" lon="1.40803">
        <ele>127</ele>
        <time>2026-07-15T13:27:15.538Z</time>
      </trkpt>
      <trkpt lat="49.39849" lon="1.40806">
        <ele>129</ele>
        <time>2026-07-15T13:27:19.978Z</time>
      </trkpt>
      <trkpt lat="49.3985" lon="1.4081">
        <ele>129</ele>
        <time>2026-07-15T13:27:24.487Z</time>
      </trkpt>
      <trkpt lat="49.39849" lon="1.40808">
        <ele>129</ele>
        <time>2026-07-15T13:27:28.746Z</time>
      </trkpt>
      <trkpt lat="49.39852" lon="1.40812">
        <ele>129</ele>
        <time>2026-07-15T13:27:32.820Z</time>
      </trkpt>
      <trkpt lat="49.39855" lon="1.40817">
        <ele>129</ele>
        <time>2026-07-15T13:28:22.978Z</time>
      </trkpt>
      <trkpt lat="49.39859" lon="1.4082">
        <ele>131</ele>
        <time>2026-07-15T13:28:31.979Z</time>
      </trkpt>
      <trkpt lat="49.3986" lon="1.40821">
        <ele>131</ele>
        <time>2026-07-15T13:28:38.979Z</time>
      </trkpt>
      <trkpt lat="49.3986" lon="1.40827">
        <ele>131</ele>
        <time>2026-07-15T13:28:42.981Z</time>
      </trkpt>
      <trkpt lat="49.3986" lon="1.40832">
        <ele>131</ele>
        <time>2026-07-15T13:28:47.980Z</time>
      </trkpt>
      <trkpt lat="49.3986" lon="1.40836">
        <ele>131</ele>
        <time>2026-07-15T13:28:52.643Z</time>
      </trkpt>
      <trkpt lat="49.3986" lon="1.4084">
        <ele>131</ele>
        <time>2026-07-15T13:28:56.978Z</time>
      </trkpt>
      <trkpt lat="49.39859" lon="1.40844">
        <ele>131</ele>
        <time>2026-07-15T13:29:01.539Z</time>
      </trkpt>
      <trkpt lat="49.39859" lon="1.40848">
        <ele>132</ele>
        <time>2026-07-15T13:29:05.965Z</time>
      </trkpt>
      <trkpt lat="49.39859" lon="1.40853">
        <ele>132</ele>
        <time>2026-07-15T13:29:10.584Z</time>
      </trkpt>
      <trkpt lat="49.39859" lon="1.40858">
        <ele>132</ele>
        <time>2026-07-15T13:29:14.606Z</time>
      </trkpt>
      <trkpt lat="49.39859" lon="1.40862">
        <ele>132</ele>
        <time>2026-07-15T13:29:18.900Z</time>
      </trkpt>
      <trkpt lat="49.39859" lon="1.40866">
        <ele>132</ele>
        <time>2026-07-15T13:29:23.484Z</time>
      </trkpt>
      <trkpt lat="49.3986" lon="1.40872">
        <ele>132</ele>
        <time>2026-07-15T13:29:27.901Z</time>
      </trkpt>
      <trkpt lat="49.39862" lon="1.40878">
        <ele>133</ele>
        <time>2026-07-15T13:29:31.978Z</time>
      </trkpt>
      <trkpt lat="49.39863" lon="1.40883">
        <ele>133</ele>
        <time>2026-07-15T13:29:35.980Z</time>
      </trkpt>
      <trkpt lat="49.39863" lon="1.40887">
        <ele>133</ele>
        <time>2026-07-15T13:29:40.979Z</time>
      </trkpt>
      <trkpt lat="49.3986" lon="1.40888">
        <ele>133</ele>
        <time>2026-07-15T13:29:45.639Z</time>
      </trkpt>
      <trkpt lat="49.39857" lon="1.40893">
        <ele>133</ele>
        <time>2026-07-15T13:29:49.979Z</time>
      </trkpt>
      <trkpt lat="49.39855" lon="1.40901">
        <ele>133</ele>
        <time>2026-07-15T13:29:54.438Z</time>
      </trkpt>
      <trkpt lat="49.39854" lon="1.40908">
        <ele>134</ele>
        <time>2026-07-15T13:29:58.820Z</time>
      </trkpt>
      <trkpt lat="49.39856" lon="1.40914">
        <ele>134</ele>
        <time>2026-07-15T13:30:03.299Z</time>
      </trkpt>
      <trkpt lat="49.39857" lon="1.40919">
        <ele>134</ele>
        <time>2026-07-15T13:30:07.540Z</time>
      </trkpt>
      <trkpt lat="49.39858" lon="1.40924">
        <ele>134</ele>
        <time>2026-07-15T13:30:11.861Z</time>
      </trkpt>
      <trkpt lat="49.39858" lon="1.40928">
        <ele>134</ele>
        <time>2026-07-15T13:30:16.260Z</time>
      </trkpt>
      <trkpt lat="49.39859" lon="1.40933">
        <ele>135</ele>
        <time>2026-07-15T13:30:20.580Z</time>
      </trkpt>
      <trkpt lat="49.3986" lon="1.40938">
        <ele>135</ele>
        <time>2026-07-15T13:30:24.963Z</time>
      </trkpt>
      <trkpt lat="49.39862" lon="1.40944">
        <ele>135</ele>
        <time>2026-07-15T13:30:28.981Z</time>
      </trkpt>
      <trkpt lat="49.39862" lon="1.40949">
        <ele>135</ele>
        <time>2026-07-15T13:30:33.542Z</time>
      </trkpt>
      <trkpt lat="49.39863" lon="1.40954">
        <ele>135</ele>
        <time>2026-07-15T13:30:37.980Z</time>
      </trkpt>
      <trkpt lat="49.39862" lon="1.40956">
        <ele>135</ele>
        <time>2026-07-15T13:30:41.978Z</time>
      </trkpt>
      <trkpt lat="49.39862" lon="1.40962">
        <ele>136</ele>
        <time>2026-07-15T13:30:46.976Z</time>
      </trkpt>
      <trkpt lat="49.39862" lon="1.4097">
        <ele>136</ele>
        <time>2026-07-15T13:30:51.544Z</time>
      </trkpt>
      <trkpt lat="49.39863" lon="1.40977">
        <ele>136</ele>
        <time>2026-07-15T13:30:55.980Z</time>
      </trkpt>
      <trkpt lat="49.39865" lon="1.40983">
        <ele>136</ele>
        <time>2026-07-15T13:30:59.981Z</time>
      </trkpt>
      <trkpt lat="49.39865" lon="1.40989">
        <ele>137</ele>
        <time>2026-07-15T13:31:04.242Z</time>
      </trkpt>
      <trkpt lat="49.39866" lon="1.40997">
        <ele>137</ele>
        <time>2026-07-15T13:31:08.466Z</time>
      </trkpt>
      <trkpt lat="49.39867" lon="1.41003">
        <ele>137</ele>
        <time>2026-07-15T13:31:12.602Z</time>
      </trkpt>
      <trkpt lat="49.39869" lon="1.41008">
        <ele>137</ele>
        <time>2026-07-15T13:31:16.981Z</time>
      </trkpt>
      <trkpt lat="49.3987" lon="1.41013">
        <ele>137</ele>
        <time>2026-07-15T13:31:21.978Z</time>
      </trkpt>
      <trkpt lat="49.39872" lon="1.41019">
        <ele>138</ele>
        <time>2026-07-15T13:31:26.240Z</time>
      </trkpt>
      <trkpt lat="49.39873" lon="1.41026">
        <ele>138</ele>
        <time>2026-07-15T13:31:30.980Z</time>
      </trkpt>
      <trkpt lat="49.39874" lon="1.41031">
        <ele>138</ele>
        <time>2026-07-15T13:45:35.560Z</time>
      </trkpt>
      <trkpt lat="49.39875" lon="1.41037">
        <ele>135</ele>
        <time>2026-07-15T13:45:39.705Z</time>
      </trkpt>
      <trkpt lat="49.39877" lon="1.41042">
        <ele>135</ele>
        <time>2026-07-15T13:45:43.976Z</time>
      </trkpt>
      <trkpt lat="49.39879" lon="1.41048">
        <ele>135</ele>
        <time>2026-07-15T13:45:48.680Z</time>
      </trkpt>
      <trkpt lat="49.39882" lon="1.41053">
        <ele>135</ele>
        <time>2026-07-15T13:45:52.746Z</time>
      </trkpt>
      <trkpt lat="49.39885" lon="1.41057">
        <ele>135</ele>
        <time>2026-07-15T13:45:56.975Z</time>
      </trkpt>
      <trkpt lat="49.39889" lon="1.41058">
        <ele>135</ele>
        <time>2026-07-15T13:46:01.439Z</time>
      </trkpt>
      <trkpt lat="49.39891" lon="1.41055">
        <ele>135</ele>
        <time>2026-07-15T13:46:05.785Z</time>
      </trkpt>
      <trkpt lat="49.39895" lon="1.41056">
        <ele>135</ele>
        <time>2026-07-15T13:46:09.976Z</time>
      </trkpt>
      <trkpt lat="49.39899" lon="1.41057">
        <ele>135</ele>
        <time>2026-07-15T13:46:14.725Z</time>
      </trkpt>
      <trkpt lat="49.39903" lon="1.41059">
        <ele>135</ele>
        <time>2026-07-15T13:46:18.923Z</time>
      </trkpt>
      <trkpt lat="49.39907" lon="1.41061">
        <ele>135</ele>
        <time>2026-07-15T13:46:22.975Z</time>
      </trkpt>
      <trkpt lat="49.3991" lon="1.41061">
        <ele>135</ele>
        <time>2026-07-15T13:46:27.975Z</time>
      </trkpt>
      <trkpt lat="49.39914" lon="1.41059">
        <ele>135</ele>
        <time>2026-07-15T13:46:31.977Z</time>
      </trkpt>
      <trkpt lat="49.39917" lon="1.41057">
        <ele>135</ele>
        <time>2026-07-15T13:46:36.459Z</time>
      </trkpt>
      <trkpt lat="49.39921" lon="1.41056">
        <ele>135</ele>
        <time>2026-07-15T13:46:40.974Z</time>
      </trkpt>
      <trkpt lat="49.39925" lon="1.41055">
        <ele>135</ele>
        <time>2026-07-15T13:46:45.975Z</time>
      </trkpt>
      <trkpt lat="49.3993" lon="1.41054">
        <ele>135</ele>
        <time>2026-07-15T13:46:50.940Z</time>
      </trkpt>
      <trkpt lat="49.39934" lon="1.41053">
        <ele>135</ele>
        <time>2026-07-15T13:46:54.982Z</time>
      </trkpt>
      <trkpt lat="49.39938" lon="1.41054">
        <ele>135</ele>
        <time>2026-07-15T13:46:59.405Z</time>
      </trkpt>
      <trkpt lat="49.39943" lon="1.41054">
        <ele>135</ele>
        <time>2026-07-15T13:47:03.976Z</time>
      </trkpt>
      <trkpt lat="49.39945" lon="1.41056">
        <ele>135</ele>
        <time>2026-07-15T13:47:08.503Z</time>
      </trkpt>
      <trkpt lat="49.3995" lon="1.41055">
        <ele>135</ele>
        <time>2026-07-15T13:47:12.974Z</time>
      </trkpt>
      <trkpt lat="49.39956" lon="1.41053">
        <ele>135</ele>
        <time>2026-07-15T13:47:17.345Z</time>
      </trkpt>
      <trkpt lat="49.39961" lon="1.41054">
        <ele>136</ele>
        <time>2026-07-15T13:47:21.499Z</time>
      </trkpt>
      <trkpt lat="49.39965" lon="1.41055">
        <ele>136</ele>
        <time>2026-07-15T13:47:25.974Z</time>
      </trkpt>
      <trkpt lat="49.39969" lon="1.41055">
        <ele>136</ele>
        <time>2026-07-15T13:47:30.298Z</time>
      </trkpt>
      <trkpt lat="49.39973" lon="1.41055">
        <ele>136</ele>
        <time>2026-07-15T13:47:34.478Z</time>
      </trkpt>
      <trkpt lat="49.39977" lon="1.41056">
        <ele>136</ele>
        <time>2026-07-15T13:47:38.975Z</time>
      </trkpt>
      <trkpt lat="49.39981" lon="1.41057">
        <ele>136</ele>
        <time>2026-07-15T13:47:43.259Z</time>
      </trkpt>
      <trkpt lat="49.39986" lon="1.41058">
        <ele>136</ele>
        <time>2026-07-15T13:47:47.466Z</time>
      </trkpt>
      <trkpt lat="49.39989" lon="1.41059">
        <ele>136</ele>
        <time>2026-07-15T13:47:51.681Z</time>
      </trkpt>
      <trkpt lat="49.39994" lon="1.41059">
        <ele>136</ele>
        <time>2026-07-15T13:47:56.300Z</time>
      </trkpt>
      <trkpt lat="49.39998" lon="1.41061">
        <ele>136</ele>
        <time>2026-07-15T13:48:00.866Z</time>
      </trkpt>
      <trkpt lat="49.4" lon="1.41061">
        <ele>136</ele>
        <time>2026-07-15T13:48:04.974Z</time>
      </trkpt>
      <trkpt lat="49.40005" lon="1.41058">
        <ele>136</ele>
        <time>2026-07-15T13:48:08.976Z</time>
      </trkpt>
      <trkpt lat="49.40009" lon="1.41057">
        <ele>136</ele>
        <time>2026-07-15T13:48:13.423Z</time>
      </trkpt>
      <trkpt lat="49.40013" lon="1.41057">
        <ele>136</ele>
        <time>2026-07-15T13:48:17.586Z</time>
      </trkpt>
      <trkpt lat="49.40018" lon="1.41058">
        <ele>137</ele>
        <time>2026-07-15T13:48:22.222Z</time>
      </trkpt>
      <trkpt lat="49.40023" lon="1.41059">
        <ele>137</ele>
        <time>2026-07-15T13:48:26.279Z</time>
      </trkpt>
      <trkpt lat="49.40027" lon="1.4106">
        <ele>137</ele>
        <time>2026-07-15T13:48:30.363Z</time>
      </trkpt>
      <trkpt lat="49.40032" lon="1.41059">
        <ele>137</ele>
        <time>2026-07-15T13:48:34.543Z</time>
      </trkpt>
      <trkpt lat="49.40035" lon="1.41059">
        <ele>137</ele>
        <time>2026-07-15T13:48:38.978Z</time>
      </trkpt>
      <trkpt lat="49.4004" lon="1.41059">
        <ele>137</ele>
        <time>2026-07-15T13:48:43.886Z</time>
      </trkpt>
      <trkpt lat="49.40041" lon="1.41062">
        <ele>137</ele>
        <time>2026-07-15T13:48:47.925Z</time>
      </trkpt>
      <trkpt lat="49.40045" lon="1.41063">
        <ele>138</ele>
        <time>2026-07-15T13:48:51.976Z</time>
      </trkpt>
      <trkpt lat="49.40049" lon="1.41063">
        <ele>138</ele>
        <time>2026-07-15T13:48:56.285Z</time>
      </trkpt>
      <trkpt lat="49.40054" lon="1.41061">
        <ele>138</ele>
        <time>2026-07-15T13:49:00.974Z</time>
      </trkpt>
      <trkpt lat="49.40058" lon="1.4106">
        <ele>138</ele>
        <time>2026-07-15T13:49:05.822Z</time>
      </trkpt>
      <trkpt lat="49.40062" lon="1.41059">
        <ele>138</ele>
        <time>2026-07-15T13:49:09.940Z</time>
      </trkpt>
      <trkpt lat="49.40067" lon="1.41058">
        <ele>138</ele>
        <time>2026-07-15T13:49:13.978Z</time>
      </trkpt>
      <trkpt lat="49.40071" lon="1.41057">
        <ele>139</ele>
        <time>2026-07-15T13:51:26.383Z</time>
      </trkpt>
      <trkpt lat="49.40075" lon="1.41056">
        <ele>139</ele>
        <time>2026-07-15T13:51:30.422Z</time>
      </trkpt>
      <trkpt lat="49.4008" lon="1.41056">
        <ele>139</ele>
        <time>2026-07-15T13:51:34.866Z</time>
      </trkpt>
      <trkpt lat="49.40084" lon="1.41057">
        <ele>139</ele>
        <time>2026-07-15T13:51:38.973Z</time>
      </trkpt>
      <trkpt lat="49.40088" lon="1.41056">
        <ele>139</ele>
        <time>2026-07-15T13:51:43.761Z</time>
      </trkpt>
      <trkpt lat="49.40099" lon="1.41057">
        <ele>141</ele>
        <time>2026-07-15T13:51:47.800Z</time>
      </trkpt>
      <trkpt lat="49.401" lon="1.41058">
        <ele>141</ele>
        <time>2026-07-15T13:51:51.945Z</time>
      </trkpt>
      <trkpt lat="49.40105" lon="1.41058">
        <ele>141</ele>
        <time>2026-07-15T13:51:56.441Z</time>
      </trkpt>
      <trkpt lat="49.4011" lon="1.41057">
        <ele>141</ele>
        <time>2026-07-15T13:52:00.884Z</time>
      </trkpt>
      <trkpt lat="49.40115" lon="1.41057">
        <ele>141</ele>
        <time>2026-07-15T13:52:04.974Z</time>
      </trkpt>
      <trkpt lat="49.40119" lon="1.41056">
        <ele>141</ele>
        <time>2026-07-15T13:52:09.622Z</time>
      </trkpt>
      <trkpt lat="49.40124" lon="1.41055">
        <ele>141</ele>
        <time>2026-07-15T13:52:13.819Z</time>
      </trkpt>
      <trkpt lat="49.40128" lon="1.41054">
        <ele>141</ele>
        <time>2026-07-15T13:52:18.245Z</time>
      </trkpt>
      <trkpt lat="49.40133" lon="1.41054">
        <ele>141</ele>
        <time>2026-07-15T13:52:22.627Z</time>
      </trkpt>
      <trkpt lat="49.40138" lon="1.41053">
        <ele>141</ele>
        <time>2026-07-15T13:52:27.202Z</time>
      </trkpt>
      <trkpt lat="49.40141" lon="1.41053">
        <ele>141</ele>
        <time>2026-07-15T13:52:31.522Z</time>
      </trkpt>
      <trkpt lat="49.40145" lon="1.41052">
        <ele>141</ele>
        <time>2026-07-15T13:52:35.921Z</time>
      </trkpt>
      <trkpt lat="49.4015" lon="1.4105">
        <ele>141</ele>
        <time>2026-07-15T13:52:40.321Z</time>
      </trkpt>
      <trkpt lat="49.40155" lon="1.4105">
        <ele>139</ele>
        <time>2026-07-15T13:52:44.747Z</time>
      </trkpt>
      <trkpt lat="49.40159" lon="1.41051">
        <ele>139</ele>
        <time>2026-07-15T13:52:49.199Z</time>
      </trkpt>
      <trkpt lat="49.40164" lon="1.41052">
        <ele>139</ele>
        <time>2026-07-15T13:52:53.738Z</time>
      </trkpt>
      <trkpt lat="49.40168" lon="1.41053">
        <ele>139</ele>
        <time>2026-07-15T13:52:57.975Z</time>
      </trkpt>
      <trkpt lat="49.40173" lon="1.41054">
        <ele>139</ele>
        <time>2026-07-15T13:53:02.520Z</time>
      </trkpt>
      <trkpt lat="49.40177" lon="1.41055">
        <ele>139</ele>
        <time>2026-07-15T13:53:06.945Z</time>
      </trkpt>
      <trkpt lat="49.40181" lon="1.41056">
        <ele>138</ele>
        <time>2026-07-15T13:53:11.380Z</time>
      </trkpt>
      <trkpt lat="49.40185" lon="1.41058">
        <ele>138</ele>
        <time>2026-07-15T13:53:15.727Z</time>
      </trkpt>
      <trkpt lat="49.40189" lon="1.41059">
        <ele>138</ele>
        <time>2026-07-15T13:53:20.284Z</time>
      </trkpt>
      <trkpt lat="49.40193" lon="1.41062">
        <ele>138</ele>
        <time>2026-07-15T13:53:24.666Z</time>
      </trkpt>
      <trkpt lat="49.40197" lon="1.41064">
        <ele>138</ele>
        <time>2026-07-15T13:53:28.973Z</time>
      </trkpt>
      <trkpt lat="49.40201" lon="1.41064">
        <ele>138</ele>
        <time>2026-07-15T13:53:33.500Z</time>
      </trkpt>
      <trkpt lat="49.40206" lon="1.41065">
        <ele>138</ele>
        <time>2026-07-15T13:53:37.882Z</time>
      </trkpt>
      <trkpt lat="49.4021" lon="1.41066">
        <ele>137</ele>
        <time>2026-07-15T13:53:42.342Z</time>
      </trkpt>
      <trkpt lat="49.40215" lon="1.41067">
        <ele>137</ele>
        <time>2026-07-15T13:53:46.663Z</time>
      </trkpt>
      <trkpt lat="49.40219" lon="1.41068">
        <ele>137</ele>
        <time>2026-07-15T13:53:50.975Z</time>
      </trkpt>
      <trkpt lat="49.40223" lon="1.4107">
        <ele>139</ele>
        <time>2026-07-15T13:53:55.523Z</time>
      </trkpt>
      <trkpt lat="49.40227" lon="1.41072">
        <ele>139</ele>
        <time>2026-07-15T13:53:59.975Z</time>
      </trkpt>
      <trkpt lat="49.40232" lon="1.41071">
        <ele>139</ele>
        <time>2026-07-15T13:54:04.225Z</time>
      </trkpt>
      <trkpt lat="49.40236" lon="1.41073">
        <ele>139</ele>
        <time>2026-07-15T13:54:08.361Z</time>
      </trkpt>
      <trkpt lat="49.40241" lon="1.41075">
        <ele>139</ele>
        <time>2026-07-15T13:54:12.760Z</time>
      </trkpt>
      <trkpt lat="49.40246" lon="1.41076">
        <ele>139</ele>
        <time>2026-07-15T13:54:16.940Z</time>
      </trkpt>
      <trkpt lat="49.4025" lon="1.41077">
        <ele>139</ele>
        <time>2026-07-15T13:54:21.418Z</time>
      </trkpt>
      <trkpt lat="49.40254" lon="1.41078">
        <ele>139</ele>
        <time>2026-07-15T13:54:25.844Z</time>
      </trkpt>
      <trkpt lat="49.40259" lon="1.41079">
        <ele>139</ele>
        <time>2026-07-15T13:54:30.340Z</time>
      </trkpt>
      <trkpt lat="49.40263" lon="1.4108">
        <ele>139</ele>
        <time>2026-07-15T13:54:34.766Z</time>
      </trkpt>
      <trkpt lat="49.40267" lon="1.41081">
        <ele>139</ele>
        <time>2026-07-15T13:54:39.385Z</time>
      </trkpt>
      <trkpt lat="49.40271" lon="1.41082">
        <ele>139</ele>
        <time>2026-07-15T13:54:43.881Z</time>
      </trkpt>
      <trkpt lat="49.40276" lon="1.41083">
        <ele>139</ele>
        <time>2026-07-15T13:54:48.447Z</time>
      </trkpt>
      <trkpt lat="49.4028" lon="1.41084">
        <ele>139</ele>
        <time>2026-07-15T13:54:52.864Z</time>
      </trkpt>
      <trkpt lat="49.40285" lon="1.41085">
        <ele>139</ele>
        <time>2026-07-15T13:54:57.386Z</time>
      </trkpt>
      <trkpt lat="49.40289" lon="1.41088">
        <ele>139</ele>
        <time>2026-07-15T13:55:16.974Z</time>
      </trkpt>
      <trkpt lat="49.40294" lon="1.41092">
        <ele>139</ele>
        <time>2026-07-15T13:55:21.446Z</time>
      </trkpt>
      <trkpt lat="49.40298" lon="1.41095">
        <ele>139</ele>
        <time>2026-07-15T13:55:25.722Z</time>
      </trkpt>
      <trkpt lat="49.40302" lon="1.41099">
        <ele>140</ele>
        <time>2026-07-15T13:55:29.920Z</time>
      </trkpt>
      <trkpt lat="49.40306" lon="1.41102">
        <ele>140</ele>
        <time>2026-07-15T13:55:34.126Z</time>
      </trkpt>
      <trkpt lat="49.4031" lon="1.41104">
        <ele>140</ele>
        <time>2026-07-15T13:55:38.446Z</time>
      </trkpt>
      <trkpt lat="49.40314" lon="1.41106">
        <ele>140</ele>
        <time>2026-07-15T13:55:42.679Z</time>
      </trkpt>
      <trkpt lat="49.40317" lon="1.41109">
        <ele>140</ele>
        <time>2026-07-15T13:55:47.104Z</time>
      </trkpt>
      <trkpt lat="49.40322" lon="1.4111">
        <ele>141</ele>
        <time>2026-07-15T13:55:51.626Z</time>
      </trkpt>
      <trkpt lat="49.40326" lon="1.41111">
        <ele>141</ele>
        <time>2026-07-15T13:55:55.938Z</time>
      </trkpt>
      <trkpt lat="49.40329" lon="1.41112">
        <ele>141</ele>
        <time>2026-07-15T13:56:00.381Z</time>
      </trkpt>
      <trkpt lat="49.40333" lon="1.41112">
        <ele>141</ele>
        <time>2026-07-15T13:56:04.842Z</time>
      </trkpt>
      <trkpt lat="49.40338" lon="1.41112">
        <ele>141</ele>
        <time>2026-07-15T13:56:09.803Z</time>
      </trkpt>
      <trkpt lat="49.40342" lon="1.41112">
        <ele>141</ele>
        <time>2026-07-15T13:56:13.979Z</time>
      </trkpt>
      <trkpt lat="49.40346" lon="1.41111">
        <ele>141</ele>
        <time>2026-07-15T13:56:18.584Z</time>
      </trkpt>
      <trkpt lat="49.40349" lon="1.41114">
        <ele>139</ele>
        <time>2026-07-15T13:56:22.940Z</time>
      </trkpt>
      <trkpt lat="49.40354" lon="1.41116">
        <ele>139</ele>
        <time>2026-07-15T13:56:27.322Z</time>
      </trkpt>
      <trkpt lat="49.40358" lon="1.41116">
        <ele>139</ele>
        <time>2026-07-15T13:56:31.659Z</time>
      </trkpt>
      <trkpt lat="49.40362" lon="1.41118">
        <ele>139</ele>
        <time>2026-07-15T13:56:35.962Z</time>
      </trkpt>
      <trkpt lat="49.40366" lon="1.41123">
        <ele>139</ele>
        <time>2026-07-15T13:56:40.520Z</time>
      </trkpt>
      <trkpt lat="49.4037" lon="1.41128">
        <ele>140</ele>
        <time>2026-07-15T13:56:44.840Z</time>
      </trkpt>
      <trkpt lat="49.40373" lon="1.41132">
        <ele>140</ele>
        <time>2026-07-15T13:56:48.974Z</time>
      </trkpt>
      <trkpt lat="49.40377" lon="1.41137">
        <ele>139</ele>
        <time>2026-07-15T13:56:53.559Z</time>
      </trkpt>
      <trkpt lat="49.4038" lon="1.41143">
        <ele>139</ele>
        <time>2026-07-15T13:56:57.972Z</time>
      </trkpt>
      <trkpt lat="49.40382" lon="1.41149">
        <ele>139</ele>
        <time>2026-07-15T13:57:02.463Z</time>
      </trkpt>
      <trkpt lat="49.40389" lon="1.41162">
        <ele>140</ele>
        <time>2026-07-15T13:57:06.766Z</time>
      </trkpt>
      <trkpt lat="49.40388" lon="1.41164">
        <ele>140</ele>
        <time>2026-07-15T13:57:10.973Z</time>
      </trkpt>
      <trkpt lat="49.40387" lon="1.41166">
        <ele>140</ele>
        <time>2026-07-15T13:57:15.345Z</time>
      </trkpt>
      <trkpt lat="49.40387" lon="1.41168">
        <ele>140</ele>
        <time>2026-07-15T13:57:19.639Z</time>
      </trkpt>
      <trkpt lat="49.40387" lon="1.41168">
        <ele>140</ele>
        <time>2026-07-15T13:57:23.973Z</time>
      </trkpt>
      <trkpt lat="49.40386" lon="1.41168">
        <ele>140</ele>
        <time>2026-07-15T13:57:28.482Z</time>
      </trkpt>
      <trkpt lat="49.40389" lon="1.41168">
        <ele>140</ele>
        <time>2026-07-15T13:57:32.802Z</time>
      </trkpt>
      <trkpt lat="49.40391" lon="1.4117">
        <ele>140</ele>
        <time>2026-07-15T13:57:37.184Z</time>
      </trkpt>
      <trkpt lat="49.40393" lon="1.41172">
        <ele>140</ele>
        <time>2026-07-15T13:57:41.618Z</time>
      </trkpt>
      <trkpt lat="49.40395" lon="1.41177">
        <ele>140</ele>
        <time>2026-07-15T13:57:45.973Z</time>
      </trkpt>
      <trkpt lat="49.40395" lon="1.41187">
        <ele>142</ele>
        <time>2026-07-15T13:57:50.742Z</time>
      </trkpt>
      <trkpt lat="49.40396" lon="1.41188">
        <ele>142</ele>
        <time>2026-07-15T13:57:54.975Z</time>
      </trkpt>
      <trkpt lat="49.40399" lon="1.41195">
        <ele>142</ele>
        <time>2026-07-15T13:57:59.584Z</time>
      </trkpt>
      <trkpt lat="49.40399" lon="1.41196">
        <ele>142</ele>
        <time>2026-07-15T13:58:03.975Z</time>
      </trkpt>
      <trkpt lat="49.40402" lon="1.41203">
        <ele>142</ele>
        <time>2026-07-15T13:58:08.260Z</time>
      </trkpt>
      <trkpt lat="49.40404" lon="1.41211">
        <ele>143</ele>
        <time>2026-07-15T13:58:12.606Z</time>
      </trkpt>
      <trkpt lat="49.40405" lon="1.41218">
        <ele>143</ele>
        <time>2026-07-15T13:58:16.883Z</time>
      </trkpt>
      <trkpt lat="49.40404" lon="1.41226">
        <ele>143</ele>
        <time>2026-07-15T13:58:21.202Z</time>
      </trkpt>
      <trkpt lat="49.40405" lon="1.41232">
        <ele>143</ele>
        <time>2026-07-15T13:58:25.681Z</time>
      </trkpt>
      <trkpt lat="49.40403" lon="1.41236">
        <ele>144</ele>
        <time>2026-07-15T13:58:29.973Z</time>
      </trkpt>
      <trkpt lat="49.40403" lon="1.41244">
        <ele>144</ele>
        <time>2026-07-15T13:58:34.901Z</time>
      </trkpt>
      <trkpt lat="49.40404" lon="1.41251">
        <ele>144</ele>
        <time>2026-07-15T13:58:39.266Z</time>
      </trkpt>
      <trkpt lat="49.40405" lon="1.41258">
        <ele>144</ele>
        <time>2026-07-15T13:58:43.700Z</time>
      </trkpt>
      <trkpt lat="49.40406" lon="1.41264">
        <ele>144</ele>
        <time>2026-07-15T13:58:48.222Z</time>
      </trkpt>
      <trkpt lat="49.40407" lon="1.41271">
        <ele>144</ele>
        <time>2026-07-15T13:58:52.560Z</time>
      </trkpt>
      <trkpt lat="49.40409" lon="1.41279">
        <ele>144</ele>
        <time>2026-07-15T13:58:56.959Z</time>
      </trkpt>
      <trkpt lat="49.4041" lon="1.41285">
        <ele>144</ele>
        <time>2026-07-15T13:59:01.402Z</time>
      </trkpt>
      <trkpt lat="49.40409" lon="1.4129">
        <ele>144</ele>
        <time>2026-07-15T13:59:05.784Z</time>
      </trkpt>
      <trkpt lat="49.4041" lon="1.41297">
        <ele>146</ele>
        <time>2026-07-15T13:59:09.970Z</time>
      </trkpt>
      <trkpt lat="49.40411" lon="1.41304">
        <ele>146</ele>
        <time>2026-07-15T13:59:13.973Z</time>
      </trkpt>
      <trkpt lat="49.40412" lon="1.41311">
        <ele>146</ele>
        <time>2026-07-15T13:59:17.972Z</time>
      </trkpt>
      <trkpt lat="49.40412" lon="1.41317">
        <ele>146</ele>
        <time>2026-07-15T13:59:22.705Z</time>
      </trkpt>
      <trkpt lat="49.40412" lon="1.41322">
        <ele>147</ele>
        <time>2026-07-15T13:59:26.972Z</time>
      </trkpt>
      <trkpt lat="49.40413" lon="1.41327">
        <ele>147</ele>
        <time>2026-07-15T13:59:30.976Z</time>
      </trkpt>
      <trkpt lat="49.40412" lon="1.41334">
        <ele>147</ele>
        <time>2026-07-15T13:59:35.280Z</time>
      </trkpt>
      <trkpt lat="49.40412" lon="1.41342">
        <ele>147</ele>
        <time>2026-07-15T13:59:39.820Z</time>
      </trkpt>
      <trkpt lat="49.40412" lon="1.41349">
        <ele>148</ele>
        <time>2026-07-15T13:59:44.140Z</time>
      </trkpt>
      <trkpt lat="49.40412" lon="1.41356">
        <ele>148</ele>
        <time>2026-07-15T13:59:48.786Z</time>
      </trkpt>
      <trkpt lat="49.40412" lon="1.41364">
        <ele>148</ele>
        <time>2026-07-15T13:59:53.088Z</time>
      </trkpt>
      <trkpt lat="49.40413" lon="1.41372">
        <ele>148</ele>
        <time>2026-07-15T13:59:57.760Z</time>
      </trkpt>
      <trkpt lat="49.40414" lon="1.41378">
        <ele>149</ele>
        <time>2026-07-15T14:00:02.221Z</time>
      </trkpt>
      <trkpt lat="49.40415" lon="1.41385">
        <ele>149</ele>
        <time>2026-07-15T14:00:06.744Z</time>
      </trkpt>
      <trkpt lat="49.40416" lon="1.41392">
        <ele>149</ele>
        <time>2026-07-15T14:00:11.284Z</time>
      </trkpt>
      <trkpt lat="49.40418" lon="1.41399">
        <ele>149</ele>
        <time>2026-07-15T14:00:15.975Z</time>
      </trkpt>
      <trkpt lat="49.40419" lon="1.41406">
        <ele>149</ele>
        <time>2026-07-15T14:00:52.973Z</time>
      </trkpt>
      <trkpt lat="49.40419" lon="1.41413">
        <ele>149</ele>
        <time>2026-07-15T14:00:57.970Z</time>
      </trkpt>
      <trkpt lat="49.4042" lon="1.41418">
        <ele>149</ele>
        <time>2026-07-15T14:01:01.971Z</time>
      </trkpt>
      <trkpt lat="49.40421" lon="1.41426">
        <ele>149</ele>
        <time>2026-07-15T14:01:06.970Z</time>
      </trkpt>
      <trkpt lat="49.40423" lon="1.41431">
        <ele>149</ele>
        <time>2026-07-15T14:01:10.972Z</time>
      </trkpt>
      <trkpt lat="49.40424" lon="1.41434">
        <ele>149</ele>
        <time>2026-07-15T14:14:00.968Z</time>
      </trkpt>
      <trkpt lat="49.40424" lon="1.41442">
        <ele>149</ele>
        <time>2026-07-15T14:14:05.973Z</time>
      </trkpt>
      <trkpt lat="49.40424" lon="1.4145">
        <ele>149</ele>
        <time>2026-07-15T14:14:09.969Z</time>
      </trkpt>
      <trkpt lat="49.40425" lon="1.41458">
        <ele>149</ele>
        <time>2026-07-15T14:14:13.973Z</time>
      </trkpt>
      <trkpt lat="49.40426" lon="1.41467">
        <ele>150</ele>
        <time>2026-07-15T14:14:18.322Z</time>
      </trkpt>
      <trkpt lat="49.40425" lon="1.41475">
        <ele>150</ele>
        <time>2026-07-15T14:14:35.971Z</time>
      </trkpt>
      <trkpt lat="49.40426" lon="1.41482">
        <ele>150</ele>
        <time>2026-07-15T14:14:40.346Z</time>
      </trkpt>
      <trkpt lat="49.40426" lon="1.41489">
        <ele>150</ele>
        <time>2026-07-15T14:14:44.622Z</time>
      </trkpt>
      <trkpt lat="49.40426" lon="1.41496">
        <ele>150</ele>
        <time>2026-07-15T14:14:48.785Z</time>
      </trkpt>
      <trkpt lat="49.40426" lon="1.41503">
        <ele>150</ele>
        <time>2026-07-15T14:14:52.967Z</time>
      </trkpt>
      <trkpt lat="49.40426" lon="1.4151">
        <ele>150</ele>
        <time>2026-07-15T14:14:57.364Z</time>
      </trkpt>
      <trkpt lat="49.40427" lon="1.41518">
        <ele>150</ele>
        <time>2026-07-15T14:15:01.606Z</time>
      </trkpt>
      <trkpt lat="49.40428" lon="1.41527">
        <ele>150</ele>
        <time>2026-07-15T14:15:06.365Z</time>
      </trkpt>
      <trkpt lat="49.40428" lon="1.41533">
        <ele>150</ele>
        <time>2026-07-15T14:15:10.642Z</time>
      </trkpt>
      <trkpt lat="49.4043" lon="1.41542">
        <ele>149</ele>
        <time>2026-07-15T14:15:14.970Z</time>
      </trkpt>
      <trkpt lat="49.40431" lon="1.41547">
        <ele>149</ele>
        <time>2026-07-15T14:15:19.564Z</time>
      </trkpt>
      <trkpt lat="49.40432" lon="1.41554">
        <ele>149</ele>
        <time>2026-07-15T14:15:23.971Z</time>
      </trkpt>
      <trkpt lat="49.40432" lon="1.41561">
        <ele>149</ele>
        <time>2026-07-15T14:15:28.363Z</time>
      </trkpt>
      <trkpt lat="49.40432" lon="1.41568">
        <ele>149</ele>
        <time>2026-07-15T14:15:32.971Z</time>
      </trkpt>
      <trkpt lat="49.40431" lon="1.41576">
        <ele>148</ele>
        <time>2026-07-15T14:15:37.118Z</time>
      </trkpt>
      <trkpt lat="49.40432" lon="1.41583">
        <ele>148</ele>
        <time>2026-07-15T14:15:41.764Z</time>
      </trkpt>
      <trkpt lat="49.40435" lon="1.41588">
        <ele>148</ele>
        <time>2026-07-15T14:15:45.961Z</time>
      </trkpt>
      <trkpt lat="49.40436" lon="1.41587">
        <ele>148</ele>
        <time>2026-07-15T14:15:49.968Z</time>
      </trkpt>
      <trkpt lat="49.40436" lon="1.41586">
        <ele>148</ele>
        <time>2026-07-15T14:15:53.970Z</time>
      </trkpt>
      <trkpt lat="49.40436" lon="1.41588">
        <ele>148</ele>
        <time>2026-07-15T14:15:58.519Z</time>
      </trkpt>
      <trkpt lat="49.40436" lon="1.41597">
        <ele>148</ele>
        <time>2026-07-15T14:16:02.971Z</time>
      </trkpt>
      <trkpt lat="49.40438" lon="1.41605">
        <ele>148</ele>
        <time>2026-07-15T14:16:07.869Z</time>
      </trkpt>
      <trkpt lat="49.40439" lon="1.41614">
        <ele>148</ele>
        <time>2026-07-15T14:16:11.970Z</time>
      </trkpt>
      <trkpt lat="49.40441" lon="1.41621">
        <ele>148</ele>
        <time>2026-07-15T14:16:16.406Z</time>
      </trkpt>
      <trkpt lat="49.40442" lon="1.41628">
        <ele>149</ele>
        <time>2026-07-15T14:16:20.621Z</time>
      </trkpt>
      <trkpt lat="49.40442" lon="1.41635">
        <ele>149</ele>
        <time>2026-07-15T14:16:24.971Z</time>
      </trkpt>
      <trkpt lat="49.40442" lon="1.41643">
        <ele>149</ele>
        <time>2026-07-15T14:16:29.280Z</time>
      </trkpt>
      <trkpt lat="49.40442" lon="1.41651">
        <ele>149</ele>
        <time>2026-07-15T14:16:33.898Z</time>
      </trkpt>
      <trkpt lat="49.40442" lon="1.41658">
        <ele>150</ele>
        <time>2026-07-15T14:16:38.971Z</time>
      </trkpt>
      <trkpt lat="49.40443" lon="1.41665">
        <ele>150</ele>
        <time>2026-07-15T14:16:43.927Z</time>
      </trkpt>
      <trkpt lat="49.40444" lon="1.41672">
        <ele>150</ele>
        <time>2026-07-15T14:16:48.106Z</time>
      </trkpt>
      <trkpt lat="49.40444" lon="1.41679">
        <ele>150</ele>
        <time>2026-07-15T14:16:52.427Z</time>
      </trkpt>
      <trkpt lat="49.40444" lon="1.41686">
        <ele>150</ele>
        <time>2026-07-15T14:16:56.686Z</time>
      </trkpt>
      <trkpt lat="49.40445" lon="1.41694">
        <ele>150</ele>
        <time>2026-07-15T14:17:00.972Z</time>
      </trkpt>
      <trkpt lat="49.40446" lon="1.41701">
        <ele>150</ele>
        <time>2026-07-15T14:17:05.844Z</time>
      </trkpt>
      <trkpt lat="49.40447" lon="1.41708">
        <ele>150</ele>
        <time>2026-07-15T14:17:10.103Z</time>
      </trkpt>
      <trkpt lat="49.40447" lon="1.41715">
        <ele>150</ele>
        <time>2026-07-15T14:17:14.519Z</time>
      </trkpt>
      <trkpt lat="49.40448" lon="1.41723">
        <ele>150</ele>
        <time>2026-07-15T14:17:18.970Z</time>
      </trkpt>
      <trkpt lat="49.4045" lon="1.4173">
        <ele>150</ele>
        <time>2026-07-15T14:17:22.971Z</time>
      </trkpt>
      <trkpt lat="49.4045" lon="1.41737">
        <ele>150</ele>
        <time>2026-07-15T14:17:27.323Z</time>
      </trkpt>
      <trkpt lat="49.40452" lon="1.41745">
        <ele>150</ele>
        <time>2026-07-15T14:17:31.380Z</time>
      </trkpt>
      <trkpt lat="49.40453" lon="1.41748">
        <ele>150</ele>
        <time>2026-07-15T14:17:35.884Z</time>
      </trkpt>
      <trkpt lat="49.40453" lon="1.41758">
        <ele>150</ele>
        <time>2026-07-15T14:17:40.740Z</time>
      </trkpt>
      <trkpt lat="49.40454" lon="1.41766">
        <ele>150</ele>
        <time>2026-07-15T14:17:45.969Z</time>
      </trkpt>
      <trkpt lat="49.40455" lon="1.41773">
        <ele>150</ele>
        <time>2026-07-15T14:17:50.804Z</time>
      </trkpt>
      <trkpt lat="49.40456" lon="1.4178">
        <ele>150</ele>
        <time>2026-07-15T14:17:54.969Z</time>
      </trkpt>
      <trkpt lat="49.40457" lon="1.41788">
        <ele>150</ele>
        <time>2026-07-15T14:17:59.523Z</time>
      </trkpt>
      <trkpt lat="49.40457" lon="1.41795">
        <ele>151</ele>
        <time>2026-07-15T14:18:03.923Z</time>
      </trkpt>
      <trkpt lat="49.40457" lon="1.41802">
        <ele>151</ele>
        <time>2026-07-15T14:18:08.154Z</time>
      </trkpt>
      <trkpt lat="49.40457" lon="1.41808">
        <ele>151</ele>
        <time>2026-07-15T14:18:12.300Z</time>
      </trkpt>
      <trkpt lat="49.40458" lon="1.41816">
        <ele>151</ele>
        <time>2026-07-15T14:18:16.970Z</time>
      </trkpt>
      <trkpt lat="49.40458" lon="1.41823">
        <ele>152</ele>
        <time>2026-07-15T14:18:21.880Z</time>
      </trkpt>
      <trkpt lat="49.40459" lon="1.4183">
        <ele>152</ele>
        <time>2026-07-15T14:18:25.970Z</time>
      </trkpt>
      <trkpt lat="49.4046" lon="1.41838">
        <ele>152</ele>
        <time>2026-07-15T14:18:30.582Z</time>
      </trkpt>
      <trkpt lat="49.4046" lon="1.41844">
        <ele>152</ele>
        <time>2026-07-15T14:18:34.976Z</time>
      </trkpt>
      <trkpt lat="49.4046" lon="1.41852">
        <ele>153</ele>
        <time>2026-07-15T14:18:39.240Z</time>
      </trkpt>
      <trkpt lat="49.4046" lon="1.4186">
        <ele>153</ele>
        <time>2026-07-15T14:18:43.946Z</time>
      </trkpt>
      <trkpt lat="49.4046" lon="1.41867">
        <ele>153</ele>
        <time>2026-07-15T14:18:48.820Z</time>
      </trkpt>
      <trkpt lat="49.40461" lon="1.41874">
        <ele>153</ele>
        <time>2026-07-15T14:18:53.544Z</time>
      </trkpt>
      <trkpt lat="49.40462" lon="1.41882">
        <ele>153</ele>
        <time>2026-07-15T14:18:58.365Z</time>
      </trkpt>
      <trkpt lat="49.40463" lon="1.41889">
        <ele>153</ele>
        <time>2026-07-15T14:19:02.940Z</time>
      </trkpt>
      <trkpt lat="49.40464" lon="1.41896">
        <ele>153</ele>
        <time>2026-07-15T14:20:11.702Z</time>
      </trkpt>
      <trkpt lat="49.40465" lon="1.41904">
        <ele>152</ele>
        <time>2026-07-15T14:20:15.966Z</time>
      </trkpt>
      <trkpt lat="49.40465" lon="1.41912">
        <ele>152</ele>
        <time>2026-07-15T14:20:20.479Z</time>
      </trkpt>
      <trkpt lat="49.40464" lon="1.41918">
        <ele>152</ele>
        <time>2026-07-15T14:20:24.861Z</time>
      </trkpt>
      <trkpt lat="49.40465" lon="1.41925">
        <ele>152</ele>
        <time>2026-07-15T14:20:29.401Z</time>
      </trkpt>
      <trkpt lat="49.40465" lon="1.41932">
        <ele>151</ele>
        <time>2026-07-15T14:20:33.942Z</time>
      </trkpt>
      <trkpt lat="49.40466" lon="1.41939">
        <ele>151</ele>
        <time>2026-07-15T14:20:37.968Z</time>
      </trkpt>
      <trkpt lat="49.40466" lon="1.41946">
        <ele>151</ele>
        <time>2026-07-15T14:20:42.161Z</time>
      </trkpt>
      <trkpt lat="49.40467" lon="1.41953">
        <ele>151</ele>
        <time>2026-07-15T14:20:46.306Z</time>
      </trkpt>
      <trkpt lat="49.40468" lon="1.41965">
        <ele>151</ele>
        <time>2026-07-15T14:20:50.364Z</time>
      </trkpt>
      <trkpt lat="49.40469" lon="1.41965">
        <ele>151</ele>
        <time>2026-07-15T14:20:54.579Z</time>
      </trkpt>
      <trkpt lat="49.40474" lon="1.41963">
        <ele>151</ele>
        <time>2026-07-15T14:20:58.601Z</time>
      </trkpt>
      <trkpt lat="49.40477" lon="1.41962">
        <ele>151</ele>
        <time>2026-07-15T14:21:02.640Z</time>
      </trkpt>
      <trkpt lat="49.40477" lon="1.41962">
        <ele>151</ele>
        <time>2026-07-15T14:21:06.882Z</time>
      </trkpt>
      <trkpt lat="49.40477" lon="1.41962">
        <ele>151</ele>
        <time>2026-07-15T14:21:10.966Z</time>
      </trkpt>
      <trkpt lat="49.40475" lon="1.41965">
        <ele>151</ele>
        <time>2026-07-15T14:21:14.969Z</time>
      </trkpt>
      <trkpt lat="49.40471" lon="1.41968">
        <ele>151</ele>
        <time>2026-07-15T14:21:19.282Z</time>
      </trkpt>
      <trkpt lat="49.40469" lon="1.41969">
        <ele>151</ele>
        <time>2026-07-15T14:21:23.321Z</time>
      </trkpt>
      <trkpt lat="49.40468" lon="1.41968">
        <ele>151</ele>
        <time>2026-07-15T14:21:27.466Z</time>
      </trkpt>
      <trkpt lat="49.40467" lon="1.41967">
        <ele>151</ele>
        <time>2026-07-15T14:21:31.541Z</time>
      </trkpt>
      <trkpt lat="49.40468" lon="1.41967">
        <ele>151</ele>
        <time>2026-07-15T14:21:35.580Z</time>
      </trkpt>
      <trkpt lat="49.40467" lon="1.41977">
        <ele>151</ele>
        <time>2026-07-15T14:21:39.664Z</time>
      </trkpt>
      <trkpt lat="49.40468" lon="1.41983">
        <ele>151</ele>
        <time>2026-07-15T14:21:43.764Z</time>
      </trkpt>
      <trkpt lat="49.40467" lon="1.41992">
        <ele>150</ele>
        <time>2026-07-15T14:21:47.900Z</time>
      </trkpt>
      <trkpt lat="49.40466" lon="1.42">
        <ele>150</ele>
        <time>2026-07-15T14:21:51.968Z</time>
      </trkpt>
      <trkpt lat="49.40467" lon="1.42008">
        <ele>150</ele>
        <time>2026-07-15T14:21:56.120Z</time>
      </trkpt>
      <trkpt lat="49.40466" lon="1.42015">
        <ele>150</ele>
        <time>2026-07-15T14:22:00.264Z</time>
      </trkpt>
      <trkpt lat="49.40466" lon="1.42023">
        <ele>150</ele>
        <time>2026-07-15T14:22:04.304Z</time>
      </trkpt>
      <trkpt lat="49.40466" lon="1.42029">
        <ele>150</ele>
        <time>2026-07-15T14:22:08.405Z</time>
      </trkpt>
      <trkpt lat="49.40465" lon="1.42036">
        <ele>150</ele>
        <time>2026-07-15T14:22:12.505Z</time>
      </trkpt>
      <trkpt lat="49.40464" lon="1.42042">
        <ele>149</ele>
        <time>2026-07-15T14:22:16.703Z</time>
      </trkpt>
      <trkpt lat="49.40463" lon="1.42049">
        <ele>149</ele>
        <time>2026-07-15T14:22:20.760Z</time>
      </trkpt>
      <trkpt lat="49.40463" lon="1.42055">
        <ele>149</ele>
        <time>2026-07-15T14:22:24.878Z</time>
      </trkpt>
      <trkpt lat="49.40463" lon="1.42062">
        <ele>149</ele>
        <time>2026-07-15T14:22:28.971Z</time>
      </trkpt>
      <trkpt lat="49.40463" lon="1.42069">
        <ele>149</ele>
        <time>2026-07-15T14:22:33.203Z</time>
      </trkpt>
      <trkpt lat="49.40463" lon="1.42077">
        <ele>149</ele>
        <time>2026-07-15T14:22:37.339Z</time>
      </trkpt>
      <trkpt lat="49.40462" lon="1.42084">
        <ele>149</ele>
        <time>2026-07-15T14:22:41.483Z</time>
      </trkpt>
      <trkpt lat="49.40462" lon="1.42092">
        <ele>149</ele>
        <time>2026-07-15T14:22:45.495Z</time>
      </trkpt>
      <trkpt lat="49.40463" lon="1.42099">
        <ele>151</ele>
        <time>2026-07-15T14:22:49.799Z</time>
      </trkpt>
      <trkpt lat="49.40463" lon="1.42107">
        <ele>151</ele>
        <time>2026-07-15T14:22:53.864Z</time>
      </trkpt>
      <trkpt lat="49.40462" lon="1.42113">
        <ele>151</ele>
        <time>2026-07-15T14:22:57.967Z</time>
      </trkpt>
      <trkpt lat="49.40462" lon="1.4212">
        <ele>151</ele>
        <time>2026-07-15T14:23:02.040Z</time>
      </trkpt>
      <trkpt lat="49.40462" lon="1.42127">
        <ele>152</ele>
        <time>2026-07-15T14:23:06.123Z</time>
      </trkpt>
      <trkpt lat="49.40461" lon="1.42134">
        <ele>152</ele>
        <time>2026-07-15T14:23:10.320Z</time>
      </trkpt>
      <trkpt lat="49.4046" lon="1.4214">
        <ele>152</ele>
        <time>2026-07-15T14:23:14.623Z</time>
      </trkpt>
      <trkpt lat="49.4046" lon="1.42147">
        <ele>152</ele>
        <time>2026-07-15T14:23:19.180Z</time>
      </trkpt>
      <trkpt lat="49.40459" lon="1.42154">
        <ele>153</ele>
        <time>2026-07-15T14:23:23.281Z</time>
      </trkpt>
      <trkpt lat="49.40459" lon="1.42162">
        <ele>153</ele>
        <time>2026-07-15T14:23:27.382Z</time>
      </trkpt>
      <trkpt lat="49.40458" lon="1.42168">
        <ele>152</ele>
        <time>2026-07-15T14:23:31.500Z</time>
      </trkpt>
      <trkpt lat="49.40458" lon="1.42175">
        <ele>152</ele>
        <time>2026-07-15T14:23:35.662Z</time>
      </trkpt>
      <trkpt lat="49.40458" lon="1.42182">
        <ele>152</ele>
        <time>2026-07-15T14:23:39.780Z</time>
      </trkpt>
      <trkpt lat="49.40457" lon="1.42188">
        <ele>152</ele>
        <time>2026-07-15T14:23:43.943Z</time>
      </trkpt>
      <trkpt lat="49.40456" lon="1.42194">
        <ele>152</ele>
        <time>2026-07-15T14:23:48.166Z</time>
      </trkpt>
      <trkpt lat="49.40455" lon="1.42201">
        <ele>152</ele>
        <time>2026-07-15T14:24:01.970Z</time>
      </trkpt>
      <trkpt lat="49.40455" lon="1.42208">
        <ele>152</ele>
        <time>2026-07-15T14:24:06.580Z</time>
      </trkpt>
      <trkpt lat="49.40454" lon="1.42215">
        <ele>153</ele>
        <time>2026-07-15T14:24:10.970Z</time>
      </trkpt>
      <trkpt lat="49.40454" lon="1.42222">
        <ele>153</ele>
        <time>2026-07-15T14:24:15.969Z</time>
      </trkpt>
      <trkpt lat="49.40453" lon="1.42229">
        <ele>153</ele>
        <time>2026-07-15T14:24:20.973Z</time>
      </trkpt>
      <trkpt lat="49.40452" lon="1.42236">
        <ele>153</ele>
        <time>2026-07-15T14:24:44.964Z</time>
      </trkpt>
      <trkpt lat="49.40452" lon="1.42241">
        <ele>155</ele>
        <time>2026-07-15T14:24:49.552Z</time>
      </trkpt>
      <trkpt lat="49.40452" lon="1.42249">
        <ele>155</ele>
        <time>2026-07-15T14:24:53.965Z</time>
      </trkpt>
      <trkpt lat="49.40453" lon="1.42257">
        <ele>155</ele>
        <time>2026-07-15T14:24:57.966Z</time>
      </trkpt>
      <trkpt lat="49.40454" lon="1.42265">
        <ele>157</ele>
        <time>2026-07-15T14:25:02.967Z</time>
      </trkpt>
      <trkpt lat="49.40455" lon="1.42274">
        <ele>157</ele>
        <time>2026-07-15T14:26:06.970Z</time>
      </trkpt>
      <trkpt lat="49.40456" lon="1.42281">
        <ele>157</ele>
        <time>2026-07-15T14:26:11.591Z</time>
      </trkpt>
      <trkpt lat="49.40457" lon="1.42288">
        <ele>157</ele>
        <time>2026-07-15T14:26:15.613Z</time>
      </trkpt>
      <trkpt lat="49.40457" lon="1.42295">
        <ele>158</ele>
        <time>2026-07-15T14:26:19.671Z</time>
      </trkpt>
      <trkpt lat="49.40458" lon="1.42299">
        <ele>158</ele>
        <time>2026-07-15T14:26:23.789Z</time>
      </trkpt>
      <trkpt lat="49.40458" lon="1.42307">
        <ele>158</ele>
        <time>2026-07-15T14:26:28.250Z</time>
      </trkpt>
      <trkpt lat="49.40457" lon="1.42315">
        <ele>158</ele>
        <time>2026-07-15T14:26:32.457Z</time>
      </trkpt>
      <trkpt lat="49.40456" lon="1.42322">
        <ele>157</ele>
        <time>2026-07-15T14:26:36.637Z</time>
      </trkpt>
      <trkpt lat="49.40455" lon="1.42328">
        <ele>157</ele>
        <time>2026-07-15T14:26:40.852Z</time>
      </trkpt>
      <trkpt lat="49.40455" lon="1.42334">
        <ele>157</ele>
        <time>2026-07-15T14:26:44.968Z</time>
      </trkpt>
      <trkpt lat="49.40455" lon="1.42342">
        <ele>157</ele>
        <time>2026-07-15T14:26:49.256Z</time>
      </trkpt>
      <trkpt lat="49.40454" lon="1.4235">
        <ele>157</ele>
        <time>2026-07-15T14:26:53.357Z</time>
      </trkpt>
      <trkpt lat="49.40454" lon="1.42356">
        <ele>157</ele>
        <time>2026-07-15T14:26:57.616Z</time>
      </trkpt>
      <trkpt lat="49.40453" lon="1.42363">
        <ele>157</ele>
        <time>2026-07-15T14:27:01.629Z</time>
      </trkpt>
      <trkpt lat="49.40452" lon="1.42368">
        <ele>157</ele>
        <time>2026-07-15T14:27:05.914Z</time>
      </trkpt>
      <trkpt lat="49.4045" lon="1.42369">
        <ele>157</ele>
        <time>2026-07-15T14:27:10.235Z</time>
      </trkpt>
      <trkpt lat="49.40444" lon="1.42367">
        <ele>157</ele>
        <time>2026-07-15T14:27:14.371Z</time>
      </trkpt>
      <trkpt lat="49.40442" lon="1.42375">
        <ele>157</ele>
        <time>2026-07-15T14:27:18.577Z</time>
      </trkpt>
      <trkpt lat="49.40445" lon="1.42382">
        <ele>157</ele>
        <time>2026-07-15T14:27:22.792Z</time>
      </trkpt>
      <trkpt lat="49.40449" lon="1.42387">
        <ele>157</ele>
        <time>2026-07-15T14:27:26.966Z</time>
      </trkpt>
      <trkpt lat="49.40449" lon="1.42389">
        <ele>157</ele>
        <time>2026-07-15T14:27:31.336Z</time>
      </trkpt>
      <trkpt lat="49.40448" lon="1.42398">
        <ele>157</ele>
        <time>2026-07-15T14:27:35.472Z</time>
      </trkpt>
      <trkpt lat="49.40449" lon="1.42406">
        <ele>157</ele>
        <time>2026-07-15T14:27:39.669Z</time>
      </trkpt>
      <trkpt lat="49.40449" lon="1.42412">
        <ele>157</ele>
        <time>2026-07-15T14:27:43.971Z</time>
      </trkpt>
      <trkpt lat="49.40449" lon="1.42416">
        <ele>157</ele>
        <time>2026-07-15T14:27:48.310Z</time>
      </trkpt>
      <trkpt lat="49.40448" lon="1.42423">
        <ele>157</ele>
        <time>2026-07-15T14:27:52.552Z</time>
      </trkpt>
      <trkpt lat="49.40448" lon="1.42431">
        <ele>158</ele>
        <time>2026-07-15T14:27:56.872Z</time>
      </trkpt>
      <trkpt lat="49.4045" lon="1.42438">
        <ele>158</ele>
        <time>2026-07-15T14:28:01.157Z</time>
      </trkpt>
      <trkpt lat="49.4045" lon="1.42444">
        <ele>158</ele>
        <time>2026-07-15T14:28:05.372Z</time>
      </trkpt>
      <trkpt lat="49.4045" lon="1.42451">
        <ele>158</ele>
        <time>2026-07-15T14:28:09.596Z</time>
      </trkpt>
      <trkpt lat="49.4045" lon="1.42458">
        <ele>158</ele>
        <time>2026-07-15T14:28:13.811Z</time>
      </trkpt>
      <trkpt lat="49.4045" lon="1.42465">
        <ele>159</ele>
        <time>2026-07-15T14:28:18.193Z</time>
      </trkpt>
      <trkpt lat="49.40449" lon="1.42472">
        <ele>159</ele>
        <time>2026-07-15T14:28:22.592Z</time>
      </trkpt>
      <trkpt lat="49.40448" lon="1.42478">
        <ele>159</ele>
        <time>2026-07-15T14:28:26.965Z</time>
      </trkpt>
      <trkpt lat="49.40447" lon="1.42484">
        <ele>159</ele>
        <time>2026-07-15T14:28:31.435Z</time>
      </trkpt>
      <trkpt lat="49.40447" lon="1.42491">
        <ele>160</ele>
        <time>2026-07-15T14:28:35.967Z</time>
      </trkpt>
      <trkpt lat="49.40447" lon="1.42498">
        <ele>160</ele>
        <time>2026-07-15T14:28:40.472Z</time>
      </trkpt>
      <trkpt lat="49.40446" lon="1.42505">
        <ele>160</ele>
        <time>2026-07-15T14:28:44.792Z</time>
      </trkpt>
      <trkpt lat="49.40446" lon="1.42512">
        <ele>160</ele>
        <time>2026-07-15T14:28:48.967Z</time>
      </trkpt>
      <trkpt lat="49.40445" lon="1.42518">
        <ele>161</ele>
        <time>2026-07-15T14:28:53.512Z</time>
      </trkpt>
      <trkpt lat="49.40443" lon="1.42525">
        <ele>161</ele>
        <time>2026-07-15T14:28:57.969Z</time>
      </trkpt>
      <trkpt lat="49.40443" lon="1.42532">
        <ele>161</ele>
        <time>2026-07-15T14:29:02.531Z</time>
      </trkpt>
      <trkpt lat="49.40443" lon="1.42539">
        <ele>161</ele>
        <time>2026-07-15T14:29:06.957Z</time>
      </trkpt>
      <trkpt lat="49.40443" lon="1.42546">
        <ele>161</ele>
        <time>2026-07-15T14:29:11.268Z</time>
      </trkpt>
      <trkpt lat="49.40443" lon="1.42552">
        <ele>161</ele>
        <time>2026-07-15T14:29:15.817Z</time>
      </trkpt>
      <trkpt lat="49.40444" lon="1.42559">
        <ele>161</ele>
        <time>2026-07-15T14:29:20.436Z</time>
      </trkpt>
      <trkpt lat="49.40443" lon="1.42566">
        <ele>161</ele>
        <time>2026-07-15T14:29:24.968Z</time>
      </trkpt>
      <trkpt lat="49.40442" lon="1.42573">
        <ele>162</ele>
        <time>2026-07-15T14:29:29.832Z</time>
      </trkpt>
      <trkpt lat="49.40442" lon="1.4258">
        <ele>162</ele>
        <time>2026-07-15T14:29:33.968Z</time>
      </trkpt>
      <trkpt lat="49.40442" lon="1.42587">
        <ele>162</ele>
        <time>2026-07-15T14:29:38.350Z</time>
      </trkpt>
      <trkpt lat="49.40442" lon="1.42594">
        <ele>162</ele>
        <time>2026-07-15T14:29:42.556Z</time>
      </trkpt>
      <trkpt lat="49.40442" lon="1.42602">
        <ele>163</ele>
        <time>2026-07-15T14:29:46.850Z</time>
      </trkpt>
      <trkpt lat="49.40442" lon="1.42608">
        <ele>163</ele>
        <time>2026-07-15T14:29:50.965Z</time>
      </trkpt>
      <trkpt lat="49.40441" lon="1.42615">
        <ele>163</ele>
        <time>2026-07-15T14:29:54.955Z</time>
      </trkpt>
      <trkpt lat="49.40441" lon="1.42622">
        <ele>163</ele>
        <time>2026-07-15T14:29:59.890Z</time>
      </trkpt>
      <trkpt lat="49.4044" lon="1.42629">
        <ele>165</ele>
        <time>2026-07-15T14:30:04.334Z</time>
      </trkpt>
      <trkpt lat="49.40439" lon="1.42636">
        <ele>165</ele>
        <time>2026-07-15T14:30:08.812Z</time>
      </trkpt>
      <trkpt lat="49.40438" lon="1.42644">
        <ele>165</ele>
        <time>2026-07-15T14:30:13.273Z</time>
      </trkpt>
      <trkpt lat="49.40437" lon="1.42651">
        <ele>165</ele>
        <time>2026-07-15T14:30:17.965Z</time>
      </trkpt>
      <trkpt lat="49.40436" lon="1.42657">
        <ele>166</ele>
        <time>2026-07-15T14:30:22.730Z</time>
      </trkpt>
      <trkpt lat="49.40434" lon="1.42662">
        <ele>166</ele>
        <time>2026-07-15T14:30:26.965Z</time>
      </trkpt>
      <trkpt lat="49.40432" lon="1.42667">
        <ele>166</ele>
        <time>2026-07-15T14:30:31.292Z</time>
      </trkpt>
      <trkpt lat="49.40429" lon="1.42673">
        <ele>164</ele>
        <time>2026-07-15T14:30:35.850Z</time>
      </trkpt>
      <trkpt lat="49.40428" lon="1.42679">
        <ele>164</ele>
        <time>2026-07-15T14:30:39.970Z</time>
      </trkpt>
      <trkpt lat="49.40427" lon="1.42686">
        <ele>165</ele>
        <time>2026-07-15T14:30:44.376Z</time>
      </trkpt>
      <trkpt lat="49.40425" lon="1.42692">
        <ele>165</ele>
        <time>2026-07-15T14:30:48.732Z</time>
      </trkpt>
      <trkpt lat="49.40421" lon="1.42693">
        <ele>165</ele>
        <time>2026-07-15T14:30:52.968Z</time>
      </trkpt>
      <trkpt lat="49.40416" lon="1.42694">
        <ele>165</ele>
        <time>2026-07-15T14:30:57.311Z</time>
      </trkpt>
      <trkpt lat="49.40412" lon="1.42698">
        <ele>165</ele>
        <time>2026-07-15T14:31:01.771Z</time>
      </trkpt>
      <trkpt lat="49.40409" lon="1.42702">
        <ele>165</ele>
        <time>2026-07-15T14:31:06.276Z</time>
      </trkpt>
      <trkpt lat="49.40405" lon="1.42706">
        <ele>165</ele>
        <time>2026-07-15T14:31:10.693Z</time>
      </trkpt>
      <trkpt lat="49.40401" lon="1.42708">
        <ele>164</ele>
        <time>2026-07-15T14:31:15.250Z</time>
      </trkpt>
      <trkpt lat="49.40398" lon="1.42709">
        <ele>165</ele>
        <time>2026-07-15T14:31:19.852Z</time>
      </trkpt>
      <trkpt lat="49.40397" lon="1.42712">
        <ele>165</ele>
        <time>2026-07-15T14:31:24.471Z</time>
      </trkpt>
      <trkpt lat="49.40395" lon="1.42717">
        <ele>165</ele>
        <time>2026-07-15T14:31:28.949Z</time>
      </trkpt>
      <trkpt lat="49.4039" lon="1.4272">
        <ele>165</ele>
        <time>2026-07-15T14:31:33.357Z</time>
      </trkpt>
      <trkpt lat="49.40388" lon="1.42728">
        <ele>165</ele>
        <time>2026-07-15T14:31:37.853Z</time>
      </trkpt>
      <trkpt lat="49.40385" lon="1.42734">
        <ele>165</ele>
        <time>2026-07-15T14:31:42.270Z</time>
      </trkpt>
      <trkpt lat="49.4038" lon="1.42739">
        <ele>166</ele>
        <time>2026-07-15T14:31:46.669Z</time>
      </trkpt>
      <trkpt lat="49.40378" lon="1.42741">
        <ele>166</ele>
        <time>2026-07-15T14:31:51.156Z</time>
      </trkpt>
      <trkpt lat="49.40374" lon="1.42748">
        <ele>164</ele>
        <time>2026-07-15T14:31:55.433Z</time>
      </trkpt>
      <trkpt lat="49.40371" lon="1.42753">
        <ele>164</ele>
        <time>2026-07-15T14:31:59.771Z</time>
      </trkpt>
      <trkpt lat="49.40367" lon="1.42757">
        <ele>164</ele>
        <time>2026-07-15T14:32:04.170Z</time>
      </trkpt>
      <trkpt lat="49.40364" lon="1.42762">
        <ele>164</ele>
        <time>2026-07-15T14:32:08.394Z</time>
      </trkpt>
      <trkpt lat="49.40361" lon="1.42766">
        <ele>165</ele>
        <time>2026-07-15T14:32:12.872Z</time>
      </trkpt>
      <trkpt lat="49.40358" lon="1.42771">
        <ele>165</ele>
        <time>2026-07-15T14:32:17.192Z</time>
      </trkpt>
      <trkpt lat="49.40355" lon="1.42776">
        <ele>165</ele>
        <time>2026-07-15T14:32:21.592Z</time>
      </trkpt>
      <trkpt lat="49.40354" lon="1.42781">
        <ele>165</ele>
        <time>2026-07-15T14:32:25.789Z</time>
      </trkpt>
      <trkpt lat="49.40353" lon="1.42785">
        <ele>165</ele>
        <time>2026-07-15T14:32:30.153Z</time>
      </trkpt>
      <trkpt lat="49.40353" lon="1.42788">
        <ele>165</ele>
        <time>2026-07-15T14:32:34.570Z</time>
      </trkpt>
      <trkpt lat="49.40355" lon="1.42799">
        <ele>165</ele>
        <time>2026-07-15T14:32:38.968Z</time>
      </trkpt>
      <trkpt lat="49.40354" lon="1.42805">
        <ele>165</ele>
        <time>2026-07-15T14:32:43.413Z</time>
      </trkpt>
      <trkpt lat="49.40351" lon="1.42808">
        <ele>165</ele>
        <time>2026-07-15T14:32:47.751Z</time>
      </trkpt>
      <trkpt lat="49.40347" lon="1.42807">
        <ele>163</ele>
        <time>2026-07-15T14:32:51.967Z</time>
      </trkpt>
      <trkpt lat="49.40346" lon="1.42805">
        <ele>163</ele>
        <time>2026-07-15T14:32:56.435Z</time>
      </trkpt>
      <trkpt lat="49.40343" lon="1.42804">
        <ele>163</ele>
        <time>2026-07-15T14:33:00.835Z</time>
      </trkpt>
      <trkpt lat="49.40339" lon="1.4281">
        <ele>163</ele>
        <time>2026-07-15T14:33:05.454Z</time>
      </trkpt>
      <trkpt lat="49.40337" lon="1.42816">
        <ele>163</ele>
        <time>2026-07-15T14:33:09.932Z</time>
      </trkpt>
      <trkpt lat="49.40336" lon="1.42823">
        <ele>164</ele>
        <time>2026-07-15T14:33:14.454Z</time>
      </trkpt>
      <trkpt lat="49.40336" lon="1.4283">
        <ele>164</ele>
        <time>2026-07-15T14:33:18.933Z</time>
      </trkpt>
      <trkpt lat="49.40336" lon="1.42835">
        <ele>164</ele>
        <time>2026-07-15T14:33:23.517Z</time>
      </trkpt>
      <trkpt lat="49.40335" lon="1.4284">
        <ele>164</ele>
        <time>2026-07-15T14:33:27.916Z</time>
      </trkpt>
      <trkpt lat="49.40333" lon="1.42848">
        <ele>164</ele>
        <time>2026-07-15T14:33:32.412Z</time>
      </trkpt>
      <trkpt lat="49.40334" lon="1.42855">
        <ele>164</ele>
        <time>2026-07-15T14:33:36.811Z</time>
      </trkpt>
      <trkpt lat="49.40333" lon="1.4286">
        <ele>164</ele>
        <time>2026-07-15T14:33:41.255Z</time>
      </trkpt>
      <trkpt lat="49.40332" lon="1.42868">
        <ele>164</ele>
        <time>2026-07-15T14:33:45.575Z</time>
      </trkpt>
      <trkpt lat="49.40329" lon="1.42871">
        <ele>164</ele>
        <time>2026-07-15T14:33:49.772Z</time>
      </trkpt>
      <trkpt lat="49.40325" lon="1.42878">
        <ele>163</ele>
        <time>2026-07-15T14:33:54.216Z</time>
      </trkpt>
      <trkpt lat="49.40324" lon="1.42885">
        <ele>163</ele>
        <time>2026-07-15T14:33:58.694Z</time>
      </trkpt>
      <trkpt lat="49.40323" lon="1.42892">
        <ele>163</ele>
        <time>2026-07-15T14:34:02.968Z</time>
      </trkpt>
      <trkpt lat="49.40322" lon="1.429">
        <ele>163</ele>
        <time>2026-07-15T14:34:07.335Z</time>
      </trkpt>
      <trkpt lat="49.40323" lon="1.42909">
        <ele>163</ele>
        <time>2026-07-15T14:34:11.611Z</time>
      </trkpt>
      <trkpt lat="49.40323" lon="1.42918">
        <ele>163</ele>
        <time>2026-07-15T14:34:15.677Z</time>
      </trkpt>
      <trkpt lat="49.40324" lon="1.42928">
        <ele>163</ele>
        <time>2026-07-15T14:34:19.966Z</time>
      </trkpt>
      <trkpt lat="49.40325" lon="1.42936">
        <ele>161</ele>
        <time>2026-07-15T14:34:24.273Z</time>
      </trkpt>
      <trkpt lat="49.40327" lon="1.42943">
        <ele>161</ele>
        <time>2026-07-15T14:34:28.795Z</time>
      </trkpt>
      <trkpt lat="49.40329" lon="1.42951">
        <ele>161</ele>
        <time>2026-07-15T14:34:32.967Z</time>
      </trkpt>
      <trkpt lat="49.40331" lon="1.42958">
        <ele>161</ele>
        <time>2026-07-15T14:34:37.454Z</time>
      </trkpt>
      <trkpt lat="49.40333" lon="1.42966">
        <ele>160</ele>
        <time>2026-07-15T14:34:41.616Z</time>
      </trkpt>
      <trkpt lat="49.40336" lon="1.42972">
        <ele>160</ele>
        <time>2026-07-15T14:34:45.954Z</time>
      </trkpt>
      <trkpt lat="49.40339" lon="1.42977">
        <ele>160</ele>
        <time>2026-07-15T14:34:50.116Z</time>
      </trkpt>
      <trkpt lat="49.40343" lon="1.42981">
        <ele>160</ele>
        <time>2026-07-15T14:34:54.577Z</time>
      </trkpt>
      <trkpt lat="49.40348" lon="1.42984">
        <ele>160</ele>
        <time>2026-07-15T14:34:59.213Z</time>
      </trkpt>
      <trkpt lat="49.40352" lon="1.42987">
        <ele>158</ele>
        <time>2026-07-15T14:35:03.410Z</time>
      </trkpt>
      <trkpt lat="49.40357" lon="1.42991">
        <ele>158</ele>
        <time>2026-07-15T14:35:07.696Z</time>
      </trkpt>
      <trkpt lat="49.40361" lon="1.42995">
        <ele>158</ele>
        <time>2026-07-15T14:35:11.967Z</time>
      </trkpt>
      <trkpt lat="49.40365" lon="1.42998">
        <ele>158</ele>
        <time>2026-07-15T14:35:16.529Z</time>
      </trkpt>
      <trkpt lat="49.4037" lon="1.43001">
        <ele>158</ele>
        <time>2026-07-15T14:35:20.966Z</time>
      </trkpt>
      <trkpt lat="49.40374" lon="1.43005">
        <ele>158</ele>
        <time>2026-07-15T14:35:25.354Z</time>
      </trkpt>
      <trkpt lat="49.40378" lon="1.43008">
        <ele>159</ele>
        <time>2026-07-15T14:35:29.789Z</time>
      </trkpt>
      <trkpt lat="49.40382" lon="1.43012">
        <ele>159</ele>
        <time>2026-07-15T14:35:34.355Z</time>
      </trkpt>
      <trkpt lat="49.40386" lon="1.43015">
        <ele>157</ele>
        <time>2026-07-15T14:35:38.535Z</time>
      </trkpt>
      <trkpt lat="49.4039" lon="1.43017">
        <ele>157</ele>
        <time>2026-07-15T14:35:42.967Z</time>
      </trkpt>
      <trkpt lat="49.40394" lon="1.4302">
        <ele>157</ele>
        <time>2026-07-15T14:35:47.491Z</time>
      </trkpt>
      <trkpt lat="49.40398" lon="1.43023">
        <ele>157</ele>
        <time>2026-07-15T14:35:51.794Z</time>
      </trkpt>
      <trkpt lat="49.40403" lon="1.43025">
        <ele>157</ele>
        <time>2026-07-15T14:35:56.272Z</time>
      </trkpt>
      <trkpt lat="49.40407" lon="1.43027">
        <ele>157</ele>
        <time>2026-07-15T14:36:00.964Z</time>
      </trkpt>
      <trkpt lat="49.40411" lon="1.43029">
        <ele>157</ele>
        <time>2026-07-15T14:36:05.964Z</time>
      </trkpt>
      <trkpt lat="49.40415" lon="1.43032">
        <ele>157</ele>
        <time>2026-07-15T14:36:10.076Z</time>
      </trkpt>
      <trkpt lat="49.40419" lon="1.43034">
        <ele>157</ele>
        <time>2026-07-15T14:36:14.853Z</time>
      </trkpt>
      <trkpt lat="49.40424" lon="1.43036">
        <ele>157</ele>
        <time>2026-07-15T14:36:18.966Z</time>
      </trkpt>
      <trkpt lat="49.40428" lon="1.43039">
        <ele>157</ele>
        <time>2026-07-15T14:36:23.816Z</time>
      </trkpt>
      <trkpt lat="49.40432" lon="1.43043">
        <ele>158</ele>
        <time>2026-07-15T14:36:28.152Z</time>
      </trkpt>
      <trkpt lat="49.40437" lon="1.43048">
        <ele>158</ele>
        <time>2026-07-15T14:36:32.332Z</time>
      </trkpt>
      <trkpt lat="49.4044" lon="1.43052">
        <ele>158</ele>
        <time>2026-07-15T14:36:36.669Z</time>
      </trkpt>
      <trkpt lat="49.40444" lon="1.43056">
        <ele>158</ele>
        <time>2026-07-15T14:36:40.691Z</time>
      </trkpt>
      <trkpt lat="49.40448" lon="1.43059">
        <ele>158</ele>
        <time>2026-07-15T14:36:44.968Z</time>
      </trkpt>
      <trkpt lat="49.40451" lon="1.43063">
        <ele>158</ele>
        <time>2026-07-15T14:36:49.574Z</time>
      </trkpt>
      <trkpt lat="49.40455" lon="1.43066">
        <ele>158</ele>
        <time>2026-07-15T14:36:53.692Z</time>
      </trkpt>
      <trkpt lat="49.40458" lon="1.4307">
        <ele>158</ele>
        <time>2026-07-15T14:36:57.890Z</time>
      </trkpt>
      <trkpt lat="49.4046" lon="1.43089">
        <ele>160</ele>
        <time>2026-07-15T14:37:01.964Z</time>
      </trkpt>
      <trkpt lat="49.40454" lon="1.43092">
        <ele>158</ele>
        <time>2026-07-15T14:37:06.135Z</time>
      </trkpt>
      <trkpt lat="49.40449" lon="1.4309">
        <ele>158</ele>
        <time>2026-07-15T14:37:10.254Z</time>
      </trkpt>
      <trkpt lat="49.40448" lon="1.43093">
        <ele>158</ele>
        <time>2026-07-15T14:37:14.276Z</time>
      </trkpt>
      <trkpt lat="49.40446" lon="1.43096">
        <ele>158</ele>
        <time>2026-07-15T14:37:18.289Z</time>
      </trkpt>
      <trkpt lat="49.40445" lon="1.43108">
        <ele>158</ele>
        <time>2026-07-15T14:37:22.714Z</time>
      </trkpt>
      <trkpt lat="49.40443" lon="1.4311">
        <ele>158</ele>
        <time>2026-07-15T14:37:27.210Z</time>
      </trkpt>
      <trkpt lat="49.40441" lon="1.43113">
        <ele>158</ele>
        <time>2026-07-15T14:37:31.689Z</time>
      </trkpt>
      <trkpt lat="49.40439" lon="1.43118">
        <ele>158</ele>
        <time>2026-07-15T14:37:36.229Z</time>
      </trkpt>
      <trkpt lat="49.40437" lon="1.43121">
        <ele>158</ele>
        <time>2026-07-15T14:37:40.329Z</time>
      </trkpt>
      <trkpt lat="49.40435" lon="1.43124">
        <ele>158</ele>
        <time>2026-07-15T14:37:44.430Z</time>
      </trkpt>
      <trkpt lat="49.40432" lon="1.43129">
        <ele>159</ele>
        <time>2026-07-15T14:37:48.593Z</time>
      </trkpt>
      <trkpt lat="49.40429" lon="1.43134">
        <ele>158</ele>
        <time>2026-07-15T14:37:52.728Z</time>
      </trkpt>
      <trkpt lat="49.40428" lon="1.43138">
        <ele>158</ele>
        <time>2026-07-15T14:37:56.856Z</time>
      </trkpt>
      <trkpt lat="49.40428" lon="1.43139">
        <ele>158</ele>
        <time>2026-07-15T14:38:00.964Z</time>
      </trkpt>
      <trkpt lat="49.40427" lon="1.43143">
        <ele>158</ele>
        <time>2026-07-15T14:38:05.215Z</time>
      </trkpt>
      <trkpt lat="49.40426" lon="1.43149">
        <ele>158</ele>
        <time>2026-07-15T14:38:09.457Z</time>
      </trkpt>
      <trkpt lat="49.40425" lon="1.43154">
        <ele>160</ele>
        <time>2026-07-15T14:38:13.469Z</time>
      </trkpt>
      <trkpt lat="49.40424" lon="1.43158">
        <ele>160</ele>
        <time>2026-07-15T14:38:17.649Z</time>
      </trkpt>
      <trkpt lat="49.40422" lon="1.43161">
        <ele>160</ele>
        <time>2026-07-15T14:38:21.715Z</time>
      </trkpt>
      <trkpt lat="49.4042" lon="1.43165">
        <ele>160</ele>
        <time>2026-07-15T14:38:25.912Z</time>
      </trkpt>
      <trkpt lat="49.40417" lon="1.43169">
        <ele>160</ele>
        <time>2026-07-15T14:38:30.514Z</time>
      </trkpt>
      <trkpt lat="49.40414" lon="1.43172">
        <ele>160</ele>
        <time>2026-07-15T14:38:34.597Z</time>
      </trkpt>
      <trkpt lat="49.40412" lon="1.43175">
        <ele>160</ele>
        <time>2026-07-15T14:38:38.733Z</time>
      </trkpt>
      <trkpt lat="49.4041" lon="1.43179">
        <ele>160</ele>
        <time>2026-07-15T14:38:42.833Z</time>
      </trkpt>
      <trkpt lat="49.40408" lon="1.43183">
        <ele>163</ele>
        <time>2026-07-15T14:38:46.966Z</time>
      </trkpt>
      <trkpt lat="49.40407" lon="1.43188">
        <ele>163</ele>
        <time>2026-07-15T14:38:51.053Z</time>
      </trkpt>
      <trkpt lat="49.40405" lon="1.43193">
        <ele>163</ele>
        <time>2026-07-15T14:38:55.215Z</time>
      </trkpt>
      <trkpt lat="49.40403" lon="1.43199">
        <ele>163</ele>
        <time>2026-07-15T14:38:59.254Z</time>
      </trkpt>
      <trkpt lat="49.40401" lon="1.43203">
        <ele>160</ele>
        <time>2026-07-15T14:39:03.469Z</time>
      </trkpt>
      <trkpt lat="49.40398" lon="1.43206">
        <ele>160</ele>
        <time>2026-07-15T14:39:07.649Z</time>
      </trkpt>
      <trkpt lat="49.40395" lon="1.4321">
        <ele>160</ele>
        <time>2026-07-15T14:39:11.872Z</time>
      </trkpt>
      <trkpt lat="49.40393" lon="1.43213">
        <ele>160</ele>
        <time>2026-07-15T14:39:16.236Z</time>
      </trkpt>
      <trkpt lat="49.4039" lon="1.43218">
        <ele>160</ele>
        <time>2026-07-15T14:39:20.469Z</time>
      </trkpt>
      <trkpt lat="49.40387" lon="1.43222">
        <ele>160</ele>
        <time>2026-07-15T14:39:24.966Z</time>
      </trkpt>
      <trkpt lat="49.40385" lon="1.43227">
        <ele>160</ele>
        <time>2026-07-15T14:39:29.565Z</time>
      </trkpt>
      <trkpt lat="49.40383" lon="1.4323">
        <ele>160</ele>
        <time>2026-07-15T14:39:33.966Z</time>
      </trkpt>
      <trkpt lat="49.40382" lon="1.43237">
        <ele>162</ele>
        <time>2026-07-15T14:39:38.610Z</time>
      </trkpt>
      <trkpt lat="49.40381" lon="1.43242">
        <ele>162</ele>
        <time>2026-07-15T14:39:42.693Z</time>
      </trkpt>
      <trkpt lat="49.40378" lon="1.43247">
        <ele>162</ele>
        <time>2026-07-15T14:39:46.812Z</time>
      </trkpt>
      <trkpt lat="49.40375" lon="1.43251">
        <ele>161</ele>
        <time>2026-07-15T14:39:50.962Z</time>
      </trkpt>
      <trkpt lat="49.40372" lon="1.43256">
        <ele>161</ele>
        <time>2026-07-15T14:39:55.251Z</time>
      </trkpt>
      <trkpt lat="49.40369" lon="1.43261">
        <ele>161</ele>
        <time>2026-07-15T14:39:59.853Z</time>
      </trkpt>
      <trkpt lat="49.40367" lon="1.43266">
        <ele>162</ele>
        <time>2026-07-15T14:40:04.112Z</time>
      </trkpt>
      <trkpt lat="49.40364" lon="1.4327">
        <ele>162</ele>
        <time>2026-07-15T14:40:21.491Z</time>
      </trkpt>
      <trkpt lat="49.4036" lon="1.43274">
        <ele>162</ele>
        <time>2026-07-15T14:40:25.715Z</time>
      </trkpt>
      <trkpt lat="49.40357" lon="1.43278">
        <ele>162</ele>
        <time>2026-07-15T14:40:29.966Z</time>
      </trkpt>
      <trkpt lat="49.40355" lon="1.43282">
        <ele>162</ele>
        <time>2026-07-15T14:40:34.874Z</time>
      </trkpt>
      <trkpt lat="49.40351" lon="1.43287">
        <ele>162</ele>
        <time>2026-07-15T14:40:38.966Z</time>
      </trkpt>
      <trkpt lat="49.40349" lon="1.43291">
        <ele>162</ele>
        <time>2026-07-15T14:41:27.965Z</time>
      </trkpt>
      <trkpt lat="49.40346" lon="1.43295">
        <ele>166</ele>
        <time>2026-07-15T14:41:31.967Z</time>
      </trkpt>
      <trkpt lat="49.40344" lon="1.43301">
        <ele>166</ele>
        <time>2026-07-15T14:41:36.552Z</time>
      </trkpt>
      <trkpt lat="49.40341" lon="1.43305">
        <ele>166</ele>
        <time>2026-07-15T14:41:41.277Z</time>
      </trkpt>
      <trkpt lat="49.40337" lon="1.43308">
        <ele>166</ele>
        <time>2026-07-15T14:41:45.790Z</time>
      </trkpt>
      <trkpt lat="49.40332" lon="1.43312">
        <ele>166</ele>
        <time>2026-07-15T14:41:50.549Z</time>
      </trkpt>
      <trkpt lat="49.40329" lon="1.43316">
        <ele>166</ele>
        <time>2026-07-15T14:41:55.291Z</time>
      </trkpt>
      <trkpt lat="49.40325" lon="1.4332">
        <ele>167</ele>
        <time>2026-07-15T14:41:59.966Z</time>
      </trkpt>
      <trkpt lat="49.40322" lon="1.43325">
        <ele>167</ele>
        <time>2026-07-15T14:42:04.966Z</time>
      </trkpt>
      <trkpt lat="49.40319" lon="1.4333">
        <ele>168</ele>
        <time>2026-07-15T14:42:08.966Z</time>
      </trkpt>
      <trkpt lat="49.40316" lon="1.43335">
        <ele>168</ele>
        <time>2026-07-15T14:42:13.966Z</time>
      </trkpt>
      <trkpt lat="49.40313" lon="1.4334">
        <ele>168</ele>
        <time>2026-07-15T14:42:18.631Z</time>
      </trkpt>
      <trkpt lat="49.40312" lon="1.43339">
        <ele>168</ele>
        <time>2026-07-15T14:42:22.793Z</time>
      </trkpt>
      <trkpt lat="49.40308" lon="1.43342">
        <ele>168</ele>
        <time>2026-07-15T14:42:27.509Z</time>
      </trkpt>
      <trkpt lat="49.40304" lon="1.43349">
        <ele>169</ele>
        <time>2026-07-15T14:42:31.574Z</time>
      </trkpt>
      <trkpt lat="49.40301" lon="1.43355">
        <ele>169</ele>
        <time>2026-07-15T14:42:35.967Z</time>
      </trkpt>
      <trkpt lat="49.40298" lon="1.4336">
        <ele>169</ele>
        <time>2026-07-15T14:42:40.373Z</time>
      </trkpt>
      <trkpt lat="49.40294" lon="1.43364">
        <ele>169</ele>
        <time>2026-07-15T14:42:44.834Z</time>
      </trkpt>
      <trkpt lat="49.4029" lon="1.43367">
        <ele>167</ele>
        <time>2026-07-15T14:42:48.965Z</time>
      </trkpt>
      <trkpt lat="49.40287" lon="1.4337">
        <ele>167</ele>
        <time>2026-07-15T14:42:52.956Z</time>
      </trkpt>
      <trkpt lat="49.40284" lon="1.43375">
        <ele>167</ele>
        <time>2026-07-15T14:42:57.777Z</time>
      </trkpt>
      <trkpt lat="49.4028" lon="1.43378">
        <ele>168</ele>
        <time>2026-07-15T14:43:01.968Z</time>
      </trkpt>
      <trkpt lat="49.40276" lon="1.43381">
        <ele>168</ele>
        <time>2026-07-15T14:43:06.531Z</time>
      </trkpt>
      <trkpt lat="49.40272" lon="1.43383">
        <ele>168</ele>
        <time>2026-07-15T14:43:10.970Z</time>
      </trkpt>
      <trkpt lat="49.40268" lon="1.43387">
        <ele>168</ele>
        <time>2026-07-15T14:43:15.374Z</time>
      </trkpt>
      <trkpt lat="49.4027" lon="1.43388">
        <ele>168</ele>
        <time>2026-07-15T14:43:19.694Z</time>
      </trkpt>
      <trkpt lat="49.4027" lon="1.43388">
        <ele>168</ele>
        <time>2026-07-15T14:43:23.968Z</time>
      </trkpt>
      <trkpt lat="49.40271" lon="1.43384">
        <ele>168</ele>
        <time>2026-07-15T14:43:28.370Z</time>
      </trkpt>
      <trkpt lat="49.40272" lon="1.43378">
        <ele>168</ele>
        <time>2026-07-15T14:43:32.532Z</time>
      </trkpt>
      <trkpt lat="49.40277" lon="1.43375">
        <ele>167</ele>
        <time>2026-07-15T14:43:36.650Z</time>
      </trkpt>
      <trkpt lat="49.40274" lon="1.43376">
        <ele>168</ele>
        <time>2026-07-15T14:43:40.935Z</time>
      </trkpt>
      <trkpt lat="49.40273" lon="1.43378">
        <ele>168</ele>
        <time>2026-07-15T14:43:44.930Z</time>
      </trkpt>
      <trkpt lat="49.40272" lon="1.43379">
        <ele>168</ele>
        <time>2026-07-15T14:43:48.965Z</time>
      </trkpt>
      <trkpt lat="49.40272" lon="1.4338">
        <ele>168</ele>
        <time>2026-07-15T14:43:53.632Z</time>
      </trkpt>
      <trkpt lat="49.40272" lon="1.4338">
        <ele>168</ele>
        <time>2026-07-15T14:43:57.716Z</time>
      </trkpt>
      <trkpt lat="49.4027" lon="1.43382">
        <ele>168</ele>
        <time>2026-07-15T14:44:02.413Z</time>
      </trkpt>
      <trkpt lat="49.4027" lon="1.43382">
        <ele>168</ele>
        <time>2026-07-15T14:44:06.966Z</time>
      </trkpt>
      <trkpt lat="49.4027" lon="1.43382">
        <ele>168</ele>
        <time>2026-07-15T14:44:11.853Z</time>
      </trkpt>
      <trkpt lat="49.4027" lon="1.43382">
        <ele>168</ele>
        <time>2026-07-15T14:44:15.954Z</time>
      </trkpt>
      <trkpt lat="49.40263" lon="1.4339">
        <ele>166</ele>
        <time>2026-07-15T14:44:19.968Z</time>
      </trkpt>
      <trkpt lat="49.40259" lon="1.43393">
        <ele>166</ele>
        <time>2026-07-15T14:44:24.691Z</time>
      </trkpt>
      <trkpt lat="49.40254" lon="1.43397">
        <ele>166</ele>
        <time>2026-07-15T14:44:28.774Z</time>
      </trkpt>
      <trkpt lat="49.40249" lon="1.43399">
        <ele>166</ele>
        <time>2026-07-15T14:44:33.251Z</time>
      </trkpt>
      <trkpt lat="49.40245" lon="1.43401">
        <ele>166</ele>
        <time>2026-07-15T14:44:37.950Z</time>
      </trkpt>
      <trkpt lat="49.4024" lon="1.43404">
        <ele>167</ele>
        <time>2026-07-15T14:44:41.966Z</time>
      </trkpt>
      <trkpt lat="49.40237" lon="1.43407">
        <ele>167</ele>
        <time>2026-07-15T14:44:45.966Z</time>
      </trkpt>
      <trkpt lat="49.40232" lon="1.43411">
        <ele>167</ele>
        <time>2026-07-15T14:44:50.577Z</time>
      </trkpt>
      <trkpt lat="49.40227" lon="1.43412">
        <ele>167</ele>
        <time>2026-07-15T14:44:55.213Z</time>
      </trkpt>
      <trkpt lat="49.40226" lon="1.43412">
        <ele>167</ele>
        <time>2026-07-15T14:44:59.832Z</time>
      </trkpt>
      <trkpt lat="49.40221" lon="1.43414">
        <ele>167</ele>
        <time>2026-07-15T14:45:04.451Z</time>
      </trkpt>
      <trkpt lat="49.40216" lon="1.43419">
        <ele>167</ele>
        <time>2026-07-15T14:45:08.968Z</time>
      </trkpt>
      <trkpt lat="49.40213" lon="1.43424">
        <ele>167</ele>
        <time>2026-07-15T14:45:13.469Z</time>
      </trkpt>
      <trkpt lat="49.40213" lon="1.43425">
        <ele>167</ele>
        <time>2026-07-15T14:45:17.956Z</time>
      </trkpt>
      <trkpt lat="49.40214" lon="1.43426">
        <ele>167</ele>
        <time>2026-07-15T14:45:22.469Z</time>
      </trkpt>
      <trkpt lat="49.40212" lon="1.43432">
        <ele>167</ele>
        <time>2026-07-15T14:45:26.965Z</time>
      </trkpt>
      <trkpt lat="49.40211" lon="1.4344">
        <ele>167</ele>
        <time>2026-07-15T14:45:31.557Z</time>
      </trkpt>
      <trkpt lat="49.40207" lon="1.43444">
        <ele>165</ele>
        <time>2026-07-15T14:45:35.868Z</time>
      </trkpt>
      <trkpt lat="49.40202" lon="1.43446">
        <ele>165</ele>
        <time>2026-07-15T14:45:40.496Z</time>
      </trkpt>
      <trkpt lat="49.40198" lon="1.4345">
        <ele>165</ele>
        <time>2026-07-15T14:45:44.966Z</time>
      </trkpt>
      <trkpt lat="49.40193" lon="1.43454">
        <ele>165</ele>
        <time>2026-07-15T14:45:49.751Z</time>
      </trkpt>
      <trkpt lat="49.4019" lon="1.4346">
        <ele>163</ele>
        <time>2026-07-15T14:45:53.755Z</time>
      </trkpt>
      <trkpt lat="49.40187" lon="1.43464">
        <ele>163</ele>
        <time>2026-07-15T14:45:58.330Z</time>
      </trkpt>
      <trkpt lat="49.40182" lon="1.43468">
        <ele>163</ele>
        <time>2026-07-15T14:46:02.817Z</time>
      </trkpt>
      <trkpt lat="49.40179" lon="1.43473">
        <ele>161</ele>
        <time>2026-07-15T14:46:07.234Z</time>
      </trkpt>
      <trkpt lat="49.40176" lon="1.43478">
        <ele>161</ele>
        <time>2026-07-15T14:46:11.791Z</time>
      </trkpt>
      <trkpt lat="49.40173" lon="1.43484">
        <ele>161</ele>
        <time>2026-07-15T14:46:16.216Z</time>
      </trkpt>
      <trkpt lat="49.40169" lon="1.43488">
        <ele>159</ele>
        <time>2026-07-15T14:46:20.615Z</time>
      </trkpt>
      <trkpt lat="49.40165" lon="1.43492">
        <ele>159</ele>
        <time>2026-07-15T14:46:24.965Z</time>
      </trkpt>
      <trkpt lat="49.40162" lon="1.43496">
        <ele>159</ele>
        <time>2026-07-15T14:46:29.510Z</time>
      </trkpt>
      <trkpt lat="49.40158" lon="1.435">
        <ele>159</ele>
        <time>2026-07-15T14:47:34.969Z</time>
      </trkpt>
      <trkpt lat="49.40154" lon="1.43504">
        <ele>159</ele>
        <time>2026-07-15T14:47:39.966Z</time>
      </trkpt>
      <trkpt lat="49.40151" lon="1.4351">
        <ele>159</ele>
        <time>2026-07-15T14:47:44.967Z</time>
      </trkpt>
      <trkpt lat="49.40148" lon="1.43516">
        <ele>157</ele>
        <time>2026-07-15T14:47:49.617Z</time>
      </trkpt>
      <trkpt lat="49.40145" lon="1.43522">
        <ele>157</ele>
        <time>2026-07-15T14:47:54.209Z</time>
      </trkpt>
      <trkpt lat="49.40142" lon="1.43528">
        <ele>157</ele>
        <time>2026-07-15T14:48:34.967Z</time>
      </trkpt>
      <trkpt lat="49.40138" lon="1.43534">
        <ele>157</ele>
        <time>2026-07-15T14:48:39.971Z</time>
      </trkpt>
      <trkpt lat="49.40134" lon="1.43538">
        <ele>157</ele>
        <time>2026-07-15T14:48:44.965Z</time>
      </trkpt>
      <trkpt lat="49.40129" lon="1.43539">
        <ele>157</ele>
        <time>2026-07-15T14:48:49.962Z</time>
      </trkpt>
      <trkpt lat="49.40126" lon="1.43543">
        <ele>155</ele>
        <time>2026-07-15T14:48:56.967Z</time>
      </trkpt>
      <trkpt lat="49.40126" lon="1.43545">
        <ele>155</ele>
        <time>2026-07-15T14:51:01.966Z</time>
      </trkpt>
      <trkpt lat="49.40125" lon="1.43548">
        <ele>156</ele>
        <time>2026-07-15T14:51:06.963Z</time>
      </trkpt>
      <trkpt lat="49.40123" lon="1.43561">
        <ele>156</ele>
        <time>2026-07-15T14:51:13.964Z</time>
      </trkpt>
      <trkpt lat="49.4012" lon="1.43567">
        <ele>156</ele>
        <time>2026-07-15T14:51:25.257Z</time>
      </trkpt>
      <trkpt lat="49.40117" lon="1.43574">
        <ele>158</ele>
        <time>2026-07-15T14:51:31.289Z</time>
      </trkpt>
      <trkpt lat="49.40115" lon="1.4358">
        <ele>158</ele>
        <time>2026-07-15T14:51:35.538Z</time>
      </trkpt>
      <trkpt lat="49.40113" lon="1.43585">
        <ele>158</ele>
        <time>2026-07-15T14:51:39.929Z</time>
      </trkpt>
      <trkpt lat="49.4011" lon="1.43589">
        <ele>158</ele>
        <time>2026-07-15T14:51:44.311Z</time>
      </trkpt>
      <trkpt lat="49.40107" lon="1.43592">
        <ele>158</ele>
        <time>2026-07-15T14:51:48.552Z</time>
      </trkpt>
      <trkpt lat="49.40104" lon="1.43594">
        <ele>158</ele>
        <time>2026-07-15T14:51:52.775Z</time>
      </trkpt>
      <trkpt lat="49.40099" lon="1.43595">
        <ele>158</ele>
        <time>2026-07-15T14:51:57.253Z</time>
      </trkpt>
      <trkpt lat="49.40095" lon="1.43596">
        <ele>158</ele>
        <time>2026-07-15T14:52:01.433Z</time>
      </trkpt>
      <trkpt lat="49.40091" lon="1.43598">
        <ele>163</ele>
        <time>2026-07-15T14:52:05.964Z</time>
      </trkpt>
      <trkpt lat="49.40086" lon="1.43601">
        <ele>163</ele>
        <time>2026-07-15T14:52:10.433Z</time>
      </trkpt>
      <trkpt lat="49.40082" lon="1.43603">
        <ele>163</ele>
        <time>2026-07-15T14:52:14.692Z</time>
      </trkpt>
      <trkpt lat="49.40077" lon="1.43606">
        <ele>163</ele>
        <time>2026-07-15T14:52:18.871Z</time>
      </trkpt>
      <trkpt lat="49.40074" lon="1.43608">
        <ele>163</ele>
        <time>2026-07-15T14:52:22.967Z</time>
      </trkpt>
      <trkpt lat="49.40069" lon="1.4361">
        <ele>163</ele>
        <time>2026-07-15T14:52:27.968Z</time>
      </trkpt>
      <trkpt lat="49.40065" lon="1.43611">
        <ele>158</ele>
        <time>2026-07-15T14:52:32.253Z</time>
      </trkpt>
      <trkpt lat="49.40061" lon="1.43612">
        <ele>158</ele>
        <time>2026-07-15T14:52:36.389Z</time>
      </trkpt>
      <trkpt lat="49.40057" lon="1.43614">
        <ele>158</ele>
        <time>2026-07-15T14:52:40.967Z</time>
      </trkpt>
      <trkpt lat="49.40053" lon="1.43617">
        <ele>158</ele>
        <time>2026-07-15T14:52:45.477Z</time>
      </trkpt>
      <trkpt lat="49.40049" lon="1.4362">
        <ele>158</ele>
        <time>2026-07-15T14:52:49.489Z</time>
      </trkpt>
      <trkpt lat="49.40044" lon="1.43623">
        <ele>158</ele>
        <time>2026-07-15T14:52:53.555Z</time>
      </trkpt>
      <trkpt lat="49.4004" lon="1.43625">
        <ele>159</ele>
        <time>2026-07-15T14:52:58.173Z</time>
      </trkpt>
      <trkpt lat="49.40036" lon="1.43629">
        <ele>159</ele>
        <time>2026-07-15T14:53:02.792Z</time>
      </trkpt>
      <trkpt lat="49.40031" lon="1.43632">
        <ele>159</ele>
        <time>2026-07-15T14:53:06.814Z</time>
      </trkpt>
      <trkpt lat="49.40027" lon="1.43633">
        <ele>159</ele>
        <time>2026-07-15T14:53:11.371Z</time>
      </trkpt>
      <trkpt lat="49.40022" lon="1.43635">
        <ele>159</ele>
        <time>2026-07-15T14:53:15.471Z</time>
      </trkpt>
      <trkpt lat="49.40019" lon="1.43638">
        <ele>159</ele>
        <time>2026-07-15T14:53:19.475Z</time>
      </trkpt>
      <trkpt lat="49.4001" lon="1.43643">
        <ele>157</ele>
        <time>2026-07-15T14:53:23.497Z</time>
      </trkpt>
      <trkpt lat="49.40011" lon="1.43645">
        <ele>157</ele>
        <time>2026-07-15T14:53:27.510Z</time>
      </trkpt>
      <trkpt lat="49.4001" lon="1.43645">
        <ele>157</ele>
        <time>2026-07-15T14:53:31.610Z</time>
      </trkpt>
      <trkpt lat="49.4001" lon="1.43645">
        <ele>157</ele>
        <time>2026-07-15T14:53:35.790Z</time>
      </trkpt>
      <trkpt lat="49.40006" lon="1.43649">
        <ele>157</ele>
        <time>2026-07-15T14:53:39.966Z</time>
      </trkpt>
      <trkpt lat="49.40001" lon="1.43652">
        <ele>157</ele>
        <time>2026-07-15T14:53:44.570Z</time>
      </trkpt>
      <trkpt lat="49.39996" lon="1.43653">
        <ele>160</ele>
        <time>2026-07-15T14:53:48.636Z</time>
      </trkpt>
      <trkpt lat="49.39992" lon="1.43655">
        <ele>160</ele>
        <time>2026-07-15T14:53:52.789Z</time>
      </trkpt>
      <trkpt lat="49.39987" lon="1.43656">
        <ele>160</ele>
        <time>2026-07-15T14:53:57.434Z</time>
      </trkpt>
      <trkpt lat="49.39982" lon="1.43658">
        <ele>157</ele>
        <time>2026-07-15T14:54:01.964Z</time>
      </trkpt>
      <trkpt lat="49.39978" lon="1.4366">
        <ele>157</ele>
        <time>2026-07-15T14:54:06.469Z</time>
      </trkpt>
      <trkpt lat="49.39974" lon="1.43662">
        <ele>157</ele>
        <time>2026-07-15T14:54:10.972Z</time>
      </trkpt>
      <trkpt lat="49.3997" lon="1.43664">
        <ele>157</ele>
        <time>2026-07-15T14:54:15.197Z</time>
      </trkpt>
      <trkpt lat="49.39965" lon="1.43667">
        <ele>157</ele>
        <time>2026-07-15T14:54:19.412Z</time>
      </trkpt>
      <trkpt lat="49.39962" lon="1.43669">
        <ele>157</ele>
        <time>2026-07-15T14:54:23.968Z</time>
      </trkpt>
      <trkpt lat="49.39957" lon="1.43672">
        <ele>155</ele>
        <time>2026-07-15T14:54:28.754Z</time>
      </trkpt>
      <trkpt lat="49.39953" lon="1.43674">
        <ele>155</ele>
        <time>2026-07-15T14:54:32.749Z</time>
      </trkpt>
      <trkpt lat="49.39949" lon="1.43676">
        <ele>155</ele>
        <time>2026-07-15T14:54:36.963Z</time>
      </trkpt>
      <trkpt lat="49.39944" lon="1.43677">
        <ele>155</ele>
        <time>2026-07-15T14:54:41.311Z</time>
      </trkpt>
      <trkpt lat="49.39939" lon="1.43678">
        <ele>155</ele>
        <time>2026-07-15T14:54:45.429Z</time>
      </trkpt>
      <trkpt lat="49.39935" lon="1.4368">
        <ele>155</ele>
        <time>2026-07-15T14:54:49.512Z</time>
      </trkpt>
      <trkpt lat="49.39931" lon="1.43682">
        <ele>155</ele>
        <time>2026-07-15T14:54:53.832Z</time>
      </trkpt>
      <trkpt lat="49.39926" lon="1.43686">
        <ele>152</ele>
        <time>2026-07-15T14:54:58.152Z</time>
      </trkpt>
      <trkpt lat="49.39922" lon="1.43689">
        <ele>152</ele>
        <time>2026-07-15T14:55:02.235Z</time>
      </trkpt>
      <trkpt lat="49.39917" lon="1.43693">
        <ele>152</ele>
        <time>2026-07-15T14:55:06.449Z</time>
      </trkpt>
      <trkpt lat="49.39912" lon="1.43697">
        <ele>152</ele>
        <time>2026-07-15T14:55:10.796Z</time>
      </trkpt>
      <trkpt lat="49.39907" lon="1.43699">
        <ele>152</ele>
        <time>2026-07-15T14:55:14.962Z</time>
      </trkpt>
      <trkpt lat="49.39903" lon="1.43701">
        <ele>151</ele>
        <time>2026-07-15T14:55:19.436Z</time>
      </trkpt>
      <trkpt lat="49.39898" lon="1.43703">
        <ele>151</ele>
        <time>2026-07-15T14:55:23.615Z</time>
      </trkpt>
      <trkpt lat="49.39894" lon="1.43707">
        <ele>151</ele>
        <time>2026-07-15T14:55:27.830Z</time>
      </trkpt>
      <trkpt lat="49.39889" lon="1.4371">
        <ele>152</ele>
        <time>2026-07-15T14:55:31.963Z</time>
      </trkpt>
      <trkpt lat="49.39885" lon="1.43713">
        <ele>152</ele>
        <time>2026-07-15T14:55:36.294Z</time>
      </trkpt>
      <trkpt lat="49.3988" lon="1.43716">
        <ele>152</ele>
        <time>2026-07-15T14:55:40.553Z</time>
      </trkpt>
      <trkpt lat="49.39875" lon="1.43718">
        <ele>152</ele>
        <time>2026-07-15T14:55:44.873Z</time>
      </trkpt>
      <trkpt lat="49.39871" lon="1.4372">
        <ele>152</ele>
        <time>2026-07-15T14:55:48.962Z</time>
      </trkpt>
      <trkpt lat="49.39867" lon="1.43722">
        <ele>152</ele>
        <time>2026-07-15T14:55:53.355Z</time>
      </trkpt>
      <trkpt lat="49.39863" lon="1.43724">
        <ele>152</ele>
        <time>2026-07-15T14:55:57.675Z</time>
      </trkpt>
      <trkpt lat="49.39858" lon="1.43725">
        <ele>152</ele>
        <time>2026-07-15T14:56:01.749Z</time>
      </trkpt>
      <trkpt lat="49.39854" lon="1.43728">
        <ele>152</ele>
        <time>2026-07-15T14:56:05.955Z</time>
      </trkpt>
      <trkpt lat="49.39849" lon="1.43731">
        <ele>152</ele>
        <time>2026-07-15T14:56:10.196Z</time>
      </trkpt>
      <trkpt lat="49.39845" lon="1.43734">
        <ele>151</ele>
        <time>2026-07-15T14:56:14.332Z</time>
      </trkpt>
      <trkpt lat="49.3984" lon="1.43736">
        <ele>152</ele>
        <time>2026-07-15T14:56:18.432Z</time>
      </trkpt>
      <trkpt lat="49.39836" lon="1.43739">
        <ele>152</ele>
        <time>2026-07-15T14:56:22.577Z</time>
      </trkpt>
      <trkpt lat="49.39831" lon="1.4374">
        <ele>152</ele>
        <time>2026-07-15T14:56:26.963Z</time>
      </trkpt>
      <trkpt lat="49.39827" lon="1.43742">
        <ele>152</ele>
        <time>2026-07-15T14:56:35.309Z</time>
      </trkpt>
      <trkpt lat="49.39822" lon="1.43745">
        <ele>152</ele>
        <time>2026-07-15T14:56:39.966Z</time>
      </trkpt>
      <trkpt lat="49.39818" lon="1.43748">
        <ele>152</ele>
        <time>2026-07-15T14:56:44.963Z</time>
      </trkpt>
      <trkpt lat="49.39813" lon="1.43751">
        <ele>152</ele>
        <time>2026-07-15T14:56:49.814Z</time>
      </trkpt>
      <trkpt lat="49.39809" lon="1.43753">
        <ele>152</ele>
        <time>2026-07-15T14:56:54.257Z</time>
      </trkpt>
      <trkpt lat="49.39805" lon="1.43756">
        <ele>152</ele>
        <time>2026-07-15T14:56:58.753Z</time>
      </trkpt>
      <trkpt lat="49.39801" lon="1.43758">
        <ele>152</ele>
        <time>2026-07-15T14:57:03.231Z</time>
      </trkpt>
      <trkpt lat="49.39796" lon="1.4376">
        <ele>152</ele>
        <time>2026-07-15T14:57:07.709Z</time>
      </trkpt>
      <trkpt lat="49.39792" lon="1.43762">
        <ele>152</ele>
        <time>2026-07-15T14:57:11.963Z</time>
      </trkpt>
      <trkpt lat="49.39788" lon="1.43763">
        <ele>155</ele>
        <time>2026-07-15T14:57:16.209Z</time>
      </trkpt>
      <trkpt lat="49.39784" lon="1.43765">
        <ele>158</ele>
        <time>2026-07-15T14:57:20.371Z</time>
      </trkpt>
      <trkpt lat="49.3978" lon="1.43767">
        <ele>158</ele>
        <time>2026-07-15T14:57:24.436Z</time>
      </trkpt>
      <trkpt lat="49.39776" lon="1.43769">
        <ele>158</ele>
        <time>2026-07-15T14:57:28.449Z</time>
      </trkpt>
      <trkpt lat="49.39772" lon="1.43772">
        <ele>158</ele>
        <time>2026-07-15T14:57:32.497Z</time>
      </trkpt>
      <trkpt lat="49.39768" lon="1.43774">
        <ele>158</ele>
        <time>2026-07-15T14:57:36.553Z</time>
      </trkpt>
      <trkpt lat="49.39764" lon="1.43776">
        <ele>158</ele>
        <time>2026-07-15T14:57:40.777Z</time>
      </trkpt>
      <trkpt lat="49.3976" lon="1.43778">
        <ele>160</ele>
        <time>2026-07-15T14:57:44.816Z</time>
      </trkpt>
      <trkpt lat="49.39756" lon="1.43779">
        <ele>160</ele>
        <time>2026-07-15T14:57:48.964Z</time>
      </trkpt>
      <trkpt lat="49.39752" lon="1.43781">
        <ele>160</ele>
        <time>2026-07-15T14:57:52.967Z</time>
      </trkpt>
      <trkpt lat="49.39748" lon="1.43783">
        <ele>160</ele>
        <time>2026-07-15T14:57:57.196Z</time>
      </trkpt>
      <trkpt lat="49.39744" lon="1.43785">
        <ele>160</ele>
        <time>2026-07-15T14:58:01.350Z</time>
      </trkpt>
      <trkpt lat="49.3974" lon="1.43788">
        <ele>160</ele>
        <time>2026-07-15T14:58:05.529Z</time>
      </trkpt>
      <trkpt lat="49.39736" lon="1.4379">
        <ele>161</ele>
        <time>2026-07-15T14:58:09.797Z</time>
      </trkpt>
      <trkpt lat="49.39731" lon="1.43793">
        <ele>163</ele>
        <time>2026-07-15T14:58:13.966Z</time>
      </trkpt>
      <trkpt lat="49.39727" lon="1.43795">
        <ele>163</ele>
        <time>2026-07-15T14:58:18.033Z</time>
      </trkpt>
      <trkpt lat="49.39722" lon="1.43798">
        <ele>163</ele>
        <time>2026-07-15T14:58:22.651Z</time>
      </trkpt>
      <trkpt lat="49.39717" lon="1.43801">
        <ele>163</ele>
        <time>2026-07-15T14:58:26.875Z</time>
      </trkpt>
      <trkpt lat="49.39713" lon="1.43804">
        <ele>163</ele>
        <time>2026-07-15T14:58:30.964Z</time>
      </trkpt>
      <trkpt lat="49.39708" lon="1.43805">
        <ele>163</ele>
        <time>2026-07-15T14:58:35.252Z</time>
      </trkpt>
      <trkpt lat="49.39704" lon="1.43808">
        <ele>162</ele>
        <time>2026-07-15T14:58:39.493Z</time>
      </trkpt>
      <trkpt lat="49.397" lon="1.43809">
        <ele>162</ele>
        <time>2026-07-15T14:58:43.655Z</time>
      </trkpt>
      <trkpt lat="49.39695" lon="1.43812">
        <ele>162</ele>
        <time>2026-07-15T14:58:47.711Z</time>
      </trkpt>
      <trkpt lat="49.39691" lon="1.43814">
        <ele>162</ele>
        <time>2026-07-15T14:58:51.908Z</time>
      </trkpt>
      <trkpt lat="49.39687" lon="1.43816">
        <ele>162</ele>
        <time>2026-07-15T14:58:55.962Z</time>
      </trkpt>
      <trkpt lat="49.39682" lon="1.4382">
        <ele>165</ele>
        <time>2026-07-15T14:59:00.171Z</time>
      </trkpt>
      <trkpt lat="49.39678" lon="1.43822">
        <ele>166</ele>
        <time>2026-07-15T14:59:04.272Z</time>
      </trkpt>
      <trkpt lat="49.39674" lon="1.43824">
        <ele>166</ele>
        <time>2026-07-15T14:59:08.451Z</time>
      </trkpt>
      <trkpt lat="49.3967" lon="1.43827">
        <ele>166</ele>
        <time>2026-07-15T14:59:12.631Z</time>
      </trkpt>
      <trkpt lat="49.39665" lon="1.43831">
        <ele>166</ele>
        <time>2026-07-15T14:59:16.749Z</time>
      </trkpt>
      <trkpt lat="49.3966" lon="1.43833">
        <ele>166</ele>
        <time>2026-07-15T14:59:20.876Z</time>
      </trkpt>
      <trkpt lat="49.39656" lon="1.43835">
        <ele>166</ele>
        <time>2026-07-15T14:59:24.964Z</time>
      </trkpt>
      <trkpt lat="49.39652" lon="1.43837">
        <ele>168</ele>
        <time>2026-07-15T14:59:29.349Z</time>
      </trkpt>
      <trkpt lat="49.39647" lon="1.43841">
        <ele>168</ele>
        <time>2026-07-15T14:59:33.651Z</time>
      </trkpt>
      <trkpt lat="49.39642" lon="1.43845">
        <ele>168</ele>
        <time>2026-07-15T14:59:37.875Z</time>
      </trkpt>
      <trkpt lat="49.39637" lon="1.43847">
        <ele>168</ele>
        <time>2026-07-15T14:59:41.964Z</time>
      </trkpt>
      <trkpt lat="49.39632" lon="1.4385">
        <ele>168</ele>
        <time>2026-07-15T14:59:46.269Z</time>
      </trkpt>
      <trkpt lat="49.39627" lon="1.43852">
        <ele>168</ele>
        <time>2026-07-15T14:59:50.492Z</time>
      </trkpt>
      <trkpt lat="49.39623" lon="1.43854">
        <ele>165</ele>
        <time>2026-07-15T14:59:54.593Z</time>
      </trkpt>
      <trkpt lat="49.39619" lon="1.43857">
        <ele>165</ele>
        <time>2026-07-15T14:59:58.711Z</time>
      </trkpt>
      <trkpt lat="49.39614" lon="1.43859">
        <ele>165</ele>
        <time>2026-07-15T15:00:02.855Z</time>
      </trkpt>
      <trkpt lat="49.3961" lon="1.43861">
        <ele>165</ele>
        <time>2026-07-15T15:00:07.211Z</time>
      </trkpt>
      <trkpt lat="49.39606" lon="1.43864">
        <ele>165</ele>
        <time>2026-07-15T15:00:11.373Z</time>
      </trkpt>
      <trkpt lat="49.39601" lon="1.43867">
        <ele>165</ele>
        <time>2026-07-15T15:00:15.657Z</time>
      </trkpt>
      <trkpt lat="49.39596" lon="1.43869">
        <ele>162</ele>
        <time>2026-07-15T15:00:19.776Z</time>
      </trkpt>
      <trkpt lat="49.39592" lon="1.43872">
        <ele>162</ele>
        <time>2026-07-15T15:00:23.961Z</time>
      </trkpt>
      <trkpt lat="49.39588" lon="1.43875">
        <ele>162</ele>
        <time>2026-07-15T15:00:28.231Z</time>
      </trkpt>
      <trkpt lat="49.39583" lon="1.43877">
        <ele>161</ele>
        <time>2026-07-15T15:00:32.455Z</time>
      </trkpt>
      <trkpt lat="49.39583" lon="1.43878">
        <ele>161</ele>
        <time>2026-07-15T15:00:36.652Z</time>
      </trkpt>
      <trkpt lat="49.39582" lon="1.43879">
        <ele>161</ele>
        <time>2026-07-15T15:00:40.849Z</time>
      </trkpt>
      <trkpt lat="49.39578" lon="1.43881">
        <ele>161</ele>
        <time>2026-07-15T15:00:44.897Z</time>
      </trkpt>
      <trkpt lat="49.39573" lon="1.43883">
        <ele>161</ele>
        <time>2026-07-15T15:00:49.252Z</time>
      </trkpt>
      <trkpt lat="49.39568" lon="1.43886">
        <ele>159</ele>
        <time>2026-07-15T15:00:53.511Z</time>
      </trkpt>
      <trkpt lat="49.39564" lon="1.43888">
        <ele>159</ele>
        <time>2026-07-15T15:00:57.857Z</time>
      </trkpt>
      <trkpt lat="49.3956" lon="1.43891">
        <ele>159</ele>
        <time>2026-07-15T15:01:01.961Z</time>
      </trkpt>
      <trkpt lat="49.39556" lon="1.43894">
        <ele>159</ele>
        <time>2026-07-15T15:01:06.295Z</time>
      </trkpt>
      <trkpt lat="49.39556" lon="1.43899">
        <ele>159</ele>
        <time>2026-07-15T15:01:10.492Z</time>
      </trkpt>
      <trkpt lat="49.39557" lon="1.439">
        <ele>159</ele>
        <time>2026-07-15T15:01:14.812Z</time>
      </trkpt>
      <trkpt lat="49.39557" lon="1.43901">
        <ele>159</ele>
        <time>2026-07-15T15:01:18.930Z</time>
      </trkpt>
      <trkpt lat="49.39556" lon="1.43909">
        <ele>158</ele>
        <time>2026-07-15T15:01:23.154Z</time>
      </trkpt>
      <trkpt lat="49.39555" lon="1.43917">
        <ele>158</ele>
        <time>2026-07-15T15:01:27.368Z</time>
      </trkpt>
      <trkpt lat="49.39555" lon="1.43924">
        <ele>158</ele>
        <time>2026-07-15T15:01:31.609Z</time>
      </trkpt>
      <trkpt lat="49.39555" lon="1.43931">
        <ele>158</ele>
        <time>2026-07-15T15:01:35.771Z</time>
      </trkpt>
      <trkpt lat="49.39555" lon="1.43938">
        <ele>158</ele>
        <time>2026-07-15T15:01:39.964Z</time>
      </trkpt>
      <trkpt lat="49.39556" lon="1.43945">
        <ele>158</ele>
        <time>2026-07-15T15:01:44.850Z</time>
      </trkpt>
      <trkpt lat="49.39556" lon="1.43951">
        <ele>158</ele>
        <time>2026-07-15T15:01:48.869Z</time>
      </trkpt>
      <trkpt lat="49.39556" lon="1.43957">
        <ele>158</ele>
        <time>2026-07-15T15:01:53.157Z</time>
      </trkpt>
      <trkpt lat="49.39555" lon="1.43964">
        <ele>159</ele>
        <time>2026-07-15T15:01:57.213Z</time>
      </trkpt>
      <trkpt lat="49.39554" lon="1.43971">
        <ele>159</ele>
        <time>2026-07-15T15:02:01.296Z</time>
      </trkpt>
      <trkpt lat="49.39554" lon="1.43978">
        <ele>159</ele>
        <time>2026-07-15T15:02:05.370Z</time>
      </trkpt>
      <trkpt lat="49.39553" lon="1.43985">
        <ele>159</ele>
        <time>2026-07-15T15:02:09.576Z</time>
      </trkpt>
      <trkpt lat="49.39553" lon="1.43992">
        <ele>161</ele>
        <time>2026-07-15T15:02:13.589Z</time>
      </trkpt>
      <trkpt lat="49.39554" lon="1.44">
        <ele>161</ele>
        <time>2026-07-15T15:02:17.830Z</time>
      </trkpt>
      <trkpt lat="49.39553" lon="1.44007">
        <ele>161</ele>
        <time>2026-07-15T15:02:22.791Z</time>
      </trkpt>
      <trkpt lat="49.39552" lon="1.44013">
        <ele>161</ele>
        <time>2026-07-15T15:02:26.830Z</time>
      </trkpt>
      <trkpt lat="49.39552" lon="1.4402">
        <ele>161</ele>
        <time>2026-07-15T15:02:30.957Z</time>
      </trkpt>
      <trkpt lat="49.39552" lon="1.44026">
        <ele>161</ele>
        <time>2026-07-15T15:02:34.964Z</time>
      </trkpt>
      <trkpt lat="49.39552" lon="1.44033">
        <ele>161</ele>
        <time>2026-07-15T15:02:39.210Z</time>
      </trkpt>
      <trkpt lat="49.39552" lon="1.4404">
        <ele>161</ele>
        <time>2026-07-15T15:02:43.311Z</time>
      </trkpt>
      <trkpt lat="49.39553" lon="1.44047">
        <ele>162</ele>
        <time>2026-07-15T15:02:47.394Z</time>
      </trkpt>
      <trkpt lat="49.39553" lon="1.44055">
        <ele>162</ele>
        <time>2026-07-15T15:02:51.963Z</time>
      </trkpt>
      <trkpt lat="49.39553" lon="1.44061">
        <ele>162</ele>
        <time>2026-07-15T15:02:56.675Z</time>
      </trkpt>
      <trkpt lat="49.39553" lon="1.44068">
        <ele>162</ele>
        <time>2026-07-15T15:03:00.837Z</time>
      </trkpt>
      <trkpt lat="49.39553" lon="1.44074">
        <ele>162</ele>
        <time>2026-07-15T15:03:04.959Z</time>
      </trkpt>
      <trkpt lat="49.39554" lon="1.44081">
        <ele>162</ele>
        <time>2026-07-15T15:03:09.169Z</time>
      </trkpt>
      <trkpt lat="49.39554" lon="1.44088">
        <ele>162</ele>
        <time>2026-07-15T15:03:13.252Z</time>
      </trkpt>
      <trkpt lat="49.39554" lon="1.44095">
        <ele>162</ele>
        <time>2026-07-15T15:03:17.291Z</time>
      </trkpt>
      <trkpt lat="49.39553" lon="1.44102">
        <ele>162</ele>
        <time>2026-07-15T15:03:21.532Z</time>
      </trkpt>
      <trkpt lat="49.39553" lon="1.44109">
        <ele>162</ele>
        <time>2026-07-15T15:03:25.959Z</time>
      </trkpt>
      <trkpt lat="49.39553" lon="1.44116">
        <ele>162</ele>
        <time>2026-07-15T15:03:30.269Z</time>
      </trkpt>
      <trkpt lat="49.39553" lon="1.44124">
        <ele>162</ele>
        <time>2026-07-15T15:03:34.413Z</time>
      </trkpt>
      <trkpt lat="49.39553" lon="1.44131">
        <ele>162</ele>
        <time>2026-07-15T15:03:38.964Z</time>
      </trkpt>
      <trkpt lat="49.39552" lon="1.44138">
        <ele>162</ele>
        <time>2026-07-15T15:03:42.965Z</time>
      </trkpt>
      <trkpt lat="49.39552" lon="1.44146">
        <ele>162</ele>
        <time>2026-07-15T15:03:47.689Z</time>
      </trkpt>
      <trkpt lat="49.39552" lon="1.44153">
        <ele>161</ele>
        <time>2026-07-15T15:03:51.711Z</time>
      </trkpt>
      <trkpt lat="49.39551" lon="1.4416">
        <ele>161</ele>
        <time>2026-07-15T15:03:55.872Z</time>
      </trkpt>
      <trkpt lat="49.39551" lon="1.44167">
        <ele>161</ele>
        <time>2026-07-15T15:04:00.456Z</time>
      </trkpt>
      <trkpt lat="49.39551" lon="1.44174">
        <ele>161</ele>
        <time>2026-07-15T15:04:04.512Z</time>
      </trkpt>
      <trkpt lat="49.3955" lon="1.4418">
        <ele>161</ele>
        <time>2026-07-15T15:04:08.516Z</time>
      </trkpt>
      <trkpt lat="49.3955" lon="1.44187">
        <ele>160</ele>
        <time>2026-07-15T15:04:12.775Z</time>
      </trkpt>
      <trkpt lat="49.39549" lon="1.44195">
        <ele>160</ele>
        <time>2026-07-15T15:04:26.962Z</time>
      </trkpt>
      <trkpt lat="49.39548" lon="1.44201">
        <ele>160</ele>
        <time>2026-07-15T15:04:31.964Z</time>
      </trkpt>
      <trkpt lat="49.39547" lon="1.44207">
        <ele>160</ele>
        <time>2026-07-15T15:04:36.968Z</time>
      </trkpt>
      <trkpt lat="49.39546" lon="1.44214">
        <ele>158</ele>
        <time>2026-07-15T15:04:41.654Z</time>
      </trkpt>
      <trkpt lat="49.39545" lon="1.44221">
        <ele>158</ele>
        <time>2026-07-15T15:04:45.772Z</time>
      </trkpt>
      <trkpt lat="49.39544" lon="1.44228">
        <ele>158</ele>
        <time>2026-07-15T15:04:49.963Z</time>
      </trkpt>
      <trkpt lat="49.39544" lon="1.44236">
        <ele>158</ele>
        <time>2026-07-15T15:04:54.649Z</time>
      </trkpt>
      <trkpt lat="49.39543" lon="1.44242">
        <ele>157</ele>
        <time>2026-07-15T15:04:58.775Z</time>
      </trkpt>
      <trkpt lat="49.39542" lon="1.4425">
        <ele>157</ele>
        <time>2026-07-15T15:05:02.963Z</time>
      </trkpt>
      <trkpt lat="49.39542" lon="1.44256">
        <ele>157</ele>
        <time>2026-07-15T15:05:07.213Z</time>
      </trkpt>
      <trkpt lat="49.3954" lon="1.44262">
        <ele>156</ele>
        <time>2026-07-15T15:05:11.375Z</time>
      </trkpt>
      <trkpt lat="49.39537" lon="1.44267">
        <ele>156</ele>
        <time>2026-07-15T15:05:15.616Z</time>
      </trkpt>
      <trkpt lat="49.39534" lon="1.44272">
        <ele>156</ele>
        <time>2026-07-15T15:05:19.655Z</time>
      </trkpt>
      <trkpt lat="49.3953" lon="1.44276">
        <ele>156</ele>
        <time>2026-07-15T15:05:23.914Z</time>
      </trkpt>
      <trkpt lat="49.39527" lon="1.44281">
        <ele>156</ele>
        <time>2026-07-15T15:05:28.269Z</time>
      </trkpt>
      <trkpt lat="49.39524" lon="1.44284">
        <ele>156</ele>
        <time>2026-07-15T15:05:32.571Z</time>
      </trkpt>
      <trkpt lat="49.39521" lon="1.44288">
        <ele>156</ele>
        <time>2026-07-15T15:05:36.856Z</time>
      </trkpt>
      <trkpt lat="49.39518" lon="1.44291">
        <ele>156</ele>
        <time>2026-07-15T15:05:40.962Z</time>
      </trkpt>
      <trkpt lat="49.39518" lon="1.44295">
        <ele>156</ele>
        <time>2026-07-15T15:05:45.215Z</time>
      </trkpt>
      <trkpt lat="49.39518" lon="1.44299">
        <ele>156</ele>
        <time>2026-07-15T15:05:49.509Z</time>
      </trkpt>
      <trkpt lat="49.39518" lon="1.44306">
        <ele>156</ele>
        <time>2026-07-15T15:05:53.671Z</time>
      </trkpt>
      <trkpt lat="49.3952" lon="1.44314">
        <ele>156</ele>
        <time>2026-07-15T15:05:57.929Z</time>
      </trkpt>
      <trkpt lat="49.39523" lon="1.44322">
        <ele>156</ele>
        <time>2026-07-15T15:06:02.109Z</time>
      </trkpt>
      <trkpt lat="49.39525" lon="1.44328">
        <ele>156</ele>
        <time>2026-07-15T15:06:06.394Z</time>
      </trkpt>
      <trkpt lat="49.39527" lon="1.44334">
        <ele>156</ele>
        <time>2026-07-15T15:06:10.670Z</time>
      </trkpt>
      <trkpt lat="49.3953" lon="1.44339">
        <ele>156</ele>
        <time>2026-07-15T15:06:14.849Z</time>
      </trkpt>
      <trkpt lat="49.39533" lon="1.44343">
        <ele>156</ele>
        <time>2026-07-15T15:06:18.963Z</time>
      </trkpt>
      <trkpt lat="49.39536" lon="1.44348">
        <ele>157</ele>
        <time>2026-07-15T15:06:23.172Z</time>
      </trkpt>
      <trkpt lat="49.39539" lon="1.44353">
        <ele>157</ele>
        <time>2026-07-15T15:06:27.510Z</time>
      </trkpt>
      <trkpt lat="49.39542" lon="1.44357">
        <ele>157</ele>
        <time>2026-07-15T15:06:31.611Z</time>
      </trkpt>
      <trkpt lat="49.39544" lon="1.44363">
        <ele>157</ele>
        <time>2026-07-15T15:06:35.711Z</time>
      </trkpt>
      <trkpt lat="49.39546" lon="1.44369">
        <ele>157</ele>
        <time>2026-07-15T15:06:39.891Z</time>
      </trkpt>
      <trkpt lat="49.39548" lon="1.44375">
        <ele>158</ele>
        <time>2026-07-15T15:06:43.962Z</time>
      </trkpt>
      <trkpt lat="49.39551" lon="1.44382">
        <ele>158</ele>
        <time>2026-07-15T15:06:48.232Z</time>
      </trkpt>
      <trkpt lat="49.39553" lon="1.44388">
        <ele>158</ele>
        <time>2026-07-15T15:06:52.333Z</time>
      </trkpt>
      <trkpt lat="49.39555" lon="1.44393">
        <ele>158</ele>
        <time>2026-07-15T15:06:56.591Z</time>
      </trkpt>
      <trkpt lat="49.39557" lon="1.44399">
        <ele>158</ele>
        <time>2026-07-15T15:07:00.771Z</time>
      </trkpt>
      <trkpt lat="49.39562" lon="1.44415">
        <ele>159</ele>
        <time>2026-07-15T15:07:04.915Z</time>
      </trkpt>
      <trkpt lat="49.39562" lon="1.44416">
        <ele>159</ele>
        <time>2026-07-15T15:07:08.963Z</time>
      </trkpt>
      <trkpt lat="49.39562" lon="1.44421">
        <ele>159</ele>
        <time>2026-07-15T15:07:13.169Z</time>
      </trkpt>
      <trkpt lat="49.39562" lon="1.44426">
        <ele>159</ele>
        <time>2026-07-15T15:07:17.269Z</time>
      </trkpt>
      <trkpt lat="49.39564" lon="1.44431">
        <ele>160</ele>
        <time>2026-07-15T15:07:21.510Z</time>
      </trkpt>
      <trkpt lat="49.39565" lon="1.44433">
        <ele>160</ele>
        <time>2026-07-15T15:07:25.532Z</time>
      </trkpt>
      <trkpt lat="49.39567" lon="1.44441">
        <ele>160</ele>
        <time>2026-07-15T15:07:29.632Z</time>
      </trkpt>
      <trkpt lat="49.39568" lon="1.44449">
        <ele>160</ele>
        <time>2026-07-15T15:07:33.732Z</time>
      </trkpt>
      <trkpt lat="49.39569" lon="1.44456">
        <ele>160</ele>
        <time>2026-07-15T15:07:37.815Z</time>
      </trkpt>
      <trkpt lat="49.3957" lon="1.44462">
        <ele>159</ele>
        <time>2026-07-15T15:07:41.916Z</time>
      </trkpt>
      <trkpt lat="49.39572" lon="1.44469">
        <ele>159</ele>
        <time>2026-07-15T15:07:45.960Z</time>
      </trkpt>
      <trkpt lat="49.39573" lon="1.44476">
        <ele>159</ele>
        <time>2026-07-15T15:07:50.152Z</time>
      </trkpt>
      <trkpt lat="49.39574" lon="1.44483">
        <ele>159</ele>
        <time>2026-07-15T15:07:54.349Z</time>
      </trkpt>
      <trkpt lat="49.39574" lon="1.4449">
        <ele>160</ele>
        <time>2026-07-15T15:07:58.449Z</time>
      </trkpt>
      <trkpt lat="49.39575" lon="1.44495">
        <ele>160</ele>
        <time>2026-07-15T15:08:02.673Z</time>
      </trkpt>
      <trkpt lat="49.39576" lon="1.44496">
        <ele>160</ele>
        <time>2026-07-15T15:08:06.870Z</time>
      </trkpt>
      <trkpt lat="49.39579" lon="1.44511">
        <ele>160</ele>
        <time>2026-07-15T15:08:11.137Z</time>
      </trkpt>
      <trkpt lat="49.39577" lon="1.44508">
        <ele>160</ele>
        <time>2026-07-15T15:08:15.395Z</time>
      </trkpt>
      <trkpt lat="49.39577" lon="1.44502">
        <ele>160</ele>
        <time>2026-07-15T15:08:19.829Z</time>
      </trkpt>
      <trkpt lat="49.39577" lon="1.44495">
        <ele>160</ele>
        <time>2026-07-15T15:08:24.395Z</time>
      </trkpt>
      <trkpt lat="49.39577" lon="1.44487">
        <ele>160</ele>
        <time>2026-07-15T15:08:28.959Z</time>
      </trkpt>
      <trkpt lat="49.39576" lon="1.44478">
        <ele>159</ele>
        <time>2026-07-15T15:08:33.509Z</time>
      </trkpt>
      <trkpt lat="49.39576" lon="1.44471">
        <ele>159</ele>
        <time>2026-07-15T15:08:37.952Z</time>
      </trkpt>
      <trkpt lat="49.39574" lon="1.44466">
        <ele>159</ele>
        <time>2026-07-15T15:08:42.351Z</time>
      </trkpt>
      <trkpt lat="49.39572" lon="1.44461">
        <ele>159</ele>
        <time>2026-07-15T15:08:46.963Z</time>
      </trkpt>
      <trkpt lat="49.3957" lon="1.44454">
        <ele>159</ele>
        <time>2026-07-15T15:08:51.711Z</time>
      </trkpt>
      <trkpt lat="49.39571" lon="1.44447">
        <ele>159</ele>
        <time>2026-07-15T15:08:56.189Z</time>
      </trkpt>
      <trkpt lat="49.39572" lon="1.44439">
        <ele>159</ele>
        <time>2026-07-15T15:09:00.316Z</time>
      </trkpt>
      <trkpt lat="49.39572" lon="1.44433">
        <ele>159</ele>
        <time>2026-07-15T15:09:04.513Z</time>
      </trkpt>
      <trkpt lat="49.39572" lon="1.44431">
        <ele>159</ele>
        <time>2026-07-15T15:09:08.912Z</time>
      </trkpt>
    </trkseg>
  </trk>
</gpx>